[[{"header":{"parameterUnit":"m.s-1","parameterCategory":1,"la1":30.6,"la2":28.766,"lo1":-90.7593,"lo2":-88.6598,"dy":0.0162,"dx":0.0183,"nx":116,"ny":114,"refTime":"2023-06-12T12:00:00:Z","depth":0,"parameterNumber":2,"parameterNumberName":"U-component_of_WINDS"},"data":[0.0,0.0,0.0,0.0,0.0,0.0,0.0,0.0,0.0,0.0,0.0,0.0,0.0,0.0,0.0,0.0,0.0,0.0,0.0,0.0,0.0,0.0,0.0,0.0,0.0,0.0,0.0,0.0,0.0,0.0,0.0,0.0,0.0,0.0,0.0,0.0,0.0,0.0,0.0,0.0,0.0,0.0,0.0,0.0,0.0,0.0,0.0,0.0,0.0,0.0,0.0,0.0,0.0,0.0,0.0,0.0,0.0,0.0,0.0,0.0,0.0,0.0,0.0,0.0,0.0,0.0,0.0,0.0,0.0,0.0,0.0,0.0,0.0,0.0,0.0,0.0,0.0,0.0,0.0,0.0,0.0,0.0,0.0,0.0,0.0,0.0,0.0,0.0,0.0,0.0,0.0,0.0,0.0,0.0,0.0,0.0,0.0,0.0,0.0,0.0,0.0,0.0,0.0,0.0,0.0,0.0,0.0,0.0,0.0,0.0,0.0,0.0,0.0,0.0,0.0,0.0,0.0,0.0,0.0,0.0,0.0,0.0,0.0,0.0,0.0,0.0,0.0,0.0,0.0,0.0,0.0,0.0,0.0,0.0,0.0,0.0,0.0,0.0,0.0,0.0,0.0,0.0,0.0,0.0,0.0,0.0,0.0,0.0,0.0,0.0,0.0,0.0,0.0,0.0,0.0,0.0,0.0,0.0,0.0,0.0,0.0,0.0,0.0,0.0,0.0,0.0,0.0,0.0,0.0,0.0,0.0,0.0,0.0,0.0,0.0,0.0,0.0,0.0,0.0,0.0,0.0,0.0,0.0,0.0,0.0,0.0,0.0,0.0,0.0,0.0,0.0,0.0,0.0,0.0,0.0,0.0,0.0,0.0,0.0,0.0,0.0,0.0,0.0,0.0,0.0,0.0,0.0,0.0,0.0,0.0,0.0,0.0,0.0,0.0,0.0,0.0,0.0,0.0,0.0,0.0,0.0,0.0,0.0,0.0,0.0,0.0,0.0,0.0,0.0,0.0,0.0,0.0,0.0,0.0,0.0,0.0,0.0,0.0,0.0,0.0,0.0,0.0,0.0,0.0,0.0,0.0,0.0,0.0,0.0,0.0,0.0,0.0,0.0,0.0,0.0,0.0,0.0,0.0,0.0,0.0,0.0,0.0,0.0,0.0,0.0,0.0,0.0,0.0,0.0,0.0,0.0,0.0,0.0,0.0,0.0,0.0,0.0,0.0,0.0,0.0,0.0,0.0,0.0,0.0,0.0,0.0,0.0,0.0,0.0,0.0,0.0,0.0,0.0,0.0,0.0,0.0,0.0,0.0,0.0,0.0,0.0,0.0,0.0,0.0,0.0,0.0,0.0,0.0,0.0,0.0,0.0,0.0,0.0,0.0,0.0,0.0,0.0,0.0,0.0,0.0,0.0,0.0,0.0,0.0,0.0,0.0,0.0,0.0,0.0,0.0,0.0,0.0,0.0,0.0,0.0,0.0,0.0,0.0,0.0,0.0,0.0,0.0,0.0,0.0,0.0,0.0,0.0,0.0,0.0,0.0,0.0,0.0,0.0,0.0,0.0,0.0,0.0,0.0,0.0,0.0,0.0,0.0,0.0,0.0,0.0,0.0,0.0,0.0,0.0,0.0,0.0,0.0,0.0,0.0,0.0,0.0,0.0,0.0,0.0,0.0,0.0,0.0,0.0,0.0,0.0,0.0,0.0,0.0,0.0,0.0,0.0,0.0,0.0,0.0,0.0,0.0,0.0,0.0,0.0,0.0,0.0,0.0,0.0,0.0,0.0,0.0,0.0,0.0,0.0,0.0,0.0,0.0,0.0,0.0,0.0,0.0,0.0,0.0,0.0,0.0,0.0,0.0,0.0,0.0,0.0,0.0,0.0,0.0,0.0,0.0,0.0,0.0,0.0,0.0,0.0,0.0,0.0,0.0,0.0,0.0,0.0,0.0,0.0,0.0,0.0,0.0,0.0,0.0,0.0,0.0,0.0,0.0,0.0,0.0,0.0,0.0,0.0,0.0,0.0,0.0,0.0,0.0,0.0,0.0,0.0,0.0,0.0,0.0,0.0,0.0,0.0,0.0,0.0,0.0,0.0,0.0,0.0,0.0,0.0,0.0,0.0,0.0,0.0,0.0,0.0,0.0,0.0,0.0,0.0,0.0,0.0,0.0,0.0,0.0,0.0,0.0,0.0,0.0,0.0,0.0,0.0,0.0,0.0,0.0,0.0,0.0,0.0,0.0,0.0,0.0,0.0,0.0,0.0,0.0,0.0,0.0,0.0,0.0,0.0,0.0,0.0,0.0,0.0,0.0,0.0,0.0,0.0,0.0,0.0,0.0,0.0,0.0,0.0,0.0,0.0,0.0,0.0,0.0,0.0,0.0,0.0,0.0,0.0,0.0,0.0,0.0,0.0,0.0,0.0,0.0,0.0,0.0,0.0,0.0,0.0,0.0,0.0,0.0,0.0,0.0,0.0,0.0,0.0,0.0,0.0,0.0,0.0,0.0,0.0,0.0,0.0,0.0,0.0,0.0,0.0,0.0,0.0,0.0,0.0,0.0,0.0,0.0,0.0,0.0,0.0,0.0,0.0,0.0,0.0,0.0,0.0,0.0,0.0,0.0,0.0,0.0,0.0,0.0,0.0,0.0,0.0,0.0,0.0,0.0,0.0,0.0,0.0,0.0,0.0,0.0,0.0,0.0,0.0,0.0,0.0,0.0,0.0,0.0,0.0,0.0,0.0,0.0,0.0,0.0,0.0,0.0,0.0,0.0,0.0,0.0,0.0,0.0,0.0,0.0,0.0,0.0,0.0,0.0,0.0,0.0,0.0,0.0,0.0,0.0,0.0,0.0,0.0,0.0,0.0,0.0,0.0,0.0,0.0,0.0,0.0,0.0,0.0,0.0,0.0,0.0,0.0,0.0,0.0,0.0,0.0,0.0,0.0,0.0,0.0,0.0,0.0,0.0,0.0,0.0,0.0,0.0,0.0,0.0,0.0,0.0,0.0,0.0,0.0,0.0,0.0,0.0,0.0,0.0,0.0,0.0,0.0,0.0,0.0,0.0,0.0,0.0,0.0,0.0,0.0,0.0,0.0,0.0,0.0,0.0,0.0,0.0,0.0,0.0,0.0,0.0,0.0,0.0,0.0,0.0,0.0,0.0,0.0,0.0,0.0,0.0,0.0,0.0,0.0,0.0,0.0,0.0,0.0,0.0,0.0,0.0,0.0,0.0,0.0,0.0,0.0,0.0,0.0,0.0,0.0,0.0,0.0,0.0,0.0,0.0,0.0,0.0,0.0,0.0,0.0,0.0,0.0,0.0,0.0,0.0,0.0,0.0,0.0,0.0,0.0,0.0,0.0,0.0,0.0,0.0,0.0,0.0,0.0,0.0,0.0,0.0,0.0,0.0,0.0,0.0,0.0,0.0,0.0,0.0,0.0,0.0,0.0,0.0,0.0,0.0,0.0,0.0,0.0,0.0,0.0,0.0,0.0,0.0,0.0,0.0,0.0,0.0,0.0,0.0,0.0,0.0,0.0,0.0,0.0,0.0,0.0,0.0,0.0,0.0,0.0,0.0,0.0,0.0,0.0,0.0,0.0,0.0,0.0,0.0,0.0,0.0,0.0,0.0,0.0,0.0,0.0,0.0,0.0,0.0,0.0,0.0,0.0,0.0,0.0,0.0,0.0,0.0,0.0,0.0,0.0,0.0,0.0,0.0,0.0,0.0,0.0,0.0,0.0,0.0,0.0,0.0,0.0,0.0,0.0,0.0,0.0,0.0,0.0,0.0,0.0,0.0,0.0,0.0,0.0,0.0,0.0,0.0,0.0,0.0,0.0,0.0,0.0,0.0,0.0,0.0,0.0,0.0,0.0,0.0,0.0,0.0,0.0,0.0,0.0,0.0,0.0,0.0,0.0,0.0,0.0,0.0,0.0,0.0,0.0,0.0,0.0,0.0,0.0,0.0,0.0,0.0,0.0,0.0,0.0,0.0,0.0,0.0,0.0,0.0,0.0,0.0,0.0,0.0,0.0,0.0,0.0,0.0,0.0,0.0,0.0,0.0,0.0,0.0,0.0,0.0,0.0,0.0,0.0,0.0,0.0,0.0,0.0,0.0,0.0,0.0,0.0,0.0,0.0,0.0,0.0,0.0,0.0,0.0,0.0,0.0,0.0,0.0,0.0,0.0,0.0,0.0,0.0,0.0,0.0,0.0,0.0,0.0,0.0,0.0,0.0,0.0,0.0,0.0,0.0,0.0,0.0,0.0,0.0,0.0,0.0,0.0,0.0,0.0,0.0,0.0,0.0,0.0,0.0,0.0,0.0,0.0,0.0,0.0,0.0,0.0,0.0,0.0,0.0,0.0,0.0,0.0,0.0,0.0,0.0,0.0,0.0,0.0,0.0,0.0,0.0,0.0,0.0,0.0,0.0,0.0,0.0,0.0,0.0,0.0,0.0,0.0,0.0,0.0,0.0,0.0,0.0,0.0,0.0,0.0,0.0,0.0,0.0,0.0,0.0,0.0,0.0,0.0,0.0,0.0,0.0,0.0,0.0,0.0,0.0,0.0,0.0,0.0,0.0,0.0,0.0,0.0,0.0,0.0,0.0,0.0,0.0,0.0,0.0,0.0,0.0,0.0,0.0,0.0,0.0,0.0,0.0,0.0,0.0,0.0,0.0,0.0,0.0,0.0,0.0,0.0,0.0,0.0,0.0,0.0,0.0,0.0,0.0,0.0,0.0,0.0,0.0,0.0,0.0,0.0,0.0,0.0,0.0,0.0,0.0,0.0,0.0,0.0,0.0,0.0,0.0,0.0,0.0,0.0,0.0,0.0,0.0,0.0,0.0,0.0,0.0,0.0,0.0,0.0,0.0,0.0,0.0,0.0,0.0,0.0,0.0,0.0,0.0,0.0,0.0,0.0,0.0,0.0,0.0,0.0,0.0,0.0,0.0,0.0,0.0,0.0,0.0,0.0,0.0,0.0,0.0,0.0,0.0,0.0,0.0,0.0,0.0,0.0,0.0,0.0,0.0,0.0,0.0,0.0,0.0,0.0,0.0,0.0,0.0,0.0,0.0,0.0,0.0,0.0,0.0,0.0,0.0,0.0,0.0,0.0,0.0,0.0,0.0,0.0,0.0,0.0,0.0,0.0,0.0,0.0,0.0,0.0,0.0,0.0,0.0,0.0,0.0,0.0,0.0,0.0,0.0,0.0,0.0,0.0,0.0,0.0,0.0,0.0,0.0,0.0,0.0,0.0,0.0,0.0,0.0,0.0,0.0,0.0,0.0,0.0,0.0,0.0,0.0,0.0,0.0,0.0,0.0,0.0,0.0,0.0,0.0,0.0,0.0,0.0,0.0,0.0,0.0,0.0,0.0,0.0,0.0,0.0,0.0,0.0,0.0,0.0,0.0,0.0,0.0,0.0,0.0,0.0,0.0,0.0,0.0,0.0,0.0,0.0,0.0,0.0,0.0,0.0,0.0,0.0,0.0,0.0,0.0,0.0,0.0,0.0,0.0,0.0,0.0,0.0,0.0,0.0,0.0,0.0,0.0,0.0,0.0,0.0,0.0,0.0,0.0,0.0,0.0,0.0,0.0,0.0,0.0,0.0,0.0,0.0,0.0,0.0,0.0,0.0,0.0,0.0,0.0,0.0,0.0,0.0,0.0,0.0,0.0,0.0,0.0,0.0,0.0,0.0,0.0,0.0,0.0,0.0,0.0,0.0,0.0,0.0,0.0,0.0,0.0,0.0,0.0,0.0,0.0,0.0,0.0,0.0,0.0,0.0,0.0,0.0,0.0,0.0,0.0,0.0,0.0,0.0,0.0,0.0,0.0,0.0,0.0,0.0,0.0,0.0,0.0,0.0,0.0,0.0,0.0,0.0,0.0,0.0,0.0,0.0,0.0,0.0,0.0,0.0,0.0,0.0,0.0,0.0,0.0,0.0,0.0,0.0,0.0,0.0,0.0,0.0,0.0,0.0,0.0,0.0,0.0,0.0,0.0,0.0,0.0,0.0,0.0,0.0,0.0,0.0,0.0,0.0,0.0,0.0,0.0,0.0,0.0,0.0,0.0,0.0,0.0,0.0,0.0,0.0,-4.4225,-4.4408,0.0,0.0,0.0,0.0,0.0,0.0,0.0,0.0,0.0,0.0,0.0,0.0,0.0,0.0,0.0,0.0,0.0,0.0,0.0,0.0,0.0,0.0,0.0,0.0,0.0,0.0,0.0,0.0,0.0,0.0,0.0,0.0,0.0,0.0,0.0,0.0,0.0,0.0,0.0,0.0,0.0,0.0,0.0,0.0,0.0,0.0,0.0,0.0,0.0,0.0,0.0,0.0,0.0,0.0,0.0,0.0,0.0,0.0,0.0,0.0,0.0,0.0,0.0,0.0,0.0,0.0,0.0,0.0,0.0,0.0,0.0,0.0,0.0,0.0,0.0,0.0,0.0,0.0,0.0,0.0,0.0,0.0,0.0,0.0,0.0,0.0,0.0,0.0,0.0,0.0,0.0,0.0,0.0,0.0,0.0,0.0,0.0,0.0,0.0,0.0,0.0,0.0,0.0,0.0,0.0,0.0,0.0,0.0,0.0,0.0,0.0,0.0,0.0,0.0,-4.4722,-4.4408,0.0,0.0,0.0,0.0,0.0,0.0,0.0,0.0,0.0,0.0,0.0,0.0,0.0,0.0,0.0,0.0,0.0,0.0,0.0,0.0,0.0,0.0,0.0,0.0,0.0,0.0,0.0,0.0,0.0,0.0,0.0,0.0,0.0,0.0,0.0,0.0,0.0,0.0,0.0,0.0,0.0,0.0,0.0,0.0,0.0,0.0,0.0,0.0,0.0,0.0,0.0,0.0,0.0,0.0,0.0,0.0,0.0,0.0,0.0,0.0,0.0,0.0,0.0,0.0,0.0,0.0,0.0,0.0,0.0,0.0,0.0,0.0,0.0,0.0,0.0,0.0,0.0,0.0,0.0,0.0,0.0,0.0,0.0,0.0,0.0,0.0,0.0,0.0,0.0,0.0,0.0,0.0,0.0,0.0,0.0,0.0,0.0,0.0,0.0,0.0,0.0,0.0,0.0,0.0,0.0,0.0,0.0,0.0,-4.5789,-4.6186,-4.7989,-4.6578,-4.6238,-4.6708,-4.5741,-4.4905,-4.4225,-4.4696,0.0,0.0,0.0,0.0,0.0,0.0,0.0,0.0,0.0,0.0,0.0,0.0,0.0,0.0,0.0,0.0,0.0,0.0,0.0,0.0,0.0,0.0,0.0,0.0,0.0,0.0,0.0,0.0,0.0,0.0,0.0,0.0,0.0,0.0,0.0,0.0,0.0,0.0,-4.1076,-4.0622,-4.0739,-4.1395,0.0,0.0,0.0,0.0,0.0,0.0,0.0,0.0,0.0,0.0,0.0,0.0,0.0,0.0,0.0,0.0,0.0,0.0,0.0,0.0,0.0,0.0,0.0,0.0,0.0,0.0,0.0,0.0,0.0,0.0,0.0,0.0,0.0,0.0,0.0,0.0,0.0,0.0,0.0,0.0,0.0,0.0,0.0,0.0,-4.3888,-4.4676,0.0,0.0,0.0,0.0,0.0,0.0,0.0,0.0,0.0,0.0,0.0,0.0,0.0,-4.7531,-4.6975,-4.7421,-4.7487,-4.7109,-4.703,-4.7096,-4.744,-4.7148,-4.7414,-4.7963,-4.7806,0.0,-4.5401,-4.548,0.0,0.0,0.0,0.0,0.0,0.0,0.0,0.0,0.0,0.0,0.0,0.0,0.0,0.0,0.0,0.0,0.0,0.0,0.0,0.0,0.0,0.0,0.0,0.0,0.0,0.0,0.0,0.0,0.0,0.0,0.0,0.0,0.0,0.0,0.0,0.0,-4.1628,-4.1453,-4.1105,-4.1284,-4.1488,-4.1686,-4.2444,-4.2852,-4.2934,-4.3282,0.0,0.0,0.0,0.0,0.0,0.0,0.0,0.0,0.0,0.0,0.0,0.0,0.0,0.0,0.0,0.0,0.0,0.0,0.0,0.0,0.0,0.0,0.0,0.0,0.0,0.0,0.0,0.0,0.0,0.0,0.0,0.0,0.0,0.0,0.0,0.0,0.0,0.0,0.0,-4.3958,-4.5394,-4.5304,-4.5963,-4.6022,0.0,0.0,0.0,0.0,0.0,0.0,0.0,0.0,0.0,-4.8859,-4.8572,-4.8431,-4.854,-4.8584,-4.863,-4.8683,-4.8746,-4.9113,-4.9714,-4.9401,-4.9401,-4.9636,-4.9636,-4.9035,-4.7937,-4.697,-4.6395,-4.6055,0.0,0.0,0.0,0.0,-4.5009,-4.5245,0.0,0.0,0.0,0.0,0.0,0.0,0.0,0.0,0.0,0.0,0.0,0.0,0.0,0.0,0.0,-4.3892,0.0,0.0,0.0,0.0,0.0,0.0,0.0,0.0,0.0,0.0,0.0,0.0,-4.186,-4.1831,-4.1366,-4.182,-4.1995,-4.1831,-4.1995,-4.2082,-4.2121,-4.2586,-4.231,0.0,0.0,0.0,0.0,0.0,0.0,0.0,0.0,0.0,0.0,0.0,0.0,0.0,0.0,0.0,0.0,0.0,0.0,0.0,0.0,0.0,0.0,0.0,0.0,0.0,0.0,0.0,0.0,0.0,0.0,0.0,0.0,0.0,0.0,0.0,0.0,0.0,0.0,-4.5155,-4.6501,-4.5663,-4.7189,-4.7638,0.0,0.0,0.0,0.0,0.0,0.0,-4.837,-4.7303,-4.7771,-5.0154,-4.9331,-4.9227,-4.9932,-4.9666,-4.9793,-5.0315,-5.0315,-5.076,-5.157,-5.1178,-5.0995,-5.0995,-5.0995,-5.0655,-5.0002,-4.825,-4.7388,-4.7048,-4.6186,-4.5924,-4.5973,-4.5741,-4.5715,-4.5872,0.0,0.0,0.0,0.0,0.0,0.0,0.0,0.0,0.0,0.0,0.0,0.0,0.0,0.0,-4.2615,-4.3892,-4.334,-4.2963,0.0,0.0,0.0,0.0,0.0,0.0,0.0,0.0,0.0,-4.2034,-4.2092,-4.2063,-4.2034,-4.1424,-4.1134,-4.1134,-4.1134,-4.1512,-4.2092,-4.2121,-4.1937,-4.1515,0.0,0.0,0.0,0.0,0.0,0.0,0.0,0.0,0.0,0.0,0.0,0.0,0.0,0.0,0.0,0.0,0.0,0.0,0.0,0.0,0.0,0.0,0.0,0.0,0.0,0.0,0.0,0.0,0.0,0.0,0.0,0.0,0.0,0.0,0.0,0.0,0.0,0.0,0.0,-4.6441,-4.9075,0.0,0.0,0.0,0.0,-4.7293,-4.7835,-4.8273,-4.8522,-4.8571,-4.8897,-4.9336,-4.9196,-4.9508,-5.036,-5.0603,-5.0969,-5.1518,-5.1518,-5.1544,-5.1596,-5.157,-5.1544,-5.1544,-5.1544,-5.1256,-5.0603,-4.8852,-4.846,-4.8773,-4.71,-4.6761,-4.7069,-4.5973,-4.5976,-4.6369,0.0,0.0,0.0,0.0,0.0,0.0,0.0,0.0,0.0,0.0,0.0,0.0,0.0,0.0,0.0,0.0,-4.2789,-4.2586,-4.2963,0.0,0.0,0.0,0.0,0.0,0.0,0.0,0.0,0.0,-4.2092,-4.2092,-4.2092,-4.186,-4.1744,-4.1744,-4.1744,-4.1889,-4.2051,-4.1381,-4.0701,-4.0007,-3.9352,-3.8668,0.0,0.0,0.0,0.0,0.0,0.0,0.0,0.0,0.0,0.0,0.0,0.0,0.0,0.0,0.0,0.0,0.0,0.0,0.0,0.0,0.0,0.0,0.0,0.0,0.0,0.0,0.0,0.0,0.0,0.0,0.0,0.0,0.0,0.0,0.0,0.0,0.0,-5.1349,-5.2457,0.0,-5.0671,-4.9729,-4.925,-4.9244,-4.9445,-4.98,-5.0402,-5.0036,-4.994,-5.0247,-5.0532,-5.1057,-5.1757,-5.1842,-5.1988,-5.2171,-5.2171,-5.1962,-5.1596,-5.1988,-5.1962,-5.1622,-5.2014,-5.1858,-5.123,-5.0263,-4.9766,-4.9505,-4.8538,-4.8041,-4.7832,-4.7414,-4.7414,-4.7545,0.0,0.0,0.0,0.0,0.0,0.0,0.0,0.0,0.0,0.0,0.0,0.0,0.0,0.0,0.0,0.0,0.0,0.0,-4.2673,0.0,0.0,0.0,0.0,0.0,0.0,0.0,0.0,0.0,0.0,0.0,0.0,-4.2528,-4.2615,-4.2411,-4.2644,-4.2615,-4.2328,-4.1209,-4.014,-3.9176,-3.8747,-3.8023,-3.7061,0.0,0.0,0.0,0.0,0.0,0.0,0.0,0.0,0.0,0.0,0.0,0.0,0.0,0.0,0.0,0.0,0.0,0.0,0.0,0.0,0.0,0.0,0.0,0.0,0.0,0.0,0.0,0.0,0.0,0.0,0.0,0.0,0.0,0.0,-5.0483,-5.2931,-5.3753,-5.4661,-5.467,-5.3111,-5.1969,-5.1266,-5.1319,-5.1391,-5.1552,-5.1837,-5.1467,-5.1268,-5.1259,-5.1475,-5.1946,-5.2675,-5.2365,-5.2302,-5.2485,-5.2276,-5.1988,-5.1622,-5.2014,-5.1962,-5.1622,-5.2014,-5.1962,-5.157,-5.1204,-5.0812,-5.0394,-4.9636,-4.9244,-4.9035,-4.8826,-4.8747,-4.8773,0.0,0.0,0.0,0.0,0.0,0.0,0.0,0.0,0.0,0.0,0.0,0.0,0.0,0.0,0.0,0.0,0.0,0.0,0.0,0.0,0.0,0.0,0.0,0.0,0.0,0.0,0.0,0.0,0.0,0.0,0.0,0.0,0.0,-4.305,-4.3689,-4.3602,-4.2923,-4.1605,-4.035,-3.923,-3.8747,-3.8023,-3.7186,0.0,0.0,0.0,0.0,0.0,0.0,0.0,0.0,0.0,0.0,0.0,0.0,0.0,0.0,0.0,0.0,0.0,0.0,0.0,0.0,0.0,0.0,0.0,0.0,0.0,0.0,0.0,0.0,0.0,0.0,0.0,0.0,0.0,-4.8223,-5.1317,-5.3458,-5.3416,-5.5606,-5.6384,-5.4479,-5.3696,-5.3281,-5.3295,-5.3646,-5.3489,-5.2575,-5.2855,-5.278,-5.2138,-5.1862,-5.2151,-5.3018,-5.2177,-5.1988,-5.2511,-5.1936,-5.1648,-5.1622,-5.1596,-5.1596,-5.1622,-5.1596,-5.1596,-5.1596,-5.1596,-5.1596,-5.1492,-5.0368,-5.0289,-5.0707,-5.0132,-4.9897,-4.9837,0.0,0.0,0.0,0.0,0.0,0.0,0.0,0.0,0.0,0.0,0.0,0.0,0.0,0.0,0.0,0.0,0.0,0.0,0.0,0.0,0.0,0.0,0.0,0.0,0.0,0.0,0.0,0.0,0.0,0.0,0.0,0.0,0.0,0.0,-4.3398,-4.3427,-4.3589,-4.1771,-4.0838,-4.0302,-3.8385,-3.7427,-3.7136,0.0,0.0,0.0,0.0,0.0,0.0,0.0,0.0,0.0,0.0,0.0,0.0,0.0,0.0,0.0,0.0,0.0,0.0,0.0,0.0,0.0,0.0,0.0,0.0,0.0,0.0,0.0,0.0,0.0,0.0,0.0,-4.6419,-4.8566,-4.9671,-5.2618,-5.5338,-5.7263,-5.7742,-5.7661,-5.7151,-5.6066,-5.496,-5.4032,-5.4649,-5.4717,-5.3805,-5.4038,-5.3839,-5.3057,-5.336,-5.3621,-5.387,-5.4066,-5.3818,-5.3138,-5.2981,-5.2668,-5.2223,-5.1805,-5.1831,-5.2223,-5.1779,-5.1596,-5.1596,-5.1596,-5.1596,-5.157,-5.1256,-5.0995,-5.076,-5.0603,-5.0263,-4.9889,0.0,0.0,0.0,0.0,0.0,0.0,0.0,0.0,0.0,0.0,0.0,0.0,0.0,0.0,0.0,0.0,0.0,0.0,0.0,0.0,0.0,0.0,0.0,0.0,0.0,0.0,0.0,0.0,0.0,0.0,0.0,0.0,0.0,0.0,0.0,-4.4269,-4.4298,-4.295,-4.1972,-4.114,-3.9254,-3.8153,-3.7462,-3.6958,-3.6757,-3.6732,-3.648,-3.6606,-3.6835,-3.6835,0.0,0.0,0.0,0.0,0.0,0.0,0.0,0.0,0.0,0.0,0.0,0.0,0.0,0.0,0.0,0.0,0.0,0.0,0.0,0.0,0.0,0.0,0.0,0.0,-4.79,-5.0072,-5.144,-5.3727,-5.6089,-5.8392,-5.8104,-5.7751,-5.7751,-5.6549,-5.5442,-5.4642,-5.5432,-5.5472,-5.4236,-5.4985,-5.4945,-5.3766,-5.4288,-5.4576,-5.4576,-5.4916,-5.4654,-5.3739,-5.3739,-5.3295,-5.2485,-5.2145,-5.2014,-5.2093,-5.1753,-5.1596,-5.1596,-5.1596,-5.1596,-5.1596,0.0,0.0,0.0,0.0,-5.0855,-5.0409,0.0,0.0,0.0,0.0,0.0,0.0,0.0,0.0,0.0,0.0,0.0,0.0,0.0,0.0,0.0,0.0,0.0,0.0,0.0,0.0,0.0,0.0,0.0,0.0,0.0,0.0,0.0,0.0,0.0,0.0,0.0,0.0,0.0,0.0,0.0,0.0,-4.498,-4.4447,-4.3407,-4.1998,-4.087,-3.9483,-3.804,-3.7412,-3.7186,-3.7111,-3.6531,-3.6355,-3.6405,-3.6329,0.0,0.0,0.0,0.0,0.0,0.0,0.0,0.0,0.0,0.0,0.0,0.0,0.0,0.0,0.0,0.0,0.0,0.0,0.0,0.0,0.0,0.0,0.0,0.0,-4.9557,-5.1675,-5.3347,-5.4624,-5.6022,-5.7763,-5.744,-5.7092,-5.7092,-5.6039,-5.5325,-5.5177,-5.5931,-5.5747,-5.4445,-5.5642,0.0,0.0,0.0,-5.5177,-5.5099,-5.5229,-5.4916,-5.421,-5.421,-5.3635,-5.2589,-5.2459,-5.2145,-5.1701,-5.1622,-5.1596,-5.1596,-5.1596,-5.1596,-5.1596,-5.1596,-5.1596,-5.1596,-5.1596,-5.1408,-5.1057,0.0,0.0,0.0,0.0,0.0,0.0,0.0,0.0,0.0,0.0,0.0,0.0,0.0,0.0,0.0,0.0,0.0,0.0,0.0,0.0,0.0,0.0,0.0,0.0,0.0,0.0,0.0,0.0,0.0,0.0,0.0,0.0,0.0,0.0,0.0,0.0,-4.5618,-4.4254,-4.3732,-4.3621,-4.1319,-3.9741,-3.8592,-3.7563,-3.7186,-3.7061,-3.6056,-3.5981,-3.6355,-3.5855,-3.5931,-3.6279,-3.638,0.0,0.0,0.0,0.0,0.0,0.0,0.0,0.0,0.0,0.0,0.0,0.0,0.0,0.0,0.0,0.0,0.0,0.0,0.0,0.0,-4.9061,-5.1361,-5.3347,-5.4602,-5.5024,-5.5681,-5.7159,-5.7204,-5.7092,-5.7092,-5.6834,-5.6462,-5.5767,-5.5506,-5.5427,-5.5569,-5.5453,-5.5218,-5.4942,-5.5465,-5.5543,-5.5099,-5.6013,-5.5726,-5.421,-5.421,0.0,-5.3191,-5.2223,-5.1962,-5.2302,-5.1805,-5.1596,-5.1596,-5.1596,-5.1596,-5.1596,-5.1596,-5.1596,-5.1596,-5.1596,-5.1408,-5.1057,0.0,0.0,0.0,0.0,0.0,0.0,0.0,0.0,0.0,0.0,0.0,0.0,0.0,0.0,0.0,0.0,0.0,0.0,0.0,0.0,0.0,0.0,0.0,0.0,0.0,0.0,0.0,0.0,0.0,0.0,0.0,0.0,0.0,0.0,0.0,0.0,0.0,-4.5068,-4.4567,-4.4191,-4.2869,-4.1413,-3.9877,-3.8212,-3.7412,-3.7111,-3.6558,-3.6358,-3.6405,-3.6358,-3.6182,-3.5956,-3.5956,-3.5755,-3.5558,0.0,0.0,0.0,0.0,0.0,0.0,0.0,0.0,0.0,0.0,0.0,0.0,0.0,0.0,-4.3885,-4.5349,0.0,-4.927,-5.1309,-5.2851,-5.4105,-5.4968,-5.5099,-5.5365,-5.6039,-5.6105,-5.6105,-5.6105,-5.6105,-5.5974,-5.5558,-5.5517,-5.5517,-5.5517,-5.5804,-5.583,-5.5517,-5.6066,-5.6223,-5.5961,-5.6536,-5.6223,-5.5046,-5.5046,-5.4471,-5.3373,-5.2772,-5.2328,-5.2014,-5.1727,-5.1596,-5.157,-5.1309,-5.1361,-5.157,-5.1309,-5.1361,-5.1596,-5.1408,-5.112,-5.0804,0.0,0.0,0.0,0.0,0.0,0.0,0.0,0.0,0.0,0.0,0.0,0.0,0.0,0.0,0.0,0.0,0.0,0.0,0.0,0.0,0.0,0.0,0.0,0.0,0.0,0.0,0.0,0.0,0.0,0.0,0.0,0.0,0.0,0.0,0.0,0.0,0.0,0.0,-4.5384,-4.4591,-4.4359,-4.3293,-4.1535,-3.9312,-3.8086,-3.7487,-3.7262,-3.6933,-3.6631,-3.691,-3.6508,-3.5809,-3.5809,-3.5809,-3.5809,-3.5902,-3.6502,0.0,0.0,0.0,0.0,0.0,0.0,0.0,0.0,-4.135,-4.2213,-4.4434,-4.5428,-4.663,-4.8982,-5.0054,-5.123,-5.3217,-5.4027,-5.455,-5.502,-5.5203,-5.5255,-5.5255,-5.5177,-5.5151,-5.5255,-5.5177,-5.5203,-5.5412,-5.5621,-5.5595,-5.5282,-5.604,-5.6196,-5.5595,-5.617,-5.6432,-5.6301,-5.6432,-5.6223,-5.5752,-5.5621,-5.4811,-5.34,-5.3269,-5.2642,-5.1596,-5.1596,-5.1596,-5.157,-5.1126,-5.1204,-5.1544,-5.1126,-5.1142,-5.1471,-5.1183,-5.0867,-5.0525,0.0,0.0,0.0,0.0,0.0,0.0,0.0,0.0,0.0,0.0,0.0,0.0,0.0,0.0,0.0,0.0,0.0,0.0,0.0,0.0,0.0,0.0,0.0,0.0,0.0,0.0,0.0,0.0,0.0,0.0,0.0,0.0,0.0,0.0,0.0,0.0,0.0,0.0,0.0,-4.564,-4.4712,-4.4172,-4.3665,-4.1121,-3.9515,-3.8592,-3.7538,-3.7136,-3.7036,-3.6656,-3.6732,-3.701,-3.701,-3.701,-3.7059,-3.7298,-3.721,-3.7138,-3.7366,-3.8039,-3.906,-4.0595,-4.1063,-4.2056,0.0,-4.6133,-4.6316,-4.812,-4.9348,-5.0211,-5.0551,-5.191,-5.3243,-5.4001,-5.4602,-5.502,-5.5099,-5.5517,-5.583,-5.583,-5.5386,-5.5282,-5.5778,-5.5386,-5.5517,-5.6536,-5.5726,-5.5386,-5.5804,-5.5491,-5.502,-5.4419,-5.4968,-5.5046,-5.4497,-5.502,-5.5255,-5.5177,-5.4654,-5.4053,-5.3373,-5.2851,-5.2223,-5.1596,-5.1596,-5.1596,-5.1596,-5.1544,-5.1544,-5.1596,-5.1518,-5.1356,-5.1183,-5.112,-5.0867,-5.0525,0.0,0.0,0.0,0.0,0.0,0.0,0.0,0.0,0.0,0.0,0.0,0.0,0.0,0.0,0.0,0.0,0.0,0.0,0.0,0.0,0.0,0.0,0.0,0.0,0.0,0.0,0.0,0.0,0.0,0.0,0.0,0.0,0.0,0.0,0.0,0.0,0.0,0.0,0.0,0.0,-4.6523,-4.5373,-4.3808,-4.2388,-4.0621,-3.8768,-3.7939,-3.7236,0.0,0.0,-3.6832,-3.6757,-3.6757,-3.6804,-3.6922,-3.7017,-3.7282,-3.7796,-3.8704,-3.9849,-4.0984,-4.2056,-4.3075,-4.4434,-4.6787,-4.7414,-4.8146,-5.0577,-5.1727,-5.2511,-5.3191,-5.3896,-5.4471,-5.468,-5.4942,-5.5099,-5.5099,-5.5308,-5.5203,-5.4524,-5.4524,-5.5072,-5.6301,-5.5909,-5.5778,-5.6249,-5.5543,-5.5203,-5.5412,-5.5229,-5.4811,-5.421,-5.4785,-5.4811,-5.421,-5.4811,-5.4916,-5.4576,-5.4314,-5.3739,-5.2877,-5.2616,-5.2171,-5.157,-5.1256,-5.1126,-5.1073,-5.042,-5.0315,-5.0577,-5.0263,-5.0132,-5.0136,-5.0312,-5.0127,-4.9761,0.0,0.0,0.0,0.0,0.0,0.0,0.0,0.0,0.0,0.0,0.0,0.0,0.0,0.0,0.0,0.0,0.0,0.0,0.0,0.0,0.0,0.0,0.0,0.0,0.0,0.0,0.0,0.0,0.0,0.0,0.0,0.0,0.0,0.0,0.0,0.0,0.0,0.0,0.0,0.0,0.0,-4.6168,-4.4047,-4.3012,-4.1183,-3.8991,-3.8088,-3.7262,0.0,0.0,-3.6832,-3.6631,-3.6679,-3.6922,-3.7166,-3.7155,-3.7518,-3.8196,-3.9679,-4.1121,-4.2422,-4.3467,-4.5166,-4.6917,-4.8224,-4.9087,-5.0315,-5.272,-5.3556,-5.4131,-5.4942,-5.5099,-5.5099,-5.5099,-5.5099,-5.5099,-5.5099,-5.4968,-5.455,-5.3713,-5.3844,-5.4524,-5.5961,-5.57,-5.5647,-5.6118,-5.5517,-5.5099,-5.5099,-5.5099,-5.4811,-5.421,-5.4785,-5.4733,-5.4001,-5.4733,-5.4811,-5.421,-5.421,-5.3687,-5.272,-5.225,-5.1779,-5.1335,-5.0786,-5.0551,-5.0472,-4.9636,-4.9531,-4.9845,-4.9453,-4.9291,-4.9229,-4.9328,-4.9223,-4.8988,0.0,0.0,0.0,0.0,0.0,0.0,0.0,0.0,0.0,0.0,0.0,0.0,0.0,0.0,0.0,0.0,0.0,0.0,0.0,0.0,0.0,0.0,0.0,0.0,0.0,0.0,0.0,0.0,0.0,0.0,0.0,0.0,0.0,0.0,0.0,0.0,0.0,0.0,0.0,0.0,0.0,0.0,-4.5032,-4.2861,-4.1004,-3.9372,-3.7774,0.0,0.0,0.0,-3.6782,-3.7209,-3.745,-3.7927,0.0,-3.8251,-3.8111,-3.8246,-3.9916,-4.1272,-4.2709,-4.4983,-4.7283,-4.9427,-5.1073,-5.238,-5.3583,-5.4785,-5.5046,-5.5072,-5.5099,-5.5099,-5.5099,-5.5099,-5.5099,-5.5099,-5.5099,-5.4602,-5.421,-5.4184,-5.3739,-5.3635,-5.4236,-5.4262,-5.4968,-5.6667,-5.5726,-5.5099,-5.5099,-5.5099,-5.4811,-5.421,-5.4785,-5.455,-5.3426,-5.455,-5.4811,-5.421,-5.421,-5.3896,-5.3321,-5.1622,-5.0838,-5.0786,-5.0185,-4.9923,-4.9923,-4.9871,-4.9871,-4.9897,-4.9871,-4.9447,-4.8846,-4.8333,-4.8304,-4.848,0.0,0.0,0.0,0.0,0.0,0.0,0.0,0.0,0.0,0.0,0.0,0.0,0.0,0.0,0.0,0.0,0.0,0.0,0.0,0.0,0.0,0.0,0.0,0.0,0.0,0.0,0.0,0.0,0.0,0.0,0.0,0.0,0.0,0.0,0.0,0.0,0.0,0.0,0.0,0.0,0.0,0.0,-4.5784,-4.2644,-4.0489,-3.8989,0.0,0.0,0.0,0.0,0.0,-3.7501,-3.7789,-3.7851,-3.7912,-3.8423,-3.9033,-3.986,-4.1219,-4.3258,-4.5401,-4.6944,-4.9061,-5.1126,-5.2485,-5.3373,-5.4053,-5.4419,-5.3896,-5.3243,-5.2851,-5.2772,-5.2903,-5.3295,-5.4341,-5.4968,-5.455,-5.5334,-5.4942,-5.225,-5.2798,-5.3164,-5.2537,-5.353,-5.4602,-5.5595,-5.5647,-5.5491,-5.5125,-5.5438,-5.5203,-5.4236,-5.4393,-5.4158,-5.34,-5.4131,-5.421,-5.3661,-5.3269,-5.2981,-5.2772,-5.1779,-5.1335,-5.1282,-5.0734,-5.0498,-5.0446,-5.0054,-4.9688,-4.9348,-4.9109,-4.8489,-4.7709,-4.7376,-4.7126,-4.7036,0.0,0.0,0.0,0.0,0.0,0.0,0.0,0.0,0.0,0.0,0.0,0.0,0.0,0.0,0.0,0.0,0.0,0.0,0.0,0.0,0.0,0.0,0.0,0.0,0.0,0.0,0.0,0.0,0.0,0.0,0.0,0.0,0.0,0.0,0.0,0.0,0.0,0.0,0.0,0.0,0.0,0.0,-4.5523,-4.2124,-3.9961,0.0,0.0,0.0,0.0,0.0,-3.7645,-3.7763,-3.7796,-3.7852,-3.8085,-3.9055,-4.0148,-4.1376,-4.2971,-4.5192,-4.7414,-4.8773,-5.0524,-5.2171,-5.3164,-5.3504,-5.3661,-5.387,-5.2668,-5.1518,-5.1335,-5.0969,-5.089,-5.1465,-5.2511,-5.34,-5.3844,-5.4158,-5.3687,-5.1936,-5.2171,-5.2223,-5.1648,-5.2798,-5.4001,-5.502,-5.5229,-5.5255,-5.5125,-5.5438,-5.5282,-5.455,-5.4524,-5.4158,-5.34,-5.3922,-5.3818,-5.3086,-5.2903,-5.2589,-5.2145,-5.157,-5.1309,-5.1282,-5.0707,-5.0368,-5.0159,-4.9766,-4.921,-4.857,-4.8392,-4.7802,-4.7053,-4.684,-4.6626,-4.6301,0.0,0.0,0.0,0.0,0.0,0.0,0.0,0.0,0.0,0.0,0.0,0.0,0.0,0.0,0.0,0.0,0.0,0.0,0.0,0.0,0.0,0.0,0.0,0.0,0.0,0.0,0.0,0.0,0.0,0.0,0.0,0.0,0.0,0.0,0.0,0.0,0.0,0.0,0.0,0.0,0.0,0.0,-4.4443,-4.155,0.0,0.0,0.0,0.0,0.0,0.0,-3.7887,-3.8049,-3.7717,-3.8158,-3.9024,-4.0252,-4.1428,-4.284,-4.514,-4.7022,-4.8721,-5.0368,-5.1648,-5.2642,-5.3191,-5.2877,-5.2616,-5.3086,-5.1361,-4.9897,-5.0394,-4.9636,-4.9139,-4.9714,-4.9949,-5.0864,-5.3086,-5.157,-5.1021,-5.3112,-5.1936,-5.1152,-5.1596,-5.2171,-5.3217,-5.4942,-5.455,-5.4497,-5.5125,-5.5177,-5.5203,-5.5203,-5.5151,-5.4628,-5.353,-5.4001,-5.3687,-5.2642,-5.3138,-5.2798,-5.1675,-5.11,-5.0838,-5.0812,-5.0237,-4.9662,-4.9165,-4.9165,-4.8622,-4.7729,-4.7729,-4.7316,-4.6806,-4.6806,-4.6566,-4.6301,0.0,0.0,0.0,0.0,0.0,0.0,0.0,0.0,0.0,0.0,0.0,0.0,0.0,0.0,0.0,0.0,0.0,0.0,0.0,0.0,0.0,0.0,0.0,0.0,0.0,0.0,0.0,0.0,0.0,0.0,0.0,0.0,0.0,0.0,0.0,0.0,0.0,0.0,0.0,0.0,0.0,0.0,-4.5363,0.0,0.0,0.0,0.0,0.0,0.0,0.0,0.0,-3.9172,-3.9064,-3.9499,-4.0383,-4.2396,-4.3833,-4.5166,-4.7022,-4.8799,-5.0237,-5.0681,-5.1648,-5.2406,-5.2119,-5.2276,-5.2067,-5.0498,-4.9008,-4.7649,-4.6499,-4.6761,-4.7466,-4.846,-5.0812,-5.272,-5.3321,-5.4341,-5.4471,-5.2903,-5.3086,-5.306,-5.2328,-5.2406,-5.3034,-5.4341,-5.4707,-5.5125,-5.5674,-5.6118,-5.6379,-5.6379,-5.5935,-5.5569,-5.5282,-5.4994,-5.4733,-5.4419,-5.3739,-5.3243,-5.2903,-5.1858,-5.1387,-5.1387,-5.123,-5.0864,-5.0368,-5.0368,-4.9559,-4.835,-4.8112,-4.7496,-4.6806,-4.6481,-4.6361,-4.6301,0.0,0.0,0.0,0.0,0.0,0.0,0.0,0.0,0.0,0.0,0.0,0.0,0.0,0.0,0.0,0.0,0.0,0.0,0.0,0.0,0.0,0.0,0.0,0.0,0.0,0.0,0.0,0.0,0.0,0.0,0.0,0.0,0.0,0.0,0.0,0.0,0.0,0.0,0.0,0.0,0.0,0.0,0.0,0.0,0.0,0.0,0.0,0.0,0.0,0.0,0.0,-4.0148,-4.1167,-4.1873,-4.2762,-4.5088,-4.6578,-4.778,-4.8982,-5.042,-5.1465,-5.1204,-5.1622,-5.1884,-5.1047,-5.0707,-5.0106,-4.8303,-4.6604,-4.5218,-4.4513,-4.4905,-4.5715,-4.6865,-4.9557,-5.1858,-5.2851,-5.4341,-5.4889,-5.3766,-5.421,-5.4236,-5.3321,-5.3243,-5.3713,-5.4863,-5.5046,-5.5334,-5.5883,-5.6484,-5.6798,-5.6798,-5.6484,-5.6066,-5.5569,-5.5255,-5.4863,-5.4341,-5.3949,-5.3478,-5.2981,-5.2302,-5.2145,-5.2439,-5.1846,-5.1566,-5.1562,-5.1141,-5.0266,-4.9186,-4.9133,-4.87,-4.8146,-4.7945,-4.7886,-4.7886,0.0,0.0,0.0,0.0,0.0,0.0,0.0,0.0,0.0,0.0,0.0,0.0,0.0,0.0,0.0,0.0,0.0,0.0,0.0,0.0,0.0,0.0,0.0,0.0,0.0,0.0,0.0,0.0,0.0,0.0,0.0,0.0,0.0,0.0,0.0,0.0,0.0,0.0,0.0,0.0,0.0,0.0,0.0,0.0,0.0,0.0,0.0,0.0,0.0,0.0,-4.1899,-4.1376,-4.3624,-4.4774,-4.5741,-4.7989,-4.9348,-5.0263,-5.0943,-5.1805,-5.238,-5.1936,-5.1648,-5.1204,-5.0054,-4.8904,-4.7675,-4.629,-4.4434,-4.3127,-4.3467,-4.365,-4.4225,-4.5611,-4.7675,-4.9976,-5.2485,-5.3295,-5.4053,-5.5203,-5.5255,-5.5046,-5.4602,-5.4471,-5.4863,-5.5935,-5.5674,-5.5647,-5.6118,-5.6641,-5.6954,-5.7033,-5.7033,-5.6536,-5.5465,-5.536,-5.4785,-5.3739,-5.4223,-5.3921,-5.3012,-5.3123,-5.3414,-5.38,-5.273,-5.2425,-5.2629,-5.1819,-5.0874,-5.0055,-5.0315,-5.021,-4.9901,-4.9901,-4.9901,-4.9901,0.0,0.0,0.0,0.0,0.0,0.0,0.0,0.0,0.0,0.0,-4.4327,-4.5198,0.0,0.0,0.0,0.0,0.0,0.0,0.0,0.0,0.0,0.0,0.0,0.0,0.0,0.0,0.0,0.0,0.0,0.0,0.0,0.0,0.0,0.0,0.0,0.0,0.0,0.0,0.0,0.0,0.0,0.0,0.0,0.0,0.0,0.0,0.0,0.0,0.0,0.0,-4.4591,-4.433,-4.6159,-4.7466,-4.8695,-5.0472,-5.1152,-5.1544,-5.2642,-5.272,-5.2589,-5.2981,-5.1988,-5.0629,-4.9479,-4.8329,-4.6734,-4.4147,-4.331,-4.2762,-4.1925,-4.2526,-4.4016,-4.663,-4.8198,-5.0394,-5.4131,-5.4733,-5.5229,-5.6379,-5.6066,-5.5935,-5.6327,-5.5909,-5.5909,-5.6588,-5.7007,-5.7268,-5.7346,-5.7451,-5.7739,-5.8209,-5.8209,-5.7895,-5.7285,-5.6745,-5.617,-5.5465,-5.5702,-5.5744,-5.5591,-5.6169,-5.6224,-5.5846,-5.5667,-5.4747,-5.3329,-5.2903,-5.1927,-5.0627,-5.0432,-5.021,-4.9901,-4.9901,-4.9901,-4.9847,0.0,0.0,0.0,0.0,0.0,0.0,0.0,-4.2644,-4.334,-4.3021,-4.3515,-4.4153,-4.4821,-4.5169,0.0,0.0,0.0,0.0,0.0,0.0,0.0,0.0,0.0,0.0,0.0,0.0,-4.2528,-4.2528,0.0,0.0,0.0,-4.3776,-4.4095,0.0,0.0,0.0,0.0,0.0,0.0,0.0,0.0,0.0,0.0,0.0,0.0,0.0,0.0,0.0,0.0,0.0,-4.5323,-4.6447,-4.8486,-4.9714,-5.0681,-5.2119,-5.2537,-5.2798,-5.3975,-5.4079,-5.3844,-5.3818,-5.2511,-5.0681,-4.8643,-4.7022,-4.519,-4.2657,-4.2369,-4.2317,-4.1481,-4.2935,-4.452,-4.5407,-4.8169,-5.0837,-5.2649,-5.4628,-5.6027,-5.6317,-5.6615,-5.6824,-5.6798,-5.6536,-5.6615,-5.7216,-5.7503,-5.773,-5.773,-5.7948,-5.8235,-5.8497,-5.8523,-5.8235,-5.773,-5.7789,-5.7543,-5.6931,-5.7487,-5.7515,-5.7245,-5.7248,-5.729,-5.7281,-5.59,-5.5109,-5.4628,-5.3696,-5.2798,-5.2015,-5.2035,-5.1894,-5.1757,-5.1757,-5.1757,-5.1672,0.0,0.0,0.0,0.0,0.0,0.0,0.0,-4.2208,-4.2411,-4.276,-4.3137,-4.3485,-4.3747,-4.4443,-4.4385,0.0,0.0,0.0,0.0,0.0,0.0,0.0,0.0,0.0,0.0,0.0,0.0,-4.2257,-4.2361,0.0,0.0,0.0,0.0,0.0,-4.4908,-4.5272,0.0,0.0,0.0,0.0,0.0,-4.3715,0.0,0.0,0.0,0.0,0.0,0.0,0.0,0.0,-4.6218,-4.7993,-5.0353,-5.1452,-5.1962,-5.2929,-5.3478,-5.404,-5.5366,-5.5523,-5.5218,-5.5077,-5.3316,-5.0917,-4.8303,-4.6264,-4.4304,-4.2134,-4.203,-4.2213,-4.1768,-4.3608,-4.5142,-4.4864,-4.8163,-5.1126,-5.2204,-5.4952,-5.685,-5.6912,-5.762,-5.792,-5.7216,-5.7059,-5.7242,-5.7791,-5.7843,-5.7791,-5.773,-5.8464,-5.8797,-5.834,-5.9052,-5.9103,-5.8306,-5.8968,-5.9008,-5.8516,-5.9242,-5.9187,-5.8625,-5.8383,-5.8405,-5.8487,-5.6422,-5.5706,-5.5887,-5.455,-5.3732,-5.3283,-5.3439,-5.35,-5.35,-5.35,-5.35,-5.3413,0.0,0.0,0.0,0.0,0.0,0.0,0.0,-4.2557,-4.2731,-4.2237,-4.366,-4.4298,-4.3195,-4.4153,-4.4385,0.0,0.0,0.0,0.0,0.0,0.0,0.0,0.0,0.0,0.0,0.0,0.0,-4.2648,-4.3266,0.0,0.0,0.0,0.0,0.0,0.0,-4.5132,-4.5908,0.0,0.0,0.0,0.0,0.0,0.0,0.0,0.0,0.0,0.0,0.0,0.0,0.0,0.0,-4.8958,-5.1377,-5.2296,-5.2433,-5.2537,0.0,0.0,-5.7285,-5.6877,-5.6142,-5.7432,-5.464,-5.1126,-4.9322,-4.7179,-4.5036,-4.3232,-4.2918,-4.2918,-4.2866,-4.3873,-4.537,-4.7379,-4.8531,-5.1035,-5.6563,-5.721,-5.7862,-5.9928,-5.986,-5.9287,-5.8455,-5.7895,-5.7817,-5.8392,-5.8444,-5.8209,-5.7756,-5.9456,-5.9579,-5.7835,-6.0756,-6.1746,-6.036,-6.0567,-6.067,-6.0614,-6.0836,-6.0549,-5.9972,-6.1113,-6.1002,-5.9891,-5.9385,-5.8208,-5.6551,-5.5928,-5.4953,-5.3768,-5.3582,-5.35,-5.35,-5.35,-5.35,-5.3326,0.0,0.0,0.0,0.0,0.0,0.0,-4.2063,-4.2615,-4.2905,-4.2673,-4.3631,-4.4153,-4.366,-4.4037,-4.3979,0.0,0.0,0.0,0.0,0.0,0.0,0.0,0.0,0.0,0.0,0.0,-4.2514,-4.2688,-4.3779,0.0,0.0,0.0,0.0,0.0,0.0,-4.5865,-4.6604,-4.6897,0.0,0.0,0.0,0.0,0.0,0.0,0.0,0.0,0.0,0.0,-4.6011,0.0,0.0,0.0,-4.8958,-5.016,0.0,0.0,-5.4903,-5.6339,-5.9072,-5.9642,-5.9654,-6.0245,-5.7106,-5.3549,-5.2185,-4.9064,-4.6041,-4.4291,-4.4218,-4.4378,-4.4055,-4.5107,-4.6251,-4.6911,0.0,0.0,-5.2713,-5.429,-5.6156,-5.8721,-5.9515,-6.0149,-6.0988,-6.0906,-6.0851,-6.1097,-6.1125,-6.0851,-6.0222,-6.043,-6.0264,-5.9498,-6.1236,-6.1883,-6.1353,-6.1423,-6.1461,-6.1523,-6.2053,-6.2173,-6.1907,-6.1625,-6.1224,-6.0625,-5.8738,-5.7363,-5.6379,-5.516,-5.4282,-5.3658,-5.3553,-5.35,-5.35,-5.35,-5.3268,-5.2833,0.0,0.0,0.0,0.0,0.0,-4.2092,-4.2092,-4.244,-4.2731,-4.2731,-4.3282,-4.3689,-4.3689,-4.3863,-4.3718,-4.305,0.0,0.0,0.0,0.0,0.0,0.0,0.0,0.0,0.0,0.0,-4.2942,-4.3186,-4.4519,-4.4934,0.0,0.0,-4.628,-4.6488,0.0,0.0,0.0,0.0,0.0,0.0,0.0,0.0,0.0,0.0,0.0,0.0,0.0,0.0,0.0,0.0,0.0,0.0,0.0,0.0,0.0,0.0,-5.5098,-5.7069,-5.9866,-6.138,-6.221,-6.2231,-5.8866,-5.5299,-5.3951,-5.0519,-4.7231,-4.5917,-4.5934,-4.6099,-4.566,-4.679,-4.7652,0.0,0.0,-5.0751,-5.1535,-5.3372,-5.5542,-5.8005,-5.9074,-6.0194,-6.1762,-6.2464,-6.2972,-6.3366,-6.3037,-6.2774,-6.2778,-6.219,-6.1595,-6.1026,-6.2332,-6.2844,-6.2458,-6.2695,-6.2608,-6.2288,-6.303,-6.2929,-6.2181,-6.1433,-6.0839,-6.0249,-5.7892,-5.6616,-5.6084,-5.4679,-5.3833,-5.35,-5.35,-5.35,-5.35,-5.35,-5.3123,-5.2484,0.0,0.0,0.0,0.0,0.0,0.0,-4.2092,-4.2092,-4.2121,-4.2121,-4.2644,-4.2992,-4.2992,-4.3602,-4.3718,-4.305,0.0,0.0,0.0,0.0,0.0,0.0,0.0,0.0,0.0,0.0,-4.4072,-4.4276,-4.5622,-4.6279,-4.6279,-4.698,-4.7638,-4.8267,0.0,0.0,0.0,0.0,0.0,0.0,0.0,0.0,0.0,0.0,0.0,0.0,0.0,0.0,0.0,0.0,0.0,0.0,0.0,0.0,0.0,0.0,-5.3696,-5.7531,-5.9562,-6.1422,-6.2792,-6.2943,-5.9537,-5.5718,0.0,0.0,-4.8724,-4.8078,-4.7965,-4.7965,-4.7965,-4.8844,-4.9562,-4.9562,0.0,0.0,-5.5688,-5.6166,-5.6888,-5.8784,-5.8987,-5.9264,-5.976,-6.1613,-6.3366,-6.4752,-6.3562,-6.3431,-6.4816,-6.488,-6.3923,-6.1976,-6.4513,-6.5312,-6.3859,-6.457,-6.4307,-6.3079,-6.3707,-6.263,-6.0146,-6.0805,-6.022,-5.8664,-5.7739,-5.6765,-5.582,-5.4856,-5.411,-5.35,-5.35,-5.35,-5.35,-5.35,-5.3123,-5.2484,0.0,0.0,0.0,0.0,0.0,0.0,0.0,-4.244,-4.2702,-4.2702,-4.3282,-4.392,-4.4529,-4.4354,-4.4368,-4.4731,0.0,0.0,0.0,0.0,0.0,0.0,0.0,0.0,0.0,0.0,-4.4311,-4.4975,-4.68,-4.7668,-4.7698,-4.8805,-4.9388,-4.9613,-4.9164,-4.9314,0.0,0.0,0.0,0.0,0.0,0.0,-4.8955,0.0,0.0,0.0,0.0,0.0,0.0,0.0,0.0,0.0,0.0,0.0,0.0,0.0,0.0,0.0,-5.8301,-5.9816,-6.0852,-6.0457,-5.79,-5.5395,-5.4779,-5.249,-5.0213,-4.9297,-4.9092,-4.9092,-4.9092,-4.9366,-5.0145,-5.1787,-5.2353,0.0,0.0,-5.5957,-5.7534,-5.9503,-6.2557,-6.451,-6.467,-6.5316,-6.5856,-6.6322,-6.5919,-6.5886,-6.6322,-6.5907,-6.4905,-6.3354,-6.4595,-6.4845,-6.401,-6.4189,-6.3677,-6.2421,-6.3049,-6.245,-6.0775,-6.0369,-5.9606,-5.8634,-5.7021,-5.5899,-5.5148,-5.4187,-5.3704,-5.35,-5.35,-5.3239,-5.292,-5.3355,-5.2572,-5.1294,0.0,0.0,0.0,0.0,0.0,0.0,0.0,-4.2615,-4.2905,-4.2673,-4.3021,-4.3687,-4.4791,-4.4323,-4.4291,-4.5151,0.0,0.0,0.0,0.0,0.0,0.0,0.0,0.0,0.0,-4.4262,-4.503,-4.5304,-4.7788,-4.8895,-4.8686,-4.9733,-5.0315,-5.0524,-4.9912,-5.0002,0.0,0.0,0.0,0.0,0.0,0.0,-4.9613,0.0,0.0,0.0,0.0,0.0,0.0,0.0,0.0,0.0,0.0,0.0,0.0,0.0,-5.2875,-5.5029,0.0,-5.853,-5.9937,-5.9279,-5.7304,0.0,-5.5239,-5.3144,-5.1011,-5.0316,-5.022,-5.022,-5.022,-5.022,-5.0677,-5.221,-5.2665,0.0,-5.4072,-5.5867,-5.7932,-6.0206,-6.3647,-6.5862,-6.5862,-6.655,-6.6999,-6.6999,-6.6999,-6.6879,-6.664,-6.6221,-6.538,-6.3994,-6.4665,-6.4695,-6.4006,-6.4246,-6.3498,-6.1732,-6.266,-6.2064,-6.019,-5.9577,-5.8821,-5.7892,-5.6217,-5.5211,0.0,-5.3844,-5.35,-5.35,-5.35,-5.3123,-5.2681,-5.3007,-5.2107,-5.0714,0.0,0.0,0.0,0.0,0.0,0.0,0.0,0.0,-4.2876,-4.2337,-4.2221,-4.2769,-4.4278,-4.3809,-4.3717,-4.4545,0.0,0.0,0.0,0.0,0.0,0.0,0.0,0.0,0.0,-4.5263,-4.6022,-4.5424,-4.8581,-4.9883,-4.9389,-4.9942,-5.0495,-5.105,-5.0435,-5.0495,0.0,0.0,0.0,0.0,-4.9553,-4.9673,0.0,0.0,0.0,0.0,0.0,0.0,0.0,0.0,0.0,0.0,0.0,0.0,0.0,0.0,0.0,0.0,0.0,-5.7184,-5.9368,-5.871,-5.7184,-5.5658,-5.5059,-5.2995,0.0,-5.1229,-5.1229,-5.1229,-5.1289,-5.1259,-5.1259,-5.1409,-5.1977,-5.2875,-5.4162,-5.6137,-5.8381,-6.0894,-6.2989,-6.4156,-6.4006,-6.5802,-6.6999,-6.6999,-6.6999,-6.67,-6.6041,-6.5951,-6.5353,-6.4036,-6.4605,-6.4605,-6.3857,-6.4545,-6.3588,-6.1044,-6.2331,-6.1383,-5.8605,-5.855,-5.7837,-5.661,-5.5411,-5.4696,-5.44,-5.3762,-5.35,-5.35,-5.3471,-5.3065,-5.2565,-5.2565,-5.1701,-5.0647,0.0,0.0,0.0,0.0,0.0,0.0,0.0,0.0,0.0,0.0,-4.3361,-4.3663,-4.5424,-4.4536,-4.4175,0.0,0.0,0.0,0.0,0.0,0.0,0.0,0.0,0.0,0.0,-4.5263,-4.6501,-4.683,-4.8626,-4.9673,-5.0002,-5.0106,-5.0062,-4.9733,-5.0092,-5.0032,0.0,0.0,0.0,0.0,-4.9883,-4.9793,0.0,0.0,0.0,0.0,-5.093,-5.1109,0.0,0.0,0.0,0.0,0.0,0.0,0.0,0.0,-5.1319,-5.1558,-5.2037,0.0,-5.3892,-5.3234,-5.2725,-5.2336,0.0,0.0,-5.1229,-5.1229,-5.1229,-5.1379,-5.1887,-5.1558,-5.1708,-5.3264,-5.4072,-5.476,-5.5598,-5.871,-6.1164,-6.1792,-6.4485,-6.5682,-6.4156,-6.5802,-6.6999,-6.6999,-6.6999,-6.67,-6.6041,-6.5533,-6.4874,-6.4036,-6.4156,-6.3707,-6.257,-6.3199,-6.245,-6.0326,-6.0909,-6.0027,-5.7892,-5.7488,-5.6544,-5.5294,-5.4818,-5.4279,-5.3733,-5.3588,-5.35,-5.3471,-5.2978,-5.2397,-5.1846,-5.1846,-5.1033,-5.0037,0.0,0.0,0.0,0.0,0.0,0.0,0.0,0.0,0.0,0.0,0.0,0.0,0.0,0.0,0.0,0.0,0.0,0.0,0.0,0.0,0.0,0.0,0.0,0.0,-4.3738,-4.5753,-4.68,-4.686,-4.8775,-4.9733,-4.9793,-4.9494,-4.9464,-4.9733,-4.9763,-4.9613,-4.9389,-5.0331,-5.0361,-4.9733,-5.0046,0.0,0.0,0.0,0.0,0.0,-5.1079,-5.1229,0.0,-5.1229,-5.1229,-5.1229,0.0,0.0,0.0,0.0,-5.1229,-5.1229,-5.1229,-5.1917,-5.2576,-5.2217,-5.2127,-5.2127,-5.2127,0.0,0.0,0.0,0.0,-5.1319,-5.1678,-5.1708,-5.2127,-5.3503,-5.4551,-5.5748,-5.7304,-5.9638,-6.1613,-6.2839,-6.4545,-6.5562,-6.5383,-6.634,-6.6879,-6.655,-6.655,-6.6101,-6.5144,-6.4755,-6.4246,-6.3588,-6.3288,-6.281,-6.2121,-6.275,-6.2005,-5.9921,-6.0112,-5.9177,-5.7276,-5.6686,-5.5796,-5.4672,-5.4221,-5.3849,-5.35,-5.35,-5.3355,-5.3036,-5.2717,-5.1991,-5.1178,-5.1178,-5.0639,-4.9922,0.0,0.0,0.0,0.0,0.0,0.0,0.0,0.0,0.0,0.0,0.0,0.0,0.0,0.0,0.0,0.0,0.0,0.0,0.0,0.0,0.0,0.0,0.0,-4.3648,-4.4167,-4.6322,-4.707,-4.6279,-4.891,-4.9912,-4.9299,-4.8805,-4.9134,-5.0016,-4.9523,-4.9239,-4.9209,-4.9912,-5.0196,-5.0196,-5.0315,0.0,0.0,0.0,0.0,0.0,0.0,0.0,0.0,-5.1229,-5.1229,-5.1229,-5.1229,0.0,0.0,0.0,0.0,0.0,-5.1468,-5.2486,-5.3384,-5.2995,-5.2965,-5.2995,-5.2905,0.0,0.0,0.0,0.0,0.0,-5.1468,-5.1977,-5.2606,-5.3354,-5.47,-5.6585,-5.9338,-6.0206,-6.1373,-6.3588,-6.4126,-6.4904,-6.64,-6.6819,-6.6729,-6.6071,-6.6011,-6.5413,-6.4066,-6.4006,-6.3677,-6.2959,-6.2391,-6.2002,-6.1736,-6.2304,-6.1562,-5.9551,-5.9351,-5.8339,-5.6669,-5.5971,-5.5221,-5.4342,-5.3762,-5.35,-5.35,-5.3413,-5.3065,-5.2594,-5.242,-5.1664,-5.0705,-5.0618,-5.0359,-5.0086,0.0,0.0,0.0,0.0,0.0,0.0,0.0,0.0,0.0,0.0,0.0,0.0,0.0,0.0,0.0,0.0,0.0,0.0,0.0,0.0,0.0,0.0,-4.3828,-4.3958,-4.3439,-4.6531,-4.7549,-4.6279,-4.891,-4.9912,-4.9329,-4.9733,-4.9763,-4.9449,-4.9359,-4.9,-4.8506,-4.9687,-5.0196,-5.0255,-5.084,0.0,0.0,0.0,0.0,0.0,0.0,0.0,0.0,-5.1229,-5.1229,-5.1229,-5.1229,0.0,0.0,0.0,0.0,0.0,-5.2576,-5.3862,-5.4341,-5.2067,-5.1947,-5.2187,-5.1648,0.0,0.0,0.0,0.0,0.0,0.0,-5.2965,-5.3443,-5.467,-5.6466,-5.88,-6.2002,-6.254,-6.278,-6.3169,-6.4695,-6.5383,-6.4545,-6.5981,-6.6729,-6.6071,-6.6011,-6.5413,-6.4066,-6.4006,-6.3468,-6.2271,-6.2151,-6.144,-6.0083,-6.0172,-5.9729,-5.8813,-5.7757,-5.6837,-5.5996,-5.5114,-5.4338,-5.3675,-5.3559,-5.35,-5.3471,-5.2949,-5.271,-5.2507,-5.1381,-5.088,-5.0598,-5.0046,-4.998,-5.0271,0.0,0.0,0.0,0.0,0.0,0.0,0.0,0.0,0.0,0.0,0.0,0.0,0.0,0.0,0.0,0.0,0.0,0.0,0.0,0.0,0.0,0.0,-4.4496,-4.4706,-4.4407,-4.6591,-4.7638,-4.7369,-4.9673,-5.0421,-4.9793,-4.9733,-4.9553,-4.9299,-4.894,-4.882,-4.8865,-4.9823,-5.0196,-5.0255,0.0,0.0,0.0,0.0,0.0,0.0,0.0,0.0,0.0,0.0,-5.1229,-5.1229,-5.1229,0.0,0.0,0.0,0.0,0.0,-5.1947,-5.2845,-5.3354,-5.2486,-5.3324,-5.3982,-5.2606,0.0,0.0,0.0,0.0,0.0,0.0,-5.482,-5.6077,-5.853,-6.0266,-6.1463,-6.1942,-6.2331,-6.269,-6.3049,-6.4186,-6.5114,-6.5562,-6.6131,-6.6191,-6.5533,-6.5144,-6.4515,-6.3558,-6.3498,-6.3228,-6.266,-6.1741,-6.0916,-6.0179,-5.9188,-5.8342,-5.7669,-5.7071,-5.6209,-5.5138,-5.4686,-5.4139,-5.35,-5.35,-5.3326,-5.2978,-5.2688,-5.2216,-5.1548,-5.0938,-5.0502,-5.0153,-5.0155,-5.0279,-5.0596,0.0,0.0,0.0,0.0,0.0,0.0,0.0,0.0,0.0,0.0,0.0,0.0,0.0,0.0,0.0,0.0,0.0,0.0,0.0,0.0,-4.4018,-4.4526,-4.5185,-4.5544,-4.5544,-4.701,-4.7938,-4.8297,-5.0391,-5.1199,-5.0644,-4.9853,-4.9494,-4.9464,-4.8805,-4.8865,-4.9523,-5.0032,-5.0285,-5.0465,0.0,0.0,0.0,0.0,0.0,0.0,0.0,0.0,0.0,0.0,0.0,0.0,0.0,0.0,0.0,-5.1229,-5.1229,-5.1289,-5.1588,-5.2157,-5.2755,-5.3084,0.0,0.0,-5.4281,-5.3862,-5.3922,-5.491,-5.4581,0.0,0.0,-5.6825,-5.874,-6.1642,-6.3169,-6.3588,-6.2421,-6.2421,-6.2839,-6.3677,-6.3887,-6.4665,-6.637,-6.6071,-6.5503,-6.4844,-6.4306,-6.3647,-6.2899,-6.2839,-6.269,-6.2333,-6.1035,-6.0271,-5.9954,-5.8502,-5.7459,-5.6815,-5.6559,-5.5867,-5.472,-5.44,-5.4081,-5.3733,-5.3413,-5.3007,-5.2594,-5.2304,-5.1606,-5.0656,-5.056,-5.0182,-4.9892,-5.0552,-5.078,-5.087,0.0,0.0,0.0,0.0,0.0,0.0,0.0,0.0,0.0,0.0,0.0,0.0,0.0,0.0,0.0,0.0,0.0,0.0,0.0,0.0,-4.5185,-4.5214,-4.5873,-4.6219,-4.6219,-4.8147,-4.888,-4.8297,-5.087,-5.2097,-5.2037,-5.075,-5.0136,-5.0106,-4.9494,-4.9553,-5.0136,-5.0166,-5.0554,-5.1139,-5.1199,0.0,0.0,0.0,0.0,0.0,0.0,0.0,0.0,0.0,0.0,0.0,0.0,0.0,-5.1229,-5.1229,-5.1229,-5.1498,-5.2695,-5.3533,-5.3922,-5.3324,-5.2845,0.0,-5.6166,-5.5897,-5.5568,-5.7453,-5.7304,-5.6855,-5.6944,-5.856,-6.0356,-6.1852,-6.3169,-6.4395,-6.5503,-6.4635,-6.4336,-6.5652,-6.4725,-6.4306,-6.5084,-6.5114,-6.4814,-6.4126,-6.4036,-6.3468,-6.2241,-6.2181,-6.15,-5.9967,-5.9819,-5.9214,-5.8039,-5.7895,-5.7459,-5.676,-5.5929,-5.5416,-5.53,-5.411,-5.3907,-5.4371,-5.3152,-5.2652,-5.2536,-5.1294,-5.0793,-5.0647,-4.9988,-4.9873,-5.0193,-5.1294,-5.1309,-5.0929,0.0,0.0,0.0,0.0,0.0,0.0,0.0,0.0,0.0,0.0,0.0,0.0,0.0,0.0,0.0,0.0,0.0,0.0,0.0,0.0,-4.4855,-4.5274,-4.6352,-4.713,-4.7549,-4.8267,-4.9134,-5.0092,-5.1528,-5.2187,-5.2157,-5.0451,-4.9643,-4.9613,-4.9419,-4.9643,-5.0226,-5.0614,-5.099,-5.1229,-5.1229,-5.1229,0.0,0.0,0.0,0.0,0.0,0.0,0.0,0.0,-5.1229,0.0,0.0,-5.1229,-5.1229,-5.1229,-5.1229,-5.1319,-5.1828,-5.2755,-5.3503,-5.3234,-5.3324,0.0,0.0,-5.6765,-5.7573,-5.9578,-6.0116,-6.0206,-6.0206,-6.0541,-6.1348,-6.2993,-6.4725,-6.5592,-6.4874,-6.5054,-6.5114,-6.4814,-6.4695,-6.4755,-6.4994,-6.4635,-6.4276,-6.4006,-6.3647,-6.3049,-6.2151,-6.1921,-6.1303,-6.0298,-5.9546,-5.8884,-5.8424,-5.7438,-5.6598,-5.5929,-5.5994,-5.5387,-5.4226,-5.4168,-5.382,-5.3268,-5.2775,-5.2187,-5.1403,-5.0938,-5.0423,-5.0066,-4.998,-5.0417,-5.1187,-5.1647,-5.2018,-5.236,0.0,0.0,0.0,0.0,0.0,0.0,0.0,0.0,0.0,0.0,0.0,0.0,0.0,0.0,0.0,0.0,0.0,0.0,0.0,-4.4377,-4.4915,-4.5603,-4.6501,-4.7489,-4.8566,-4.864,-4.9553,-5.1528,-5.1977,-5.2187,-5.2157,-5.0228,-4.9539,-4.9853,-4.9509,-4.9733,-5.0524,-5.102,-5.1229,-5.1229,-5.1229,-5.1229,0.0,0.0,0.0,0.0,0.0,0.0,0.0,0.0,0.0,0.0,0.0,0.0,0.0,0.0,-5.1229,-5.1229,-5.1229,-5.1887,-5.2606,-5.2815,0.0,0.0,-5.6615,-5.8112,-5.9817,-6.2421,-6.2521,-6.2023,-6.1816,-6.0969,-6.0901,-6.2795,-6.4573,-6.5408,-6.4456,-6.4934,-6.5024,-6.4096,-6.4246,-6.4425,-6.4425,-6.3977,-6.3707,-6.3707,-6.3139,-6.2423,-6.1709,-6.1213,-6.0627,-5.975,-5.8708,-5.8105,-5.8049,-5.6747,-5.5765,-5.5126,-5.5591,-5.501,-5.353,-5.3994,-5.3704,-5.2833,-5.2274,-5.1585,-5.0946,-5.054,-5.0319,-5.0184,-5.0524,-5.108,-5.1892,-5.2356,-5.258,-5.2665,0.0,0.0,0.0,0.0,0.0,0.0,0.0,0.0,0.0,0.0,0.0,0.0,0.0,0.0,0.0,0.0,0.0,0.0,0.0,-4.4556,-4.5603,-4.6249,-4.6279,-4.7249,-4.9269,-4.9299,-5.0242,-5.2217,-5.2187,-5.2187,-5.2127,-5.0182,-4.9942,-5.1139,-4.9853,-5.0002,-5.1199,-5.1229,-5.1229,-5.1229,-5.1229,-5.1229,-5.1229,0.0,0.0,0.0,0.0,0.0,0.0,0.0,-5.1229,0.0,0.0,0.0,0.0,0.0,-5.1229,-5.1229,-5.1229,-5.1229,-5.1379,-5.2037,0.0,0.0,-5.8201,-6.0146,-6.2241,-6.6191,-6.4477,-6.1982,-6.1222,-5.9505,-5.8852,-6.0781,-6.2122,-6.3456,-6.4755,-6.4425,-6.4006,-6.3977,-6.3438,-6.3079,-6.3079,-6.3079,-6.3079,-6.3079,-6.248,-6.1679,-6.0654,-6.0001,-5.9125,-5.7836,-5.7137,-5.665,-5.6374,-5.5736,-5.5097,-5.4487,-5.4487,-5.4139,-5.35,-5.35,-5.35,-5.3384,-5.1497,-5.1033,-5.1497,-5.022,-5.0242,-5.115,-5.1639,-5.1832,-5.1981,-5.3614,-5.2935,-5.1528,0.0,0.0,0.0,0.0,0.0,0.0,0.0,0.0,0.0,0.0,0.0,0.0,0.0,0.0,0.0,0.0,0.0,0.0,0.0,-4.4825,-4.5603,-4.6249,-4.7219,0.0,0.0,0.0,-5.093,-5.2875,-5.2426,-5.1738,-5.0734,-4.9763,-4.9224,-4.9164,-4.9703,-5.0106,-5.0524,-5.102,-5.1229,-5.1229,-5.1229,-5.1229,-5.1229,0.0,0.0,0.0,0.0,0.0,0.0,0.0,0.0,0.0,0.0,0.0,0.0,0.0,-5.1558,-5.1798,-5.1349,-5.1887,-5.2636,-5.2845,-5.4431,-5.6615,0.0,-6.0475,0.0,0.0,-6.5126,-6.2829,-6.2503,-6.0508,-5.8884,-5.8965,-6.0818,-6.2305,-6.2288,-6.3298,-6.3827,-6.3408,-6.3199,-6.3079,-6.3079,-6.3079,-6.2869,-6.2421,-6.2211,-6.15,-6.0057,-5.9151,-5.8225,-5.7137,-5.6246,-5.5558,-5.5068,-5.44,-5.3762,-5.3152,-5.3152,-5.3036,-5.2862,-5.2862,-5.2368,-5.1497,-5.0917,-5.0511,-5.027,-5.0038,-5.0252,-5.0718,-5.0976,-5.1482,-5.2151,-5.2617,-5.2725,-5.2755,0.0,0.0,0.0,0.0,0.0,0.0,0.0,0.0,0.0,0.0,0.0,0.0,0.0,0.0,0.0,0.0,0.0,0.0,0.0,0.0,0.0,0.0,0.0,0.0,0.0,-5.0361,-5.1468,-5.2396,-5.2007,-5.1259,-5.0196,-5.0092,-4.9823,-4.9494,-5.0541,-5.0823,-5.0614,-5.1319,-5.1439,-5.1229,-5.1498,-5.1439,-5.1259,0.0,0.0,0.0,0.0,0.0,0.0,0.0,0.0,0.0,0.0,0.0,0.0,-5.1319,-5.1498,-5.1708,-5.1319,-5.2187,-5.3324,-5.3832,-5.5957,-5.856,-6.1074,-6.2989,-6.5173,-6.8465,-6.6163,-6.3377,-6.3026,-6.0026,-5.7596,-5.7716,-5.9431,-6.0937,-6.1075,-6.2588,-6.3498,-6.3109,-6.3079,-6.3079,-6.3079,-6.2839,-6.254,-6.2121,-6.15,-6.0555,-5.9236,-5.846,-5.7684,-5.668,-5.5587,-5.4894,-5.4517,-5.3355,-5.2572,-5.2194,-5.1933,-5.1868,-5.1868,-5.2078,-5.1643,-5.0734,-5.0734,-5.0406,-4.9892,-5.0427,-5.0983,-5.1461,-5.197,-5.2491,-5.2995,-5.2995,-5.3084,-5.3234,0.0,0.0,0.0,0.0,0.0,0.0,0.0,0.0,0.0,0.0,0.0,0.0,0.0,0.0,0.0,0.0,0.0,0.0,0.0,0.0,0.0,0.0,0.0,0.0,0.0,0.0,0.0,0.0,-5.1109,-5.0734,-5.0106,-5.081,-5.1169,-5.1259,-5.1917,-5.1858,-5.1349,-5.1887,-5.1768,-5.1289,-5.1947,-5.1798,-5.1289,-5.1947,0.0,0.0,0.0,0.0,0.0,0.0,0.0,0.0,0.0,0.0,-5.1289,-5.1229,-5.1259,-5.1319,-5.1379,-5.2276,-5.3533,-5.5059,-5.7483,-6.0296,-6.3468,-6.655,-6.9064,-7.029,-6.7232,-6.4018,-6.3235,-5.909,-5.6027,-5.6963,-5.834,-5.9683,-6.0776,-6.2204,-6.3079,-6.3079,-6.3079,-6.3049,-6.2989,-6.245,-6.1975,-6.1855,-6.0496,-5.9266,-5.8283,-5.7918,-5.726,-5.6258,-5.5068,-5.4342,-5.4168,-5.2426,-5.1468,-5.1352,-5.083,-5.0589,-5.0511,-5.1149,-5.112,-5.0598,-5.0618,-5.0446,-5.0193,-5.1071,-5.1905,-5.2694,-5.3674,-5.4042,-5.4042,-5.4042,-5.3653,-5.3174,0.0,0.0,0.0,0.0,0.0,0.0,0.0,0.0,0.0,0.0,0.0,0.0,0.0,0.0,0.0,0.0,0.0,0.0,0.0,0.0,0.0,0.0,0.0,0.0,0.0,0.0,0.0,-4.9703,-5.0182,-5.0122,-4.9494,-5.0152,-5.0674,-5.1259,-5.1917,-5.2127,-5.1977,-5.1588,-5.1349,-5.1289,-5.1947,-5.1798,-5.1289,-5.1947,-5.1887,0.0,0.0,0.0,0.0,0.0,0.0,0.0,-5.1229,-5.1558,-5.1887,-5.1379,-5.1588,-5.2097,0.0,-5.2965,0.0,-5.6765,-5.9877,-6.281,-6.5054,-6.6131,-6.6879,-6.7657,-6.7043,-6.5823,-6.4115,-6.201,-5.9752,-5.7468,-5.9093,-6.0384,-5.9622,-6.1584,-6.3079,-6.3079,-6.3079,-6.2869,-6.2361,-6.1923,-6.1303,-6.0261,-5.9625,-5.8903,-5.7921,-5.7368,-5.6359,-5.4952,-5.4139,-5.3007,-5.1527,-5.1091,-5.0365,-4.9349,-4.9727,-4.964,-4.9175,-4.9814,-5.0017,-4.995,-5.0145,-5.0155,-5.0135,-5.0685,-5.1072,-5.1298,-5.227,-5.2636,-5.2636,-5.2636,-5.2875,-5.3174,0.0,0.0,0.0,0.0,0.0,0.0,0.0,0.0,0.0,0.0,0.0,0.0,0.0,0.0,0.0,0.0,0.0,0.0,0.0,0.0,0.0,0.0,0.0,0.0,0.0,-5.1349,-5.0541,-4.9299,-4.9613,-4.9613,-4.9329,-5.0571,-5.1199,-5.1259,-5.2247,-5.2157,-5.1289,-5.1558,-5.1498,-5.1289,-5.1947,-5.2007,-5.1738,-5.2067,-5.1977,-5.1648,-5.1319,0.0,0.0,0.0,0.0,0.0,0.0,0.0,-5.1648,-5.1319,-5.1678,-5.2276,0.0,0.0,0.0,-5.9578,0.0,-6.3887,-6.5233,-6.5533,-6.5652,-6.5981,-6.5763,-6.5146,-6.3761,-6.215,-6.0331,-5.836,-5.9773,-6.0721,-5.9712,-6.1615,-6.2839,-6.2211,-6.2421,-6.2361,-6.1702,-6.1032,-6.0387,-5.9759,-5.8958,-5.8036,-5.6958,-5.6443,-5.5492,-5.4081,-5.3413,-5.2281,-5.0734,-5.0365,-4.9553,-4.8275,-4.8914,-4.9204,-4.9175,-4.9524,-4.9766,-4.9892,-5.0038,-5.0231,-5.0471,-5.1083,-5.1345,-5.1578,-5.2737,-5.2965,-5.2665,-5.2665,-5.2875,-5.3144,0.0,0.0,0.0,0.0,0.0,0.0,0.0,0.0,0.0,0.0,0.0,0.0,0.0,0.0,0.0,0.0,0.0,0.0,0.0,0.0,0.0,0.0,0.0,0.0,0.0,-5.2157,-5.1169,-4.9434,-4.9359,-4.9419,-4.9689,-5.1169,-5.1678,-5.1439,-5.2516,-5.2097,-5.0584,-5.1618,-5.1708,-5.1289,-5.1947,-5.2127,-5.2037,-5.2157,-5.2127,-5.1947,-5.1409,-5.1558,-5.1947,-5.1409,0.0,0.0,0.0,0.0,-5.1229,-5.1229,-5.1588,-5.2067,0.0,0.0,-5.8291,-6.1852,-6.3288,0.0,-6.4695,-6.4755,-6.4725,-6.4844,-6.4329,-6.3739,-6.3246,-6.1685,-6.0217,-5.9521,-6.0566,-6.1142,-6.0411,-6.1819,-6.251,-6.1403,-6.1672,-6.1672,-6.0958,-5.9993,-5.944,-5.9385,-5.8147,-5.6936,-5.5883,-5.5438,-5.4633,-5.3239,-5.2688,-5.1788,-5.0511,-4.9872,-4.8972,-4.7782,-4.8304,-4.8885,-4.9524,-4.9688,-4.9892,-5.0086,-5.0135,-5.0394,-5.0852,-5.1464,-5.1906,-5.2306,-5.3563,-5.3683,-5.3174,-5.3174,-5.3264,-5.3264,0.0,0.0,0.0,0.0,0.0,0.0,0.0,0.0,0.0,0.0,-4.7309,0.0,0.0,0.0,0.0,0.0,0.0,0.0,-4.867,0.0,0.0,-5.1294,-5.189,-5.2456,0.0,-5.1947,-5.093,-5.0076,-4.9553,-4.9853,-5.096,-5.0614,-5.105,-5.2067,-5.2247,-5.2187,-5.1917,-5.1498,-5.1289,-5.1289,-5.1947,-5.1858,-5.1409,-5.1977,-5.1858,-5.1349,-5.1259,-5.1289,-5.1349,-5.1259,-5.1229,0.0,0.0,0.0,-5.1229,-5.1229,-5.1289,-5.1588,0.0,0.0,-5.9249,0.0,-6.2301,-6.3378,0.0,0.0,-6.3498,-6.4036,-6.4068,-6.398,-6.3891,-6.3178,-6.2293,-6.1046,-6.1969,-6.2438,-6.1169,-6.1731,-6.2151,-6.2002,-6.1553,-6.0872,-5.9964,-5.9033,-5.8372,-5.8094,-5.6621,-5.5645,-5.5471,-5.4923,-5.3791,-5.1933,-5.1788,-5.112,-4.9863,-4.9175,-4.8508,-4.7782,-4.7869,-4.8246,-4.8856,-4.9678,-5.0086,-5.0086,-5.0357,-5.0567,-5.0822,-5.1178,-5.1631,-5.2276,-5.3025,-5.3264,-5.3174,-5.3174,-5.3563,-5.3982,0.0,0.0,0.0,0.0,0.0,0.0,0.0,0.0,0.0,0.0,0.0,-4.7512,0.0,0.0,0.0,-4.624,-4.7246,-4.8478,-4.9876,-5.1665,-5.2734,-5.2903,-5.2181,-5.2139,-5.2854,-5.1419,-5.0361,-4.9703,-4.9045,-4.9763,-5.1768,-5.1079,-5.1708,-5.3294,-5.2546,-5.2007,-5.1618,-5.1349,-5.1229,-5.1259,-5.1528,-5.1468,-5.1259,-5.1528,-5.1229,-5.0674,-5.1079,-5.1229,-5.1229,-5.1229,-5.1229,-5.1229,-5.1229,0.0,0.0,0.0,-5.1468,-5.2306,-5.47,-5.6944,-5.9069,0.0,-6.2391,-6.3139,-6.3438,-6.2989,-6.26,-6.2869,-6.2929,-6.3049,-6.3408,-6.3258,-6.2905,-6.2321,-6.2404,-6.2219,-6.1228,-6.1362,-6.1253,-6.0505,-6.0505,-6.0006,-5.8689,-5.809,-5.7437,-5.6811,-5.59,-5.5271,-5.4923,-5.3965,-5.2862,-5.1643,-5.1265,-5.0278,-4.8624,-4.8682,-4.8217,-4.7259,-4.7608,-4.813,-4.874,-4.9698,-5.0183,-5.0357,-5.0567,-5.0775,-5.1011,-5.1152,-5.1379,-5.1708,-5.2366,-5.2636,-5.2665,-5.3054,-5.3384,-5.3653,0.0,0.0,0.0,0.0,0.0,0.0,0.0,0.0,0.0,0.0,0.0,0.0,0.0,0.0,0.0,0.0,-4.8467,-4.9763,-5.1204,-5.3366,-5.4414,-5.4104,-5.2604,-5.1946,-5.2329,-5.0804,-4.9673,-4.906,-4.8536,-4.9793,-5.2695,-5.2037,-5.3144,-5.5628,-5.3593,-5.2336,-5.1708,-5.1528,-5.1558,-5.1678,-5.1169,-5.0913,-5.096,-5.078,-5.0421,-5.0062,-5.0674,-5.0913,-5.0943,-5.1169,-5.1229,-5.1229,-5.1229,-5.1229,0.0,0.0,0.0,-5.2546,0.0,0.0,-5.8231,-6.0715,-6.2211,-6.3019,0.0,0.0,-6.2241,-6.1912,-6.1852,-6.2002,-6.248,-6.272,-6.2839,-6.2839,-6.2271,-6.1672,-6.1194,-6.0954,-6.0475,-5.9458,-5.9488,-5.908,-5.7719,-5.7119,-5.6501,-5.5825,-5.5089,-5.4487,-5.4052,-5.263,-5.1614,-5.1149,-5.0365,-4.932,-4.8043,-4.8159,-4.7695,-4.6592,-4.7404,-4.809,-4.8603,-4.9706,-5.0268,-5.036,-5.0668,-5.0875,-5.0943,-5.1139,-5.1319,-5.1498,-5.2007,-5.2187,-5.2276,-5.2935,-5.3174,-5.3294,0.0,0.0,0.0,0.0,0.0,0.0,0.0,0.0,0.0,0.0,0.0,0.0,-4.9297,-4.8956,-4.8707,-4.886,-4.9634,-5.0778,-5.2233,-5.415,-5.4988,-5.4333,-5.3169,0.0,-5.1652,-5.0154,-4.903,-4.8327,-4.8297,-5.0272,-5.4102,-5.3414,-5.5478,-5.9608,-5.5807,-5.3713,-5.3025,-5.2426,-5.2516,-5.2905,-5.1003,-5.0255,-5.0166,-4.9613,-4.9389,-4.9449,-5.0016,-5.0255,-5.0345,-5.102,-5.1229,-5.1229,-5.1229,-5.1229,-5.1229,0.0,0.0,0.0,0.0,-5.479,0.0,-5.877,-6.1194,0.0,0.0,0.0,-6.266,-6.1433,-6.1164,-6.1164,-6.1224,-6.1732,-6.2151,-6.2151,-6.1583,-6.1164,-6.1104,-6.0565,-6.0116,-6.0057,-5.8979,-5.7988,-5.7419,-5.6161,-5.5395,-5.5413,-5.3733,-5.2739,-5.2688,-5.0888,-4.9843,-4.9785,-4.8595,-4.8188,-4.8682,-4.7474,-4.6592,-4.5953,-4.7201,-4.7951,-4.8272,-4.9769,-5.0289,-4.9961,-5.0555,-5.0607,-5.0285,-5.096,-5.1588,-5.2157,-5.2187,-5.2187,-5.2276,-5.2935,-5.3174,-5.3294,0.0,0.0,0.0,0.0,0.0,0.0,0.0,0.0,0.0,0.0,0.0,0.0,0.0,-5.0351,-5.0596,-4.9836,-5.1305,-5.2419,-5.2851,-5.3552,-5.3995,-5.4102,-5.2679,-5.1792,-5.159,-5.0093,-4.9209,-4.897,-4.8057,-4.9464,-5.2905,-5.2665,-5.3892,-5.6256,-5.485,-5.4551,-5.494,-5.2576,-5.1947,-5.2426,-5.0823,-5.0002,-4.9583,-4.9389,-4.906,-4.8716,-4.9374,-4.9883,-5.0226,-5.0465,-5.0823,-5.1229,-5.1229,-5.1229,-5.1229,-5.1229,-5.0883,-5.0823,0.0,0.0,0.0,-5.6735,-5.9219,-6.1104,-6.0864,-6.1343,-6.1553,-6.0655,-6.0446,-6.0446,-6.0446,-6.1014,-6.1463,-6.1463,-6.0894,-6.0446,-6.0446,-5.9518,-5.883,-5.883,-5.8022,-5.7093,-5.6126,-5.5601,-5.4984,-5.425,-5.3559,-5.3007,-5.2652,-5.1527,-5.054,-4.9698,-4.8827,-4.8304,-4.813,-4.7259,-4.6911,-4.7114,-4.8144,-4.8442,-4.8185,-4.9899,-4.9927,-4.8684,-5.0385,-5.0747,-5.0255,-5.0913,-5.1349,-5.1558,-5.1558,-5.1828,-5.2276,-5.2935,-5.3473,-5.3952,0.0,0.0,0.0,0.0,0.0,0.0,0.0,0.0,0.0,-4.9389,0.0,0.0,0.0,0.0,-5.1787,-5.1012,-5.213,-5.2991,-5.32,-5.3375,-5.3611,-5.3988,-5.2629,-5.1669,-5.1295,-5.0139,-4.9284,-4.864,-4.8177,-4.9314,-5.1887,-5.2097,-5.3144,-5.482,-5.3922,-5.4281,-5.5359,-5.2905,-5.2276,-5.2695,-5.072,-4.9912,-4.9883,-4.9673,-4.9314,-4.9045,-4.9942,-5.0242,-5.0226,-5.0435,-5.0571,-5.0601,-5.081,-5.075,-5.0571,-5.0571,-5.0272,-5.0092,-5.099,0.0,0.0,0.0,0.0,-5.868,-5.9548,-5.9937,-5.9997,-5.9518,-5.9608,-5.9757,-5.9757,-6.0146,-6.0505,-6.0745,-6.0206,-5.9668,-5.9458,-5.868,-5.8052,-5.7812,-5.7184,-5.6408,-5.5417,-5.4923,-5.4309,-5.3582,-5.292,-5.2455,-5.2252,-5.1236,-5.0046,-4.8769,-4.8304,-4.7898,-4.7462,-4.6824,-4.687,-4.7602,-4.8179,-4.8307,-4.8064,-4.9525,-4.9383,-4.8134,-5.003,-5.0511,-4.9972,-5.087,-5.1229,-5.1229,-5.1229,-5.1498,-5.1977,-5.2845,-5.3473,-5.3982,0.0,0.0,0.0,0.0,0.0,0.0,0.0,0.0,-5.0048,-4.9464,0.0,0.0,0.0,0.0,0.0,-5.2362,-5.2119,-5.225,-5.3075,-5.3637,-5.3902,-5.3934,-5.302,-5.1946,-5.0636,0.0,0.0,0.0,0.0,0.0,0.0,-5.1798,-5.3503,-5.5948,-5.3324,-5.2875,-5.4042,-5.3354,-5.3503,-5.3892,-5.0601,-5.0032,-5.1109,-5.0405,-5.0136,-5.0315,-5.1618,-5.1289,-5.0285,-5.0913,-5.0361,-4.9509,-5.0062,-4.9823,-4.9329,-4.9329,-4.9299,-4.9269,0.0,0.0,0.0,-5.4371,0.0,0.0,-5.8351,0.0,-5.8022,-5.8082,-5.859,-5.9039,-5.9099,-5.9099,-5.9308,-5.9937,-5.9518,-5.889,-5.8231,-5.8141,-5.7872,-5.7184,-5.6555,-5.5931,-5.5329,-5.4127,-5.337,-5.3466,-5.1759,-5.0946,-5.1556,-4.9785,-4.8159,-4.6865,-4.6807,-4.6807,-4.6778,-4.6243,-4.6379,-4.7248,-4.7248,-4.7492,-4.7911,-4.8595,-4.87,-4.8356,-4.9628,-4.9883,-4.9449,-5.069,-5.1229,-5.1229,-5.1229,-5.1229,-5.1379,-5.2695,-5.3174,-5.3384,0.0,0.0,0.0,0.0,0.0,-5.2119,-5.1958,-5.2044,-5.2106,0.0,0.0,0.0,-5.1155,-5.1055,-5.1518,-5.262,-5.2625,-5.2387,-5.1974,-5.2132,-5.2127,-5.1972,-5.1757,-5.1437,-5.1045,0.0,0.0,0.0,0.0,0.0,0.0,0.0,0.0,-5.1858,-5.1618,-5.1439,-5.1242,-5.0631,-5.1605,-5.3204,-5.0437,-4.9763,-5.0345,-4.9254,-4.8835,-4.8865,-4.9254,-4.9733,-5.0226,-5.0405,-5.09,-5.1349,-5.105,-5.0511,-4.9883,-4.9449,-4.897,-4.8566,-4.8566,0.0,0.0,0.0,0.0,0.0,-5.4551,0.0,-5.5688,-5.7094,-5.7184,-5.7423,-5.883,-5.9099,-5.9159,-5.9338,-5.9219,-5.9039,-5.886,-5.8411,-5.7872,-5.7184,-5.637,-5.5315,-5.406,-5.3443,-5.2815,-5.2165,-5.1643,-5.1236,-5.0946,-4.9524,-4.8362,-4.755,-4.7521,-4.7288,-4.6778,-4.7224,-4.7595,-4.7863,-4.8214,-4.8251,-4.7911,-4.8775,-4.885,-4.8356,-4.9628,-5.0106,-5.0032,-5.087,-5.1229,-5.1229,-5.1229,-5.1229,-5.1379,-5.2695,-5.3174,-5.3384,0.0,0.0,0.0,0.0,0.0,-5.3015,-5.2785,-5.3028,-5.2959,0.0,0.0,0.0,-5.1304,-5.109,-5.1413,-5.2324,-5.2001,-5.1554,-5.1102,-5.0995,-5.0789,-5.0437,-5.0661,-5.069,-5.0421,-4.9912,0.0,0.0,0.0,0.0,0.0,0.0,0.0,-4.9434,-4.9823,-4.9942,-4.9763,-4.8835,-4.9972,-5.2187,-5.0138,-5.0002,-5.0913,-5.0212,-5.0092,-5.0391,-5.096,-5.1468,-5.175,-5.1212,-5.1199,-5.1169,-4.9972,-4.9703,-4.9643,-4.8716,-4.8386,-4.8237,-4.7967,-4.7878,-4.8177,-4.9374,0.0,0.0,-5.2366,-5.2665,-5.3114,0.0,-5.5418,-5.5777,-5.7214,-5.7693,-5.7872,-5.7872,-5.8082,-5.8261,-5.8261,-5.7932,-5.7334,-5.6406,-5.5564,-5.4624,-5.3499,-5.2767,-5.2163,-5.1614,-5.112,-5.0656,-5.0328,-4.903,-4.8159,-4.7782,-4.7259,-4.6986,-4.6991,-4.7186,-4.7545,-4.8038,-4.8073,-4.7926,-4.7702,-4.8222,-4.8386,-4.8356,-4.9374,-5.0002,-5.0255,-5.0913,-5.1229,-5.1229,-5.1229,-5.1229,-5.1349,-5.2396,-5.2785,-5.2905,0.0,0.0,-5.3152,-5.3018,-5.3551,-5.3799,-5.3197,-5.3675,-5.3498,0.0,-5.1698,-5.184,-5.2177,-5.1834,-5.1678,-5.1925,-5.0997,-5.0442,-5.0468,-5.0291,-4.9942,-4.9329,-4.9883,-4.9942,-4.9329,-4.9853,0.0,0.0,0.0,0.0,0.0,0.0,-4.8237,-4.8177,0.0,0.0,-4.903,-4.7878,-4.8745,-5.078,-4.9613,-5.0391,-5.2187,-5.2037,-5.2426,-5.3234,-5.4521,-5.4581,-5.3922,-5.2725,-5.1498,-5.0106,-4.8327,-4.8446,-4.906,-4.7788,-4.7788,-4.8057,-4.7459,-4.7429,-4.7908,-4.9478,-4.8835,0.0,-5.1139,-5.09,-5.0661,0.0,-5.3384,-5.4042,-5.491,-5.5568,-5.6008,-5.6008,-5.6526,-5.7004,-5.7094,-5.7094,-5.6615,-5.5329,-5.462,-5.3973,-5.3284,-5.2122,-5.1434,-5.1403,-5.0386,-4.9717,-4.9717,-4.8537,-4.784,-4.7782,-4.6724,-4.6437,-4.7057,-4.662,-4.6844,-4.7793,-4.7199,-4.7062,-4.7309,-4.7309,-4.7668,-4.8327,-4.903,-4.9643,-5.0255,-5.0913,-5.1229,-5.1229,-5.1229,-5.1229,-5.1289,-5.1947,-5.2187,-5.2306,0.0,-5.3042,-5.353,-5.5325,-5.5782,-5.5964,-5.6328,-5.6531,-5.626,-5.5072,-5.3895,-5.3636,-5.4761,-5.3188,-5.2279,-5.2859,-5.2227,-5.1366,-5.0321,-5.0198,-4.9942,-4.9329,-4.9883,-4.9942,-4.9329,-4.9449,-4.9075,0.0,0.0,0.0,0.0,0.0,0.0,-4.7519,0.0,-4.8057,-4.7698,-4.7967,-4.8386,-4.8835,-4.8596,-4.9972,-5.2097,-5.102,-5.1349,-5.2486,-5.3294,-5.3503,-5.3354,-5.3084,-5.2456,-5.1648,-5.075,-4.9912,-4.9149,-4.8327,-4.7818,-4.7459,-4.7339,-4.8087,-4.8716,-4.8057,-4.9164,0.0,-4.9254,-4.9254,-4.9853,0.0,-5.1289,-5.1661,-5.3982,-5.4491,-5.4581,-5.4581,-5.5568,-5.6526,-5.7034,-5.7094,-5.6615,-5.5329,-5.4887,-5.4021,-5.2269,-5.1493,-5.0876,-5.0447,-4.996,-4.9717,-4.9717,-4.8943,-4.8304,-4.7811,-4.7707,-4.7291,-4.64,-4.7184,-4.7407,-4.7109,-4.7165,-4.7266,-4.7309,-4.7309,-4.7668,-4.8327,-4.903,-4.9643,-5.0255,-5.0913,-5.1229,-5.1229,-5.1229,-5.1229,-5.1289,-5.1947,-5.2187,-5.2306,-5.4358,-5.443,-5.4801,-5.6007,-5.6894,-5.7335,-5.6947,-5.7674,-5.7634,-5.5779,-5.4291,-5.355,-5.3884,-5.2863,-5.2067,-5.1738,-5.1409,-5.0661,-4.9344,-4.9254,-4.8985,-4.8327,-4.8925,-4.9254,-4.9299,-4.9,-4.882,-4.882,0.0,0.0,0.0,0.0,0.0,-4.683,-4.7489,-4.7429,-4.686,-4.7519,-4.7997,-4.8297,-4.8297,-4.9464,-5.1199,-5.0794,-5.1528,-5.2815,-5.3832,-5.3982,-5.3653,-5.3294,-5.3414,-5.3354,-5.1302,-5.1409,-5.1768,-4.9509,-4.8775,-4.8536,-4.7578,-4.7788,-4.8297,-4.8297,-4.8775,0.0,0.0,-4.8506,-4.8566,-4.9553,-4.9494,-4.9763,-5.1439,-5.2007,-5.2456,-5.3114,-5.3773,-5.4521,-5.5508,-5.6226,-5.6166,-5.485,-5.4301,-5.3436,-5.1951,-5.1149,-5.0583,-5.0116,-5.0086,-5.0086,-5.0086,-4.915,-4.8477,-4.8155,-4.7603,-4.7094,-4.6535,-4.7126,-4.7302,-4.7106,-4.7266,-4.7309,-4.7309,-4.7638,-4.8147,-4.8805,-4.9464,-5.0122,-5.0704,-5.1079,-5.102,-5.0704,-5.1079,-5.102,-5.0734,-5.1109,-5.1229,-5.1259,-5.5069,-5.5345,-5.5771,-5.601,-5.7334,-5.7929,-5.6724,-5.7791,-5.782,-5.531,-5.4162,-5.3324,-5.2665,-5.2366,-5.1917,-5.1212,-5.0315,-4.9613,-4.9075,-4.8446,-4.7848,-4.7339,-4.7938,-4.8476,-4.894,-4.8506,-4.8476,-4.894,0.0,0.0,0.0,0.0,0.0,-4.6488,-4.7189,-4.713,-4.6561,-4.7219,-4.7728,-4.8117,-4.8237,-4.9134,-5.0465,-5.1169,-5.2247,-5.3533,-5.476,-5.494,-5.4491,-5.3803,-5.4221,-5.4521,-5.181,-5.2665,-5.3982,-5.078,-5.0122,-5.0046,-4.8476,-4.8237,-4.8566,-4.9179,-4.8835,-4.8506,0.0,0.0,0.0,-4.8027,-4.8087,-4.8297,-4.9,-4.9494,-5.0255,-5.1618,-5.1917,-5.2426,0.0,-5.473,-5.5059,-5.4132,-5.3414,-5.2688,-5.1958,-5.1006,-5.0305,-5.0183,-5.0287,-5.0353,-5.0501,-4.9233,-4.8525,-4.8525,-4.7302,-4.6712,-4.6931,-4.6975,-4.7062,-4.7309,-4.7309,-4.7309,-4.7309,-4.7848,-4.8446,-4.9149,-4.9763,-5.0361,-5.084,-5.099,-5.0631,-5.0076,-5.0853,-5.0764,-5.0196,-5.0345,-5.0315,-5.0196,-5.4511,-5.4476,-5.5011,-5.6062,0.0,0.0,-5.6662,-5.6844,-5.6401,-5.455,-5.47,-5.47,-5.4072,-5.2905,-5.2845,-5.4491,-5.087,-4.9434,-5.1618,-4.9015,-4.7369,-4.7309,-4.7938,-4.8057,-4.7549,-4.8027,-4.8027,-4.7519,0.0,0.0,0.0,0.0,0.0,-4.7219,-4.7878,-4.7818,-4.7249,-4.7908,-4.7878,-4.7459,-4.8057,-4.9434,-5.1169,-5.1828,-5.2935,-5.4192,-5.491,-5.5508,-5.5837,-5.5179,-5.467,-5.4251,-5.3892,-5.3204,-5.2456,-5.2007,-5.1498,-5.105,-5.084,-5.1618,-5.1977,-4.9868,-5.0947,-5.1648,-4.8297,0.0,-4.8745,-4.7638,0.0,-4.7608,-4.8267,0.0,0.0,-5.0196,-5.096,-5.1588,-5.2336,-5.2546,-5.2815,-5.3234,-5.2725,-5.2276,-5.2169,-5.0798,-5.0117,-5.0394,-4.994,-4.9852,-5.0471,-4.9233,-4.8525,-4.8525,-4.7436,-4.6887,-4.6931,-4.7149,-4.7266,-4.7309,-4.7309,-4.7309,-4.7309,-4.7369,-4.7788,-4.8446,-4.9105,-4.9479,-4.9569,-5.0122,-4.9972,-4.9494,-5.075,-5.0764,-5.0255,-5.09,-5.0704,-5.0196,-5.547,-5.5581,-5.5417,-5.5005,0.0,0.0,0.0,-5.6213,-5.6577,-5.5469,-5.5269,-5.5239,-5.5329,-5.4162,-5.3713,-5.4551,-5.2127,-5.069,-5.105,-4.9075,-4.8027,-4.8416,-4.7967,-4.7938,-4.8446,-4.7967,-4.7758,-4.7878,-4.7489,0.0,0.0,0.0,0.0,-4.677,-4.7818,-4.7908,-4.7369,-4.8416,-4.873,-4.8506,-4.9164,-4.9867,-5.0674,-5.1379,-5.2935,-5.482,-5.5089,-5.5359,-5.5508,-5.485,-5.5179,-5.5688,-5.4551,-5.4581,-5.473,-5.3204,-5.2576,-5.2187,-5.1439,-5.1887,-5.2247,-5.078,-5.093,-5.093,-4.8895,-4.8267,-4.7967,-4.7429,0.0,0.0,0.0,0.0,0.0,0.0,-4.9583,-4.9883,-5.093,0.0,-5.09,-5.1917,-5.1468,-5.0807,-5.0355,-4.9819,-4.9564,-4.9584,-4.9766,-5.0037,-5.0334,-4.9443,-4.8937,-4.8937,-4.7747,-4.7106,-4.7106,-4.7266,-4.7309,-4.7309,-4.7309,-4.7309,-4.7309,-4.7698,-4.8237,-4.894,-4.9553,-5.0032,-5.0391,-5.0226,-4.9853,-4.9359,-4.9883,-4.9912,-4.9703,-4.9972,-4.9912,-4.9673,-5.5435,-5.5385,-5.4771,-5.3793,-5.5014,0.0,0.0,-5.47,-5.5448,-5.5359,-5.5089,-5.5239,-5.6077,-5.5149,-5.485,-5.5748,-5.3952,-5.2426,-5.1601,-5.0032,-4.8985,-4.8745,-4.7997,-4.7938,-4.8716,-4.7788,-4.7549,-4.8027,-4.7549,0.0,0.0,0.0,0.0,-4.6621,-4.7578,-4.7758,-4.7369,-4.8506,-4.894,-4.8805,-4.9643,-5.0255,-5.0794,-5.1498,-5.3174,-5.5179,-5.5179,-5.5179,-5.5149,-5.485,-5.5568,-5.6346,-5.5149,-5.5598,-5.6166,-5.4072,-5.3593,-5.3473,-5.2336,-5.2516,-5.2725,-5.1528,-5.0823,-5.0136,-4.9015,-4.8267,-4.7788,-4.7608,-4.7848,0.0,0.0,0.0,-4.8207,-4.9344,0.0,-4.8955,-5.0046,-4.9523,-4.9494,-5.0734,-5.0644,-5.0239,0.0,-4.9552,-4.9463,-4.928,-4.9686,-4.9972,-4.9972,-4.9344,-4.906,-4.906,-4.7908,-4.7309,-4.7309,-4.7309,-4.7309,-4.7309,-4.7309,-4.7309,-4.7309,-4.7788,-4.8386,-4.909,-4.9673,-5.0242,-5.0631,-5.0152,-4.9583,-4.906,-4.906,-4.906,-4.909,-4.9404,-4.9523,-4.9523,-5.3331,-5.2629,-5.2178,-5.2493,-5.3191,-5.3361,-5.239,-5.1768,-5.1858,-5.3114,-5.3832,-5.473,-5.6068,-5.5568,-5.6436,-5.9608,-5.6376,-5.4401,-5.4999,-5.2576,-5.0002,-4.7489,-4.7938,-4.7967,-4.7369,-4.7339,-4.7309,-4.7339,-4.7309,-4.7309,0.0,0.0,0.0,0.0,-4.7309,-4.7339,-4.7369,-4.8027,-4.7967,-4.7489,-4.882,-5.0451,-5.2217,-5.2875,-5.3982,-5.5179,-5.5179,-5.5179,-5.5299,-5.5897,-5.5718,-5.5359,-5.5927,-5.5718,-5.5119,-5.4371,-5.464,-5.497,-5.4311,-5.4581,-5.4461,-5.1858,-5.1199,-5.0511,-4.7938,-4.8327,-4.906,-4.8386,-4.9254,-4.9942,-4.9314,-4.9239,-4.9434,-5.0046,-4.9673,0.0,0.0,-4.9134,-4.8805,-5.0076,-5.0764,-5.1169,-5.1122,-5.0524,-5.0166,-5.0166,-4.9643,-4.9329,-4.9329,-4.8686,-4.8327,-4.8327,-4.7668,-4.7309,-4.7309,-4.7309,-4.7309,-4.7309,-4.7309,-4.7309,-4.7309,-4.7339,-4.7698,-4.8356,-4.906,-4.9359,-4.9359,-4.9359,-4.897,-4.8327,-4.8327,-4.8327,-4.8476,-4.9733,-5.0166,-5.0166,-5.3927,-5.2711,-5.1568,-5.1251,-5.1987,-5.2687,-5.2833,-5.3054,-5.3982,-5.6166,-5.6645,-5.7812,-6.0446,-6.0146,-6.0386,-6.1942,-5.9638,-5.7812,-5.7184,-5.4221,-5.2127,-5.1229,-4.9733,-4.888,-4.864,-4.8177,-4.7728,-4.7309,-4.7309,-4.7309,0.0,0.0,0.0,0.0,-4.7758,-4.7967,-4.7997,-4.87,-4.9045,-4.9269,-5.0212,-5.1768,-5.3443,-5.2785,-5.3653,-5.5059,-5.4192,-5.4431,-5.5149,-5.494,-5.5029,-5.5239,-5.5448,-5.5359,-5.5149,-5.491,-5.5329,-5.5777,-5.5568,-5.5957,-5.5927,-5.3743,-5.2516,-5.1289,-4.9105,-4.9284,-4.9613,-4.8506,-4.9673,-5.0541,-4.9509,-4.9299,-4.9239,-4.8985,-4.8745,-4.8536,0.0,-4.7908,-4.7967,-4.8835,-4.9134,-4.9105,-4.8656,-4.8416,-4.8297,-4.8297,-4.7698,-4.7698,-4.8566,-4.7997,-4.7848,-4.8267,-4.7638,-4.7309,-4.7309,-4.7309,-4.7309,-4.7309,-4.7309,-4.7309,-4.7309,-4.7309,-4.7668,-4.8297,-4.8506,-4.891,-4.9269,-4.8805,-4.8476,-4.8237,-4.7818,-4.7908,-4.8327,-4.8775,-4.9224,-4.9643,-5.5069,-5.364,-5.2157,-5.1374,-5.1561,-5.2067,-5.2725,-5.3803,-5.5418,-5.7812,-5.874,-6.0266,-6.3109,-6.3019,-6.3049,-6.3707,-6.2361,-6.0416,-5.7932,-5.6196,-5.4341,-5.2217,-5.075,-4.9733,-4.9329,-4.8386,-4.7728,-4.7309,-4.7309,-4.7309,0.0,0.0,0.0,0.0,-4.7758,-4.7938,-4.7967,-4.8386,-4.8805,-4.9284,-5.0152,-5.1708,-5.3384,-5.2276,-5.3234,-5.4999,-5.3653,-5.3743,-5.4461,-5.4281,-5.4491,-5.488,-5.5119,-5.5179,-5.5149,-5.491,-5.5299,-5.5777,-5.5538,-5.5927,-5.5987,-5.4281,-5.3174,-5.1977,-4.9808,-5.0122,-5.0571,-4.9254,-5.0361,-5.1319,-5.0451,-4.9942,-4.9404,-4.8745,-4.8446,-4.8057,0.0,-4.7309,-4.7459,-4.7878,-4.8147,-4.8297,-4.8356,-4.8147,-4.7908,-4.7668,-4.704,-4.695,-4.7549,-4.7189,-4.7249,-4.7908,-4.7519,-4.7309,-4.7309,-4.7309,-4.7309,-4.7309,-4.7309,-4.7309,-4.7309,-4.7309,-4.7549,-4.7967,-4.8177,-4.8536,-4.894,-4.8446,-4.8297,-4.8207,-4.7549,-4.7549,-4.7967,-4.8207,-4.8865,-4.9643,-5.6498,-5.5112,-5.3714,-5.2877,-5.1849,-5.1439,-5.2187,-5.3952,-5.5957,-5.8052,-6.0057,-6.2032,-6.3977,-6.4186,-6.4455,-6.5084,-6.4485,-6.2151,-5.7693,-5.8471,-5.6555,-5.0794,-5.1079,-5.075,-4.9479,-4.8147,-4.7459,-4.7399,-4.7369,-4.7369,-4.7369,0.0,0.0,0.0,-4.7309,-4.7309,-4.7309,-4.7309,-4.7339,-4.7459,-4.8745,-5.0421,-5.2067,-5.1379,-5.2755,-5.488,-5.3563,-5.3114,-5.3264,-5.3892,-5.4162,-5.4311,-5.494,-5.5149,-5.5059,-5.4431,-5.473,-5.5089,-5.4491,-5.476,-5.494,-5.3653,-5.3264,-5.2516,-5.0078,-5.093,-5.1917,-5.0524,-5.1319,-5.2217,-5.2127,-5.105,-4.9972,-4.9359,-4.87,-4.8027,-4.7399,-4.7309,-4.7309,-4.7309,-4.7848,-4.8716,-4.9927,-4.9523,-4.897,-4.8297,-4.7578,-4.692,-4.6411,-4.6279,-4.6591,-4.7279,-4.7309,-4.7309,-4.7309,-4.7309,-4.7309,-4.7309,-4.7309,-4.7309,-4.7309,-4.7309,-4.7309,-4.7339,-4.7967,-4.8237,-4.8237,-4.8237,-4.8237,-4.8177,-4.7549,-4.7309,-4.7369,-4.8027,-4.9075,-5.0016,-5.7562,-5.6347,-5.5184,-5.4344,-5.2138,-5.1182,-5.3354,-5.4551,-5.6615,-6.0565,-6.281,-6.4784,-6.6729,-6.6939,-6.6819,-6.652,-6.5443,-6.3857,-6.1672,-6.0027,-5.7962,-5.5448,-5.4132,-5.2815,-5.1468,-5.0631,-4.9733,-4.882,-4.8267,-4.8027,-4.8027,0.0,0.0,0.0,0.0,-4.7309,-4.7309,-4.7309,-4.7578,-4.8117,-4.897,-5.0152,-5.1349,-5.0212,-5.1109,-5.2845,-5.2037,-5.2336,-5.3144,-5.2815,-5.3384,-5.4251,-5.4401,-5.479,-5.5149,-5.4999,-5.5418,-5.5948,-5.5718,-5.5777,-5.5888,-5.5529,-5.4331,-5.2995,-5.2336,-5.2965,-5.3174,-5.1349,-5.2007,-5.2486,-5.102,-5.0062,-4.9314,-4.8656,-4.7997,-4.7489,-4.7339,-4.7309,-4.7309,-4.7309,-4.7459,-4.7698,-4.8027,-4.7908,-4.7728,-4.7578,-4.6022,-4.5663,-4.698,-4.6112,-4.6082,-4.7279,-4.7309,-4.7309,-4.7309,-4.7309,-4.7309,-4.7309,-4.7309,-4.7309,-4.7309,-4.7309,-4.7309,-4.7309,-4.7489,-4.7549,-4.7549,-4.7549,-4.7549,-4.7549,-4.7369,-4.7309,-4.7369,-4.8027,-4.8506,-4.8895,-5.8899,-5.8418,-5.7566,-5.5813,-5.4643,-5.4268,-5.5289,-5.6047,-5.7812,-6.1613,-6.4066,-6.5772,-6.661,-6.7717,-6.8046,-6.7059,-6.5503,-6.3917,-6.2331,-6.0805,-5.9009,-5.6795,-5.5658,-5.4311,-5.2665,-5.1139,-5.0002,-4.9299,-4.8327,-4.7997,-4.8267,0.0,0.0,0.0,0.0,-4.7309,-4.7309,-4.7309,-4.7698,-4.8327,-4.8686,-4.9464,0.0,-4.9599,-4.9988,-5.087,-5.0511,-5.1199,-5.2306,-5.2217,-5.2695,-5.3443,-5.4012,-5.4461,-5.476,-5.476,-5.5239,-5.5688,-5.5388,-5.5538,-5.5748,-5.5748,-5.488,-5.3832,-5.2965,-5.3503,-5.3653,-5.1618,-5.1798,-5.1977,-5.0823,-4.9673,-4.8626,-4.7967,-4.7549,-4.7309,-4.7309,-4.7309,-4.7309,-4.7309,-4.7309,-4.7429,-4.7698,-4.7489,-4.7309,-4.7309,-4.5992,-4.5693,-4.68,-4.6172,-4.6232,-4.7279,-4.7578,-4.7608,-4.7309,-4.7578,-4.7578,-4.7309,-4.7309,-4.7309,-4.7309,-4.7309,-4.7309,-4.7309,-4.7309,-4.7309,-4.7309,-4.7309,-4.7309,-4.7309,-4.7309,-4.7309,-4.7369,-4.7728,-4.8207,-4.8805,-6.0158,-6.0509,-6.009,-5.7355,-5.8084,-5.8807,-5.803,-5.8434,-5.9817,-6.2391,-6.4964,-6.6281,-6.5622,-6.7537,-6.8315,-6.6969,-6.5203,-6.3348,-6.1493,-6.1283,-5.9877,-5.6825,-5.6526,-5.564,-5.3838,-5.1083,-4.9704,-4.9749,-4.8205,-4.7728,0.0,0.0,0.0,0.0,0.0,0.0,0.0,-4.7279,-4.7578,-4.8027,-4.8117,-4.8506,-4.906,-4.906,-4.912,-4.9179,-4.9269,-5.0062,-5.1169,-5.1738,-5.2067,-5.2396,-5.3593,-5.4012,-5.4072,-5.4072,-5.4551,-5.491,-5.4251,-5.461,-5.5179,-5.5089,-5.5059,-5.461,-5.2845,-5.3294,-5.3533,-5.1618,-5.1139,-5.105,-5.087,-4.9374,-4.7938,-4.7279,-4.7249,-4.7309,-4.7309,-4.7309,-4.7309,-4.7309,-4.7309,0.0,-4.8087,-4.7638,-4.7339,-4.7429,-4.6741,-4.6279,-4.6279,0.0,-4.6591,-4.716,-4.7818,-4.7938,-4.7429,-4.7908,-4.7908,-4.7429,-4.7339,-4.7309,-4.7309,-4.7309,-4.7309,-4.7309,-4.7309,-4.7309,-4.7309,-4.7309,-4.7309,-4.7309,-4.7309,-4.7309,-4.7309,-4.7399,-4.8147,-4.9209,-6.0158,-6.0891,-6.0902,-5.8599,-5.9328,-6.0761,-6.2181,-6.2716,-6.3737,-6.5862,-6.7956,-6.9034,-6.8375,-6.8226,-6.7627,-6.6281,-6.5353,-6.4246,-6.2839,-6.2241,-6.1164,-5.9458,-5.8351,-5.748,-5.6868,-5.3429,-5.183,-5.2088,-4.943,-4.8177,0.0,0.0,0.0,0.0,0.0,0.0,-4.6488,-4.707,0.0,-4.6711,-4.7249,-4.7549,-4.7638,-4.7638,-4.7967,-4.8536,-4.912,-4.9763,-5.0375,-5.0495,-5.1319,-5.2247,-5.2486,-5.2935,-5.3354,-5.3354,-5.3832,-5.4221,-5.3563,-5.4251,-5.5059,-5.4521,-5.4371,-5.4281,-5.3952,-5.3593,-5.2965,-5.1498,-5.0734,-5.0016,-4.8985,-4.8087,-4.7249,-4.6548,-4.695,-4.7309,-4.7309,-4.7309,-4.7309,-4.7309,-4.7309,-4.7369,-4.7459,-4.7369,-4.7519,-4.8087,-4.701,-4.6279,-4.6279,0.0,-4.6339,0.0,-4.713,-4.7668,0.0,0.0,-4.7698,-4.8117,-4.7549,-4.7309,-4.7309,-4.7309,-4.7309,-4.7309,-4.7309,-4.7309,-4.7309,-4.7309,-4.7309,-4.7309,-4.7309,-4.7309,-4.7369,-4.7908,-4.8267,-4.8536,-6.2808,-6.2991,-6.2697,-6.1242,-6.2072,-6.3339,-6.46,-6.556,-6.6041,-6.5981,-6.7119,-6.7537,-6.652,-6.7358,-6.7448,-6.6131,-6.5084,-6.4096,-6.3139,-6.245,-6.1493,-6.0146,-5.9159,-5.8053,-5.69,-5.3447,-5.1763,-5.1911,-4.9163,-4.7967,-4.8267,-4.7608,0.0,0.0,0.0,-4.68,0.0,0.0,-4.68,-4.686,-4.7189,-4.7309,-4.7309,-4.7309,-4.7489,-4.7818,-4.8147,-4.8656,-4.9374,-5.0391,-5.093,-5.1289,-5.1977,-5.2426,-5.2665,-5.2665,-5.3144,-5.3533,-5.2845,-5.3653,-5.4521,-5.3832,-5.3952,-5.4042,-5.3324,-5.2905,-5.2306,-5.0943,-5.0182,-4.9344,-4.8027,-4.7519,-4.7189,-4.689,-4.71,-4.7309,-4.7309,-4.7309,-4.7309,-4.7309,-4.7309,-4.7429,-4.7788,-4.7489,-4.7429,-4.7758,-4.7189,-4.6681,-4.6352,0.0,-4.6681,0.0,0.0,0.0,-4.7788,0.0,-4.7788,-4.7788,-4.7459,-4.7309,-4.7309,-4.7309,-4.7309,-4.7309,-4.7309,-4.7309,-4.7309,-4.7309,-4.7309,-4.7309,-4.7309,-4.7309,-4.7339,-4.7668,-4.7997,-4.8416,-6.5326,-6.5147,-6.4676,-6.3751,-6.4716,-6.5754,-6.6038,-6.7452,-6.7837,-6.6281,-6.6281,-6.6011,-6.4964,-6.646,-6.7089,-6.5892,-6.4695,-6.3737,-6.3109,-6.26,-6.1702,-6.0356,-5.9735,-5.8708,-5.7092,-5.3758,-5.191,-5.1607,-4.9068,-4.7826,-4.7848,-4.7489,0.0,0.0,0.0,0.0,0.0,-4.6621,-4.6741,-4.71,-4.7249,-4.7309,-4.7309,-4.7309,-4.7309,-4.7309,-4.7459,-4.7758,-4.8356,-5.0182,-5.0451,-5.0242,-5.1409,-5.1768,-5.1798,-5.1947,-5.2456,-5.2815,-5.2187,-5.2965,-5.3832,-5.3144,-5.3384,-5.3503,-5.2426,-5.1977,-5.1439,-5.0272,-4.9404,-4.8506,-4.7309,-4.7219,-4.7249,-4.713,-4.7219,-4.7309,-4.7309,-4.7309,-4.7309,-4.7309,-4.7309,-4.7459,-4.7848,-4.7519,-4.7249,-4.71,-4.71,-4.68,-4.6142,-4.6741,-4.68,0.0,0.0,-4.7908,-4.7519,0.0,-4.7878,-4.7519,-4.7369,-4.7309,-4.7309,-4.7309,-4.7309,-4.7309,-4.7309,-4.7309,-4.7309,-4.7309,-4.7309,-4.7309,-4.7309,-4.7309,-4.7309,-4.7309,-4.7638,-4.8237,-6.5525,-6.605,-6.6209,-6.482,-6.6076,-6.7089,-6.6518,-6.8333,-6.9722,-6.9542,-6.8495,-6.7747,-6.7597,-6.6759,-6.5892,-6.5173,-6.4425,-6.3737,-6.3109,-6.3019,-6.2391,-6.1074,-6.0646,-6.0228,-5.9755,-5.6455,-5.4195,-5.2986,-5.0599,-4.8377,-4.6531,-4.704,-4.698,0.0,0.0,0.0,-4.5544,-4.6711,-4.689,-4.6429,-4.707,-4.7309,-4.7309,-4.7309,-4.7309,-4.7369,-4.7967,-4.7848,-4.7608,-4.8985,-4.9449,-4.9494,-5.0212,-5.0375,-5.0495,-5.1139,-5.1768,-5.2157,-5.1498,-5.2276,-5.3114,-5.2456,-5.2336,-5.2366,-5.2217,-5.1289,-5.0166,-4.9494,-4.8356,-4.7279,-4.6561,-4.689,-4.71,-4.6501,-4.692,-4.7309,-4.7309,-4.7309,-4.7309,-4.7309,-4.7309,-4.71,-4.6561,-4.698,-4.707,-4.6471,-4.6369,-4.6112,-4.5424,-4.6052,-4.6112,-4.5394,-4.6681,-4.7668,-4.8177,-4.7668,-4.7668,-4.8177,-4.7578,-4.7309,-4.7309,-4.7309,-4.7309,-4.7309,-4.7309,-4.7309,-4.7309,-4.7309,-4.7309,-4.7309,-4.7309,-4.7309,-4.7309,-4.7309,-4.7339,-4.7489,-6.847,-6.7524,-6.6841,-6.6551,-6.6332,-6.6525,-6.7245,-6.8206,-6.8764,-6.8764,-6.8315,-6.7837,-6.7418,-6.655,-6.5742,-6.5084,-6.4395,-6.3737,-6.3109,-6.272,-6.2061,-6.1164,-6.0169,-5.9105,-5.7798,-5.5844,-5.393,-5.2168,-5.046,-4.894,-4.7665,-4.7026,-4.6591,-4.6279,-4.6172,-4.6262,-4.6501,-4.6651,-4.68,-4.692,-4.7189,-4.7309,-4.7309,-4.7309,-4.7309,-4.7339,-4.7608,-4.7519,-4.7399,-4.7908,-4.8626,-4.9359,-4.9583,-5.0182,-5.0764,-5.0614,-5.1079,-5.1558,-5.1289,-5.1887,-5.2426,-5.1768,-5.1917,-5.2097,-5.1708,-5.0601,-4.9583,-4.9359,-4.8207,-4.7219,-4.695,-4.713,-4.7219,-4.695,-4.713,-4.7309,-4.7309,-4.7309,-4.716,-4.677,-4.6711,-4.6441,-4.5783,-4.5933,-4.6172,-4.6279,-4.6681,-4.6621,-4.5963,-4.6561,-4.6591,-4.5933,0.0,-4.7429,-4.7698,-4.7429,-4.7429,-4.7698,-4.7429,-4.7309,-4.7309,-4.7309,-4.7309,-4.7309,-4.7309,-4.7309,-4.7309,-4.7309,-4.7309,-4.7309,-4.7309,-4.7309,-4.7309,-4.7309,-4.7309,-4.7339,-7.0855,-6.9071,-6.7999,-6.8938,-6.7442,-6.6634,-6.8031,-6.8084,-6.7897,-6.7717,-6.7508,-6.7208,-6.6759,-6.5922,-6.5233,-6.4755,-6.4126,-6.3468,-6.2839,-6.2361,-6.1702,-6.0835,-5.9759,-5.8406,-5.6677,-5.5541,-5.3895,-5.1559,-5.0432,-4.932,-4.8198,-4.7099,-4.6501,-4.6279,-4.6022,-4.6292,-4.701,-4.6741,-4.689,-4.7309,-4.7309,-4.7309,-4.7309,-4.7309,-4.7309,-4.7309,-4.7309,-4.7309,-4.7309,-4.7309,-4.8057,-4.903,-4.903,-4.9763,-5.0601,-5.0285,-5.0644,-5.1229,-5.1229,-5.1558,-5.1798,-5.1319,-5.1558,-5.1738,-5.1079,-5.0062,-4.9209,-4.882,-4.7967,-4.7309,-4.7309,-4.7309,-4.7309,-4.7309,-4.7309,-4.7309,-4.7309,-4.713,-4.683,-4.6339,-4.6142,-4.5753,-4.5065,-4.5185,-4.5424,-4.5723,-4.6352,-4.6501,-4.6052,-4.6651,-4.6711,0.0,0.0,0.0,-4.7309,-4.7309,-4.7309,-4.7309,-4.7309,-4.7309,-4.7309,-4.7309,-4.7309,-4.7309,-4.7309,-4.7309,-4.7309,-4.7309,-4.7309,-4.7309,-4.7309,-4.7309,-4.7309,-4.7309,-4.7309,-4.7309,-7.1852,-7.0635,-7.0076,-7.2004,-6.9934,-6.818,-6.8713,-6.8334,-6.7747,-6.7089,-6.643,-6.6041,-6.6011,-6.4814,-6.4006,-6.4006,-6.3438,-6.281,-6.2151,-6.2091,-6.1493,-6.0146,-5.9749,-5.8938,-5.7636,-5.6526,-5.4593,-5.1691,-5.0938,-4.9438,-4.7309,-4.7309,-4.695,-4.6309,-4.698,-4.692,-4.6339,-4.701,-4.7309,-4.7309,-4.7309,-4.7309,-4.7309,-4.7309,-4.7309,-4.7309,-4.7309,-4.7309,-4.7309,-4.7309,-4.7758,-4.8297,-4.8297,-4.879,-4.9404,-5.0016,-5.0644,-5.1229,-5.1229,-5.1229,-5.1229,-5.1229,-5.1229,-5.105,-5.0345,-4.9733,-4.894,-4.7608,-4.7309,-4.7309,-4.7309,-4.7309,-4.7309,-4.7309,-4.7309,-4.7309,-4.7309,-4.6741,-4.6279,-4.6279,-4.5723,-4.5035,-4.4377,-4.4915,-4.5035,-4.4377,-4.4945,-4.5304,-4.5304,-4.5963,-4.6022,-4.5334,-4.6591,0.0,-4.7309,-4.7309,-4.7309,-4.7309,-4.7309,-4.7309,-4.7309,-4.7309,-4.7309,-4.7309,-4.7309,-4.7309,-4.7309,-4.7309,-4.7309,-4.7309,-4.7309,-4.7309,-4.7309,-4.7309,-4.7309,-4.7309,-7.1723,-7.1484,-7.139,-7.1233,-7.0771,-7.0388,-7.0073,-6.9185,-6.8298,-6.7627,-6.5828,-6.4635,-6.4635,-6.4246,-6.4006,-6.4006,-6.3019,-6.2331,-6.2121,-6.1224,-6.0326,-5.9458,-5.9302,-5.8036,-5.5349,-5.6449,-5.5209,-5.1559,-5.1836,-5.0598,-4.7967,-4.7967,-4.7608,-4.701,-4.7219,-4.7189,-4.701,-4.7219,-4.7309,-4.7309,-4.7309,-4.7309,-4.7309,-4.7309,-4.7309,-4.7309,-4.7309,-4.7309,-4.7309,-4.7309,-4.7758,-4.8297,-4.8297,-4.9045,-4.9883,-4.9643,-5.0361,-5.1229,-5.1229,-5.1229,-5.1229,-5.1229,-5.0853,-5.0435,-5.0255,-4.9374,-4.8356,-4.7489,-4.7309,-4.7309,-4.7309,-4.7309,-4.7309,-4.7309,-4.7309,-4.716,-4.6711,-4.6399,-4.595,-4.5065,-4.4766,-4.4377,-4.3678,-4.3798,-4.4047,-4.4287,-4.4915,-4.5514,-4.5963,-4.616,-4.6441,0.0,-4.707,0.0,-4.7309,-4.7309,-4.7309,-4.7309,-4.7309,-4.7309,-4.7309,-4.7309,-4.7309,-4.7309,-4.7309,-4.7309,-4.7309,-4.7309,-4.7309,-4.7309,-4.7309,-4.7309,-4.7309,-4.7309,-4.7309,-4.7309,-7.2971,-7.2827,-7.2649,-7.2036,-7.1592,-7.1122,-7.0923,-6.9458,-6.815,-6.7473,-6.5425,-6.4006,-6.4006,-6.3797,-6.3558,-6.3318,-6.257,-6.1882,-6.1373,-6.0565,-5.9787,-5.9129,-5.886,-5.7543,-5.4999,-5.6053,-5.5061,-5.1774,-5.1713,-5.0653,-4.87,-4.87,-4.8297,-4.7668,-4.7668,-4.7549,-4.7309,-4.7309,-4.7309,-4.7309,-4.7309,-4.7309,-4.7309,-4.7309,-4.7309,-4.7309,-4.7309,-4.7309,-4.7309,-4.7309,-4.7578,-4.7967,-4.8207,-4.9015,-4.9853,-4.9673,-5.0391,-5.1229,-5.1229,-5.1229,-5.1229,-5.1229,-5.0853,-5.0495,-5.0255,-4.9224,-4.8177,-4.7758,-4.7489,-4.7309,-4.7309,-4.7309,-4.7309,-4.7309,-4.7309,-4.707,-4.6369,-4.6082,-4.5544,-4.4436,-4.4107,-4.3738,-4.3319,-4.3529,-4.3738,-4.3888,-4.4796,-4.5484,-4.5903,0.0,-4.6651,-4.6561,-4.704,-4.7309,-4.7309,-4.7309,-4.7309,-4.7309,-4.7309,-4.7309,-4.7309,-4.7309,-4.7309,-4.7309,-4.7309,-4.7309,-4.7309,-4.7309,-4.7309,-4.7309,-4.7309,-4.7309,-4.7309,-4.7309,-4.7309,-4.7309,-7.5101,-7.4353,-7.3788,-7.4169,-7.2325,-7.0986,-7.1249,-6.9296,-6.7496,-6.6765,-6.5092,-6.4034,-6.4034,-6.364,-6.3066,-6.2288,-6.2171,-6.1631,-6.0366,-6.03,-5.997,-5.9255,-5.8654,-5.7693,-5.629,-5.569,-5.4381,-5.2336,-5.1033,-5.0122,-4.9509,-4.9509,-4.9149,-4.8416,-4.8386,-4.7997,-4.7369,-4.7339,-4.7309,-4.7309,-4.7309,-4.7352,-4.7366,-4.7309,-4.7352,-4.7396,-4.7339,-4.7369,-4.7369,-4.7429,-4.7489,-4.7608,-4.8237,-4.8865,-4.9523,-5.0016,-5.0644,-5.1229,-5.1229,-5.1229,-5.1229,-5.1229,-5.1199,-5.099,-5.0285,-4.9224,-4.8327,-4.8297,-4.7788,-4.7369,-4.7309,-4.7309,-4.7309,-4.7309,-4.7279,-4.701,-4.6352,-4.5663,-4.5005,-4.4377,-4.3738,-4.3379,-4.3409,-4.3947,-4.4077,-4.3469,-4.4616,-4.5304,0.0,0.0,-4.677,-4.5484,-4.6651,-4.7309,-4.7309,-4.7309,-4.7339,-4.7369,-4.7429,-4.7429,-4.7429,-4.7399,-4.7369,-4.7369,-4.7339,-4.7309,-4.7309,-4.7309,-4.7309,-4.7309,-4.7309,-4.7309,-4.7309,-4.7309,-4.7309,-4.7309,-7.417,-7.4755,-7.5032,-7.4556,-7.3884,-7.292,-7.1597,-6.9233,-6.7175,-6.6164,-6.5187,-6.4534,-6.4534,-6.5211,-6.5161,-6.3974,-6.3033,-6.2534,-6.2529,-6.207,-6.1477,-6.084,-6.0553,-5.9272,-5.6702,-5.6911,-5.5948,-5.3743,-5.2905,-5.2157,-5.1498,-5.1498,-5.087,-4.9717,-4.9254,-4.87,-4.8027,-4.7519,-4.7309,-4.7309,-4.7309,-4.7709,-4.8229,-4.7538,-4.7709,-4.829,-4.8109,-4.8057,-4.8117,-4.8626,-4.9134,-4.9538,-4.9687,-5.0242,-5.069,-5.0285,-5.0644,-5.1229,-5.1229,-5.1229,-5.1229,-5.1229,-5.084,-5.0255,-4.9643,-4.9299,-4.894,-4.8386,-4.8147,-4.7908,-4.7399,-4.7309,-4.7309,-4.7309,-4.689,-4.6322,-4.5633,-4.4975,-4.4496,-4.4347,-4.4167,-4.4287,-4.4796,-4.4526,-4.4466,-4.4796,-4.5125,-4.5304,-4.5304,-4.704,-4.7668,-4.686,-4.713,-4.7309,-4.7309,-4.7309,-4.7549,-4.8057,-4.8566,-4.885,-4.882,-4.8297,-4.8057,-4.8027,-4.7519,-4.7309,-4.7309,-4.7309,-4.7309,-4.7309,-4.7309,-4.7309,-4.7309,-4.7309,-4.7309,-4.7309,-7.3864,-7.4654,-7.4989,-7.3921,-7.379,-7.331,-7.1637,-6.9607,-6.7979,-6.7155,-6.6117,-6.5521,-6.5652,-6.6079,-6.6174,-6.5605,-6.4306,-6.3297,-6.287,-6.2477,-6.2147,-6.1768,-6.1435,-6.0292,-5.8417,-5.7868,-5.6469,-5.4221,-5.3204,-5.2546,-5.2187,-5.1887,-5.1199,-5.0196,-4.9883,-4.9194,-4.8267,-4.7908,-4.7578,-4.7352,-4.7752,-4.8187,-4.8563,-4.8396,-4.8572,-4.9002,-4.8829,-4.8745,-4.882,-4.9179,-4.9494,-4.9853,-5.0106,-5.0435,-5.0704,-5.0644,-5.0883,-5.1229,-5.1229,-5.1229,-5.1229,-5.1229,-5.096,-5.0601,-5.0242,-4.9912,-4.9613,-4.9254,-4.8955,-4.8626,-4.8267,-4.7967,-4.7668,-4.7369,-4.6741,-4.5963,-4.4975,-4.4526,-4.4317,-4.4317,-4.4317,-4.4556,-4.5214,-4.5274,-4.5244,-4.5304,-4.5873,0.0,-4.5783,-4.7369,-4.7967,-4.7339,-4.7878,-4.8207,-4.8207,-4.8207,-4.8386,-4.8745,-4.9149,-4.9299,-4.9299,-4.864,-4.8297,-4.8237,-4.7578,-4.7309,-4.7309,-4.7309,-4.7309,-4.7309,-4.7309,-4.7309,-4.7309,-4.7309,-4.7309,-4.7309,-7.4061,-7.4549,-7.45,-7.316,-7.3217,-7.2841,-7.1331,-6.996,-6.8936,-6.8386,-6.7382,-6.6867,-6.7093,-6.7074,-6.7093,-6.7216,-6.5831,-6.4388,-6.3001,-6.281,-6.2746,-6.2746,-6.1965,-6.117,-6.044,-5.8456,-5.6537,-5.4589,-5.3211,-5.2456,-5.2336,-5.1678,-5.102,-5.0315,-5.0136,-4.9509,-4.8607,-4.8427,-4.8093,-4.7722,-4.849,-4.8811,-4.8965,-4.9511,-4.9704,-4.9634,-4.967,-4.9539,-4.9434,-4.9569,-4.9599,-4.9673,-5.0212,-5.0345,-5.0435,-5.1003,-5.1229,-5.1229,-5.1229,-5.1229,-5.1229,-5.1229,-5.1229,-5.1229,-5.1229,-5.0734,-5.0315,-5.0226,-4.9793,-4.9419,-4.9329,-4.876,-4.8087,-4.7549,-4.6741,-4.5783,-4.4616,-4.4377,-4.4347,-4.4436,-4.4646,-4.5035,-4.5693,-4.6292,-4.6411,-4.5933,-4.686,-4.7249,-4.68,-4.7908,-4.8327,-4.7758,-4.8745,-4.9299,-4.9299,-4.9419,-4.9404,-4.9404,-4.9569,-4.9599,-4.9523,-4.8865,-4.8536,-4.8386,-4.7728,-4.7399,-4.7309,-4.7309,-4.7309,-4.7309,-4.7309,-4.7309,-4.7309,-4.7309,-4.7309,-4.7309,-7.5262,-7.5321,-7.4959,-7.4133,-7.3323,-7.2223,-7.0371,-6.9419,-6.8567,-6.7553,-6.8039,-6.8519,-6.8568,-6.9331,-6.9357,-6.8211,-6.7841,-6.7135,-6.5943,-6.5272,-6.491,-6.491,-6.366,-6.2516,-6.1574,-5.8372,-5.6603,-5.6225,-5.4666,-5.3593,-5.3025,-5.2366,-5.1708,-5.102,-4.9912,-4.9702,-5.01,-4.9009,-4.8883,-4.9407,-4.9567,-4.9953,-5.0448,-5.0614,-5.0528,-5.0426,-5.1015,-5.0712,-5.0136,-5.072,-5.093,-5.093,-5.105,-5.1033,-5.1079,-5.1199,-5.1229,-5.1229,-5.1229,-5.1229,-5.1229,-5.1229,-5.1229,-5.1229,-5.1229,-5.1139,-5.0853,-5.0315,-5.0106,-4.9912,-4.9419,-4.876,-4.8267,-4.8147,-4.6621,-4.5394,-4.5155,-4.4676,-4.4526,-4.5065,-4.6142,-4.71,-4.7758,-4.7908,-4.8177,-4.867,-4.8327,-4.8327,-4.882,-4.9523,-4.9837,-4.9747,-4.9464,-4.9299,-4.9299,-4.9823,-5.0046,-5.0046,-5.0661,-5.093,-5.09,-5.0196,-4.9643,-4.912,-4.8416,-4.7818,-4.7309,-4.7309,-4.7309,-4.7309,-4.7309,-4.7309,-4.7309,-4.7309,-4.7309,-4.7309,-7.3341,-7.3553,-7.3493,-7.2751,-7.2464,-7.1902,-7.0628,-7.004,-6.9618,-6.925,-6.9523,-6.9794,-6.9935,-7.0296,-7.0034,-6.8827,-6.8483,-6.7613,-6.5989,-6.5713,-6.5437,-6.5039,-6.3922,-6.2486,-6.0668,-5.906,-5.7932,-5.7418,-5.5891,-5.5008,-5.4715,-5.362,-5.2973,-5.2664,-5.1558,-5.1151,-5.1194,-5.0067,-4.9688,-4.9844,-5.0306,-5.0916,-5.1588,-5.1972,-5.1982,-5.1837,-5.2074,-5.1546,-5.0764,-5.1109,-5.1229,-5.1229,-5.1229,-5.1229,-5.1229,-5.1229,-5.1229,-5.1229,-5.1229,-5.1229,-5.1229,-5.1229,-5.1229,-5.1229,-5.1229,-5.1229,-5.1139,-5.0794,-5.0734,-5.0614,-5.0361,-4.9494,-4.885,-4.885,-4.683,-4.5424,-4.5813,-4.5274,-4.5214,-4.6262,-4.7249,-4.8087,-4.8745,-4.885,-4.9,-4.9299,-4.903,-4.9,-4.9299,-4.9883,-5.0196,-5.0196,-5.0301,-5.0331,-5.0331,-5.0601,-5.0734,-5.0734,-5.1079,-5.1229,-5.1199,-5.0495,-5.0016,-4.9733,-4.8716,-4.8117,-4.7818,-4.7459,-4.7309,-4.7309,-4.7309,-4.7309,-4.7309,-4.7309,-4.7309,-4.7309,-7.1921,-7.2124,-7.2225,-7.165,-7.1705,-7.1647,-7.1108,-7.0825,-7.0779,-7.0961,-7.0825,-7.0779,-7.0961,-7.0657,-7.0071,-6.9185,-6.8551,-6.7502,-6.5846,-6.5657,-6.5257,-6.4404,-6.3534,-6.2078,-6.0001,-5.9751,-5.9137,-5.8183,-5.6721,-5.5936,-5.5746,-5.4545,-5.3976,-5.3976,-5.3084,-5.2508,-5.2136,-5.1278,-5.0794,-5.0685,-5.1399,-5.207,-5.276,-5.3467,-5.3366,-5.2824,-5.2878,-5.2154,-5.1229,-5.1229,-5.1229,-5.1229,-5.1229,-5.1229,-5.1229,-5.1229,-5.1229,-5.1229,-5.1229,-5.1229,-5.1229,-5.1229,-5.1229,-5.1229,-5.1229,-5.1229,-5.1229,-5.1229,-5.1229,-5.1229,-5.1229,-5.0272,-4.9434,-4.9329,0.0,-4.5933,-4.6471,-4.6112,-4.6202,-4.7399,-4.8237,-4.8925,-4.9434,-4.9643,-4.9733,-4.9733,-4.9733,-4.9733,-4.9733,-5.0182,-5.0435,-5.0435,-5.0913,-5.1229,-5.1229,-5.1229,-5.1229,-5.1229,-5.1229,-5.1229,-5.1199,-5.0644,-5.0255,-4.9942,-4.8955,-4.8327,-4.8027,-4.7519,-4.7309,-4.7309,-4.7309,-4.7309,-4.7309,-4.7309,-4.7309,-4.7309,-7.3341,-7.2834,-7.2394,-7.2326,-7.1774,-7.1334,-7.1267,-7.1267,-7.1267,-7.1267,-7.1267,-7.1267,-7.1267,-7.0624,-6.9914,-6.9161,-6.835,-6.7573,-6.672,-6.5664,-6.4576,-6.3458,-6.2685,-6.1881,-6.1035,-6.0087,-5.9219,-5.8453,-5.6822,-5.5683,-5.5083,-5.4324,-5.3976,-5.3945,-5.3271,-5.3031,-5.305,-5.2372,-5.2476,-5.3152,-5.3225,-5.3569,-5.4266,-5.5106,-5.4268,-5.2736,-5.3589,-5.274,-5.1229,-5.1229,-5.1229,-5.1229,-5.1229,-5.1229,-5.1229,-5.1229,-5.1229,-5.1229,-5.1229,-5.1229,-5.1229,-5.1229,-5.1229,-5.1229,-5.1229,-5.1229,-5.1229,-5.1229,-5.1229,-5.1229,-5.1229,-5.0614,-4.9972,-4.9419,0.0,0.0,-4.7219,-4.7189,-4.7429,-4.8117,-4.9314,-5.0076,-5.0106,-5.072,-5.1079,-5.1079,-5.1079,-5.1079,-5.1079,-5.1109,-5.1139,-5.1139,-5.1199,-5.1229,-5.1229,-5.1229,-5.1229,-5.1229,-5.1229,-5.1229,-5.1229,-5.1169,-5.0481,-4.9389,-4.9269,-4.8506,-4.7369,-4.7339,-4.7309,-4.7309,-4.7309,-4.7309,-4.7309,-4.7309,-4.7309,-4.7309,-7.2157,-7.1921,-7.1718,-7.1718,-7.1515,-7.1312,-7.1312,-7.1312,-7.1312,-7.1312,-7.1312,-7.1312,-7.1312,-7.0635,-6.9847,-6.8938,-6.7843,-6.6584,-6.5119,-6.4296,-6.3509,-6.2652,-6.2354,-6.1848,-6.1119,-6.1146,-6.0844,-6.0121,-5.8573,-5.7688,-5.7395,-5.6222,-5.5668,-5.5595,-5.4358,-5.4146,-5.4591,-5.3337,-5.3313,-5.4096,-5.4096,-5.4505,-5.5127,-5.5468,-5.5049,-5.4243,-5.4062,-5.3152,-5.2002,-5.1386,-5.1229,-5.1229,-5.1229,-5.1229,-5.1289,-5.1708,-5.1528,-5.1319,-5.1708,-5.1528,-5.1319,-5.1738,-5.1528,-5.1319,-5.1738,-5.1498,-5.1229,-5.1229,-5.1229,-5.1349,-5.1738,-5.0913,-5.0375,-5.099,0.0,-4.8207,-4.9015,-4.8775,-4.8775,-4.9434,-5.0255,-5.0794,-5.0794,-5.1079,-5.1229,-5.1229,-5.1229,-5.1229,-5.1229,-5.1229,-5.1229,-5.1229,-5.1229,-5.1229,-5.1229,-5.1229,-5.1229,-5.1229,-5.1229,-5.1229,-5.1229,-5.1229,-5.072,-4.9853,-4.9434,-4.879,-4.7878,-4.7489,-4.7309,-4.7309,-4.7309,-4.7309,-4.7309,-4.7309,-4.7309,-4.7309,-7.1312,-7.1312,-7.1312,-7.1312,-7.1312,-7.1312,-7.1312,-7.1312,-7.1312,-7.1312,-7.1312,-7.121,-7.0973,-7.0297,-6.9373,-6.8186,-6.71,-6.5808,-6.4195,-6.374,-6.3105,-6.2099,-6.2024,-6.175,-6.1202,-6.1708,-6.1567,-6.0755,-5.9496,-5.8767,-5.8535,-5.7276,-5.668,-5.6647,-5.5536,-5.5247,-5.5511,-5.4409,-5.4295,-5.4821,-5.4821,-5.5322,-5.5951,-5.5951,-5.5673,-5.519,-5.4317,-5.3371,-5.2471,-5.1526,-5.1229,-5.1259,-5.1468,-5.1528,-5.1648,-5.2306,-5.1887,-5.1379,-5.2007,-5.1708,-5.1379,-5.2037,-5.1858,-5.1708,-5.2366,-5.2157,-5.1828,-5.1828,-5.1828,-5.1977,-5.2426,-5.1768,-5.1379,-5.2097,-5.069,-4.9823,-5.072,-5.0481,-5.0361,-5.081,-5.1259,-5.1439,-5.1229,-5.1229,-5.1229,-5.1229,-5.1229,-5.1229,-5.1229,-5.1229,-5.1229,-5.1229,-5.1229,-5.1229,-5.1229,-5.1229,-5.1229,-5.1229,-5.1229,-5.1229,-5.1229,-5.1229,-5.0823,-5.0166,-4.9553,-4.894,-4.8237,-4.7578,-4.7309,-4.7309,-4.7309,-4.7309,-4.7309,-4.7309,-4.7309,-4.7309,-7.1312,-7.1312,-7.1312,-7.1312,-7.1312,-7.1312,-7.1312,-7.1312,-7.1312,-7.1312,-7.1312,-7.1007,-7.0263,-6.9553,-6.847,-6.6948,-6.6136,-6.5358,-6.4647,-6.4416,-6.3497,-6.1776,-6.1709,-6.1588,-6.1424,-6.1383,-6.0968,-6.0026,-5.9264,-5.8535,-5.7773,-5.7044,-5.668,-5.668,-5.668,-5.6282,-5.5582,-5.5582,-5.5582,-5.5582,-5.5582,-5.6051,-5.668,-5.668,-5.6106,-5.5231,-5.4317,-5.3415,-5.2471,-5.1526,-5.1229,-5.1319,-5.1977,-5.2187,-5.2306,-5.2995,-5.2247,-5.1379,-5.2007,-5.1708,-5.1379,-5.2037,-5.2187,-5.2366,-5.3025,-5.3174,-5.3174,-5.3174,-5.3174,-5.3174,-5.3204,-5.3174,-5.2965,-5.2306,-5.2217,-5.2217,-5.2217,-5.2187,-5.2187,-5.2187,-5.2187,-5.1947,-5.1289,-5.1229,-5.1229,-5.1229,-5.1229,-5.1229,-5.1229,-5.1229,-5.1229,-5.1229,-5.1229,-5.1229,-5.1229,-5.1229,-5.1229,-5.1229,-5.1229,-5.1229,-5.1229,-5.1229,-5.0823,-5.0166,-4.9553,-4.894,-4.8237,-4.7578,-4.7309,-4.7309,-4.7309,-4.7309,-4.7309,-4.7309,-4.7309,-4.7309,-7.1312,-7.1312,-7.1312,-7.1312,-7.1312,-7.1312,-7.1312,-7.1312,-7.1312,-7.1312,-7.0838,-7.0432,-7.0195,-6.9045,-6.8064,-6.7624,-6.6406,-6.5155,-6.3903,-6.3288,-6.2735,-6.2183,-6.2878,-6.294,-6.2397,-6.2356,-6.2022,-6.1172,-5.9938,-5.9203,-5.897,-5.7586,-5.6911,-5.6877,-5.5696,-5.562,-5.6316,-5.5289,-5.5454,-5.6382,-5.6382,-5.6481,-5.668,-5.668,-5.6525,-5.6179,-5.5231,-5.4359,-5.3415,-5.2516,-5.1727,-5.1259,-5.1439,-5.1498,-5.1648,-5.2306,-5.1887,-5.1379,-5.2007,-5.2067,-5.2067,-5.2725,-5.2546,-5.2486,-5.3653,-5.3533,-5.3174,-5.3174,-5.3174,-5.3324,-5.3803,-5.3503,-5.3264,-5.3563,-5.3204,-5.2875,-5.2875,-5.2486,-5.2187,-5.2187,-5.1798,-5.1439,-5.1229,-5.1229,-5.1229,-5.1229,-5.1229,-5.1229,-5.1229,-5.1229,-5.1229,-5.1229,-5.1229,-5.1229,-5.1229,-5.1229,-5.1229,-5.1229,-5.1229,-5.1229,-5.1229,-5.1229,-5.0823,-5.0166,-4.9553,-4.894,-4.8237,-4.7578,-4.7309,-4.7309,-4.7309,-4.7309,-4.7369,-4.7818,-4.7698,-4.7369,-7.1312,-7.1312,-7.1312,-7.1312,-7.1312,-7.1312,-7.1312,-7.1312,-7.121,-7.0906,-7.0466,-6.9958,-6.935,-6.847,-6.7658,-6.7083,-6.5933,-6.4884,-6.4005,-6.3531,-6.326,-6.326,-6.3593,-6.3355,-6.2468,-6.2468,-6.2092,-6.1274,-6.0102,-5.9326,-5.9064,-5.7745,-5.7139,-5.7067,-5.6054,-5.6041,-5.6729,-5.5866,-5.5961,-5.668,-5.668,-5.668,-5.668,-5.668,-5.668,-5.6603,-5.5636,-5.4952,-5.4337,-5.3146,-5.2301,-5.1635,-5.1293,-5.1409,-5.1738,-5.2396,-5.1768,-5.0973,-5.1947,-5.2007,-5.2037,-5.2965,-5.3084,-5.3264,-5.4341,-5.4281,-5.3982,-5.3982,-5.3982,-5.4102,-5.4521,-5.4251,-5.4102,-5.4521,-5.4251,-5.3982,-5.3982,-5.3414,-5.2905,-5.2606,-5.2007,-5.1498,-5.1259,-5.1229,-5.1229,-5.1229,-5.1229,-5.1229,-5.1229,-5.1229,-5.1229,-5.1229,-5.1229,-5.1229,-5.1229,-5.1229,-5.1229,-5.1229,-5.1229,-5.1229,-5.1229,-5.1229,-5.099,-5.0524,-4.9673,-4.909,-4.8596,-4.7698,-4.7309,-4.7309,-4.7309,-4.7309,-4.7369,-4.7758,-4.7638,-4.7369,-7.1312,-7.1312,-7.1312,-7.1312,-7.1278,-7.121,-7.121,-7.1176,-7.0872,-7.0195,-7.0026,-6.9451,-6.8064,-6.7827,-6.7252,-6.5899,-6.5121,-6.4681,-6.4681,-6.458,-6.4512,-6.4512,-6.3802,-6.2978,-6.207,-6.1969,-6.1553,-6.0684,-5.984,-5.9069,-5.8332,-5.7561,-5.7226,-5.7226,-5.7159,-5.7009,-5.6887,-5.6887,-5.6773,-5.6614,-5.6647,-5.668,-5.668,-5.668,-5.668,-5.6603,-5.5716,-5.5393,-5.502,-5.3365,-5.2617,-5.2289,-5.1299,-5.1498,-5.2127,-5.2725,-5.1678,-5.0554,-5.1858,-5.1798,-5.1708,-5.2965,-5.3773,-5.4461,-5.5059,-5.5179,-5.5179,-5.5179,-5.5179,-5.5179,-5.5179,-5.5179,-5.5179,-5.5179,-5.5179,-5.5179,-5.5179,-5.4581,-5.3892,-5.3264,-5.2546,-5.1887,-5.1289,-5.1229,-5.1229,-5.1229,-5.1229,-5.1229,-5.1229,-5.1229,-5.1229,-5.1229,-5.1229,-5.1229,-5.1229,-5.1229,-5.1229,-5.1229,-5.1229,-5.1229,-5.1229,-5.1229,-5.1229,-5.1139,-4.9883,-4.9359,-4.9209,-4.7908,-4.7369,-4.7309,-4.7309,-4.7309,-4.7309,-4.7369,-4.7369,-4.7309,-7.1312,-7.1312,-7.1312,-7.1312,-7.0838,-7.0432,-7.0432,-6.9958,-6.9519,-6.935,-6.8774,-6.8267,-6.7929,-6.7387,-6.6914,-6.6609,-6.5899,-6.5459,-6.5459,-6.4377,-6.3768,-6.3768,-6.3024,-6.255,-6.2341,-6.1728,-6.1356,-6.1143,-5.976,-5.8714,-5.8008,-5.7083,-5.6673,-5.664,-5.5889,-5.5773,-5.6154,-5.6154,-5.6041,-5.5918,-5.6448,-5.668,-5.668,-5.668,-5.668,-5.668,-5.6453,-5.5908,-5.4938,-5.2645,-5.1858,-5.1536,-5.014,-5.0152,-5.0644,-5.0794,-5.0883,-5.1169,-5.1977,-5.2486,-5.2965,-5.3773,-5.4491,-5.5029,-5.5149,-5.5179,-5.5179,-5.5179,-5.5179,-5.5179,-5.5179,-5.5179,-5.5179,-5.5179,-5.5179,-5.5179,-5.5179,-5.4162,-5.3354,-5.3204,-5.2157,-5.1379,-5.1229,-5.1229,-5.1229,-5.1229,-5.1229,-5.1229,-5.1229,-5.1229,-5.1229,-5.1229,-5.1229,-5.1229,-5.1229,-5.1229,-5.1229,-5.1229,-5.1229,-5.1229,-5.1229,-5.1229,-5.1229,-5.1169,-5.0361,-4.9733,-4.9239,-4.8416,-4.7758,-4.7309,-4.7309,-4.7309,-4.7369,-4.7878,-4.7758,-4.7369,-7.1312,-7.1312,-7.1312,-7.1312,-7.0703,-7.0195,-7.0195,-6.9553,-6.8977,-6.8571,-6.8166,-6.776,-6.7421,-6.7049,-6.6812,-6.6812,-6.644,-6.6068,-6.5696,-6.4647,-6.3869,-6.3531,-6.2787,-6.2381,-6.2381,-6.096,-6.0216,-6.0216,-5.9404,-5.8457,-5.734,-5.686,-5.6824,-5.7161,-5.6648,-5.6462,-5.6571,-5.6571,-5.6383,-5.615,-5.6547,-5.668,-5.668,-5.668,-5.668,-5.668,-5.668,-5.5946,-5.4672,-5.2968,-5.1905,-5.1014,-4.9761,-4.9583,-4.9763,-4.9763,-4.9793,-5.0092,-5.1379,-5.2356,-5.3277,-5.4613,-5.5189,-5.5406,-5.527,-5.5179,-5.5179,-5.5179,-5.5179,-5.5179,-5.5179,-5.5179,-5.5089,-5.476,-5.497,-5.497,-5.4341,-5.3623,-5.3054,-5.2755,-5.1828,-5.1229,-5.1229,-5.1229,-5.1229,-5.1229,-5.1229,-5.1229,-5.1229,-5.1229,-5.1229,-5.1229,-5.1229,-5.1229,-5.1229,-5.1229,-5.1229,-5.1229,-5.1229,-5.1229,-5.1229,-5.1229,-5.1229,-5.1169,-5.0212,-4.9583,-4.9239,-4.8207,-4.7608,-4.7309,-4.7309,-4.7309,-4.7339,-4.7698,-4.7608,-4.7369,-7.1109,-7.1007,-7.0939,-7.0939,-7.0297,-6.9789,-6.9789,-6.918,-6.847,-6.7793,-6.7726,-6.7421,-6.6711,-6.6609,-6.6576,-6.644,-6.6542,-6.6305,-6.5561,-6.4816,-6.414,-6.3531,-6.2787,-6.2347,-6.2212,-6.0216,-5.9133,-5.9032,-5.8626,-5.7814,-5.663,-5.663,-5.7002,-5.7712,-5.7712,-5.753,-5.7197,-5.7297,-5.7072,-5.6591,-5.6724,-5.6719,-5.668,-5.668,-5.668,-5.668,-5.668,-5.5918,-5.4712,-5.3687,-5.2308,-5.0812,-4.9718,-4.9252,-4.9179,-4.9269,-4.894,-4.894,-5.1026,-5.2231,-5.3388,-5.5442,-5.5998,-5.6056,-5.5747,-5.546,-5.538,-5.562,-5.5551,-5.5431,-5.5431,-5.533,-5.4999,-5.4461,-5.485,-5.476,-5.3533,-5.3264,-5.2935,-5.2276,-5.1618,-5.1229,-5.1229,-5.1229,-5.1229,-5.1229,-5.1229,-5.1229,-5.1229,-5.1229,-5.1229,-5.1229,-5.1229,-5.1229,-5.1229,-5.1229,-5.1229,-5.1229,-5.1229,-5.1229,-5.1229,-5.1229,-5.1169,-5.099,-4.9912,-4.9359,-4.906,-4.7908,-4.7399,-4.7309,-4.7309,-4.7309,-4.7309,-4.7309,-4.7309,-4.7309,-7.0229,-6.9823,-6.9417,-6.9417,-6.8741,-6.8199,-6.8199,-6.759,-6.7083,-6.6981,-6.6948,-6.6677,-6.5933,-6.5831,-6.5595,-6.4952,-6.5459,-6.5527,-6.4783,-6.4072,-6.3632,-6.3531,-6.2787,-6.211,-6.1467,-6.0452,-5.9641,-5.9032,-5.7067,-5.6019,-5.5852,-5.5852,-5.6258,-5.6934,-5.6934,-5.6826,-5.6642,-5.7282,-5.6958,-5.6046,-5.6716,-5.6872,-5.668,-5.668,-5.668,-5.668,-5.668,-5.6547,-5.6068,-5.4013,-5.2629,-5.1461,-4.9399,-4.8596,-4.8536,-4.9149,-4.9239,-4.9779,-5.2536,-5.3453,-5.408,-5.6287,-5.7333,-5.7759,-5.7714,-5.6652,-5.6025,-5.7433,-5.6991,-5.6396,-5.6396,-5.575,-5.5149,-5.5059,-5.5119,-5.491,-5.4192,-5.3563,-5.2935,-5.2276,-5.1618,-5.1229,-5.1229,-5.1229,-5.1229,-5.1229,-5.1229,-5.1229,-5.1229,-5.1229,-5.1229,-5.1229,-5.1229,-5.1229,-5.1229,-5.1229,-5.1229,-5.1229,-5.1229,-5.1229,-5.1229,-5.1229,-5.0853,-5.0315,-5.0136,-4.9464,-4.8416,-4.8237,-4.7818,-4.7309,-4.7309,-4.7309,-4.7309,-4.7309,-4.7309,-4.7309,-6.9519,-6.9316,-6.9113,-6.9113,-6.8436,-6.7895,-6.7895,-6.7286,-6.6677,-6.6237,-6.6203,-6.5899,-6.5155,-6.5087,-6.4952,-6.4647,-6.4884,-6.4783,-6.4038,-6.37,-6.3328,-6.2888,-6.255,-6.2245,-6.1907,-5.9911,-5.8693,-5.8389,-5.6596,-5.5513,-5.5108,-5.5513,-5.6089,-5.6833,-5.7239,-5.7299,-5.715,-5.7453,-5.7238,-5.6742,-5.7043,-5.7101,-5.7025,-5.7025,-5.6949,-5.6834,-5.6719,-5.6448,-5.5842,-5.4443,-5.3142,-5.1805,-4.9841,-4.9129,-4.8953,-4.8803,-4.876,-4.9268,-5.1784,-5.2896,-5.3895,-5.6037,-5.7192,-5.8008,-5.895,-5.7745,-5.6621,-5.712,-5.6665,-5.6015,-5.5857,-5.515,-5.4521,-5.4132,-5.4401,-5.4162,-5.2725,-5.2606,-5.2396,-5.1738,-5.1379,-5.1229,-5.1229,-5.1229,-5.1229,-5.1229,-5.1229,-5.1229,-5.1229,-5.1229,-5.1229,-5.1229,-5.1229,-5.1229,-5.1229,-5.1229,-5.1229,-5.1229,-5.1229,-5.1229,-5.1229,-5.1229,-5.0823,-5.0166,-4.9853,-4.9164,-4.8267,-4.7908,-4.7578,-4.7309,-4.7309,-4.7309,-4.7309,-4.7309,-4.7309,-4.7309]},{"header":{"parameterUnit":"m.s-1","parameterCategory":1,"la1":30.6,"la2":28.766,"lo1":-90.7593,"lo2":-88.6598,"dy":0.0162,"dx":0.0183,"nx":116,"ny":114,"refTime":"2023-06-12T12:00:00:Z","depth":0,"parameterNumber":3,"parameterNumberName":"V-component_of_WINDS"},"data":[0.0,0.0,0.0,0.0,0.0,0.0,0.0,0.0,0.0,0.0,0.0,0.0,0.0,0.0,0.0,0.0,0.0,0.0,0.0,0.0,0.0,0.0,0.0,0.0,0.0,0.0,0.0,0.0,0.0,0.0,0.0,0.0,0.0,0.0,0.0,0.0,0.0,0.0,0.0,0.0,0.0,0.0,0.0,0.0,0.0,0.0,0.0,0.0,0.0,0.0,0.0,0.0,0.0,0.0,0.0,0.0,0.0,0.0,0.0,0.0,0.0,0.0,0.0,0.0,0.0,0.0,0.0,0.0,0.0,0.0,0.0,0.0,0.0,0.0,0.0,0.0,0.0,0.0,0.0,0.0,0.0,0.0,0.0,0.0,0.0,0.0,0.0,0.0,0.0,0.0,0.0,0.0,0.0,0.0,0.0,0.0,0.0,0.0,0.0,0.0,0.0,0.0,0.0,0.0,0.0,0.0,0.0,0.0,0.0,0.0,0.0,0.0,0.0,0.0,0.0,0.0,0.0,0.0,0.0,0.0,0.0,0.0,0.0,0.0,0.0,0.0,0.0,0.0,0.0,0.0,0.0,0.0,0.0,0.0,0.0,0.0,0.0,0.0,0.0,0.0,0.0,0.0,0.0,0.0,0.0,0.0,0.0,0.0,0.0,0.0,0.0,0.0,0.0,0.0,0.0,0.0,0.0,0.0,0.0,0.0,0.0,0.0,0.0,0.0,0.0,0.0,0.0,0.0,0.0,0.0,0.0,0.0,0.0,0.0,0.0,0.0,0.0,0.0,0.0,0.0,0.0,0.0,0.0,0.0,0.0,0.0,0.0,0.0,0.0,0.0,0.0,0.0,0.0,0.0,0.0,0.0,0.0,0.0,0.0,0.0,0.0,0.0,0.0,0.0,0.0,0.0,0.0,0.0,0.0,0.0,0.0,0.0,0.0,0.0,0.0,0.0,0.0,0.0,0.0,0.0,0.0,0.0,0.0,0.0,0.0,0.0,0.0,0.0,0.0,0.0,0.0,0.0,0.0,0.0,0.0,0.0,0.0,0.0,0.0,0.0,0.0,0.0,0.0,0.0,0.0,0.0,0.0,0.0,0.0,0.0,0.0,0.0,0.0,0.0,0.0,0.0,0.0,0.0,0.0,0.0,0.0,0.0,0.0,0.0,0.0,0.0,0.0,0.0,0.0,0.0,0.0,0.0,0.0,0.0,0.0,0.0,0.0,0.0,0.0,0.0,0.0,0.0,0.0,0.0,0.0,0.0,0.0,0.0,0.0,0.0,0.0,0.0,0.0,0.0,0.0,0.0,0.0,0.0,0.0,0.0,0.0,0.0,0.0,0.0,0.0,0.0,0.0,0.0,0.0,0.0,0.0,0.0,0.0,0.0,0.0,0.0,0.0,0.0,0.0,0.0,0.0,0.0,0.0,0.0,0.0,0.0,0.0,0.0,0.0,0.0,0.0,0.0,0.0,0.0,0.0,0.0,0.0,0.0,0.0,0.0,0.0,0.0,0.0,0.0,0.0,0.0,0.0,0.0,0.0,0.0,0.0,0.0,0.0,0.0,0.0,0.0,0.0,0.0,0.0,0.0,0.0,0.0,0.0,0.0,0.0,0.0,0.0,0.0,0.0,0.0,0.0,0.0,0.0,0.0,0.0,0.0,0.0,0.0,0.0,0.0,0.0,0.0,0.0,0.0,0.0,0.0,0.0,0.0,0.0,0.0,0.0,0.0,0.0,0.0,0.0,0.0,0.0,0.0,0.0,0.0,0.0,0.0,0.0,0.0,0.0,0.0,0.0,0.0,0.0,0.0,0.0,0.0,0.0,0.0,0.0,0.0,0.0,0.0,0.0,0.0,0.0,0.0,0.0,0.0,0.0,0.0,0.0,0.0,0.0,0.0,0.0,0.0,0.0,0.0,0.0,0.0,0.0,0.0,0.0,0.0,0.0,0.0,0.0,0.0,0.0,0.0,0.0,0.0,0.0,0.0,0.0,0.0,0.0,0.0,0.0,0.0,0.0,0.0,0.0,0.0,0.0,0.0,0.0,0.0,0.0,0.0,0.0,0.0,0.0,0.0,0.0,0.0,0.0,0.0,0.0,0.0,0.0,0.0,0.0,0.0,0.0,0.0,0.0,0.0,0.0,0.0,0.0,0.0,0.0,0.0,0.0,0.0,0.0,0.0,0.0,0.0,0.0,0.0,0.0,0.0,0.0,0.0,0.0,0.0,0.0,0.0,0.0,0.0,0.0,0.0,0.0,0.0,0.0,0.0,0.0,0.0,0.0,0.0,0.0,0.0,0.0,0.0,0.0,0.0,0.0,0.0,0.0,0.0,0.0,0.0,0.0,0.0,0.0,0.0,0.0,0.0,0.0,0.0,0.0,0.0,0.0,0.0,0.0,0.0,0.0,0.0,0.0,0.0,0.0,0.0,0.0,0.0,0.0,0.0,0.0,0.0,0.0,0.0,0.0,0.0,0.0,0.0,0.0,0.0,0.0,0.0,0.0,0.0,0.0,0.0,0.0,0.0,0.0,0.0,0.0,0.0,0.0,0.0,0.0,0.0,0.0,0.0,0.0,0.0,0.0,0.0,0.0,0.0,0.0,0.0,0.0,0.0,0.0,0.0,0.0,0.0,0.0,0.0,0.0,0.0,0.0,0.0,0.0,0.0,0.0,0.0,0.0,0.0,0.0,0.0,0.0,0.0,0.0,0.0,0.0,0.0,0.0,0.0,0.0,0.0,0.0,0.0,0.0,0.0,0.0,0.0,0.0,0.0,0.0,0.0,0.0,0.0,0.0,0.0,0.0,0.0,0.0,0.0,0.0,0.0,0.0,0.0,0.0,0.0,0.0,0.0,0.0,0.0,0.0,0.0,0.0,0.0,0.0,0.0,0.0,0.0,0.0,0.0,0.0,0.0,0.0,0.0,0.0,0.0,0.0,0.0,0.0,0.0,0.0,0.0,0.0,0.0,0.0,0.0,0.0,0.0,0.0,0.0,0.0,0.0,0.0,0.0,0.0,0.0,0.0,0.0,0.0,0.0,0.0,0.0,0.0,0.0,0.0,0.0,0.0,0.0,0.0,0.0,0.0,0.0,0.0,0.0,0.0,0.0,0.0,0.0,0.0,0.0,0.0,0.0,0.0,0.0,0.0,0.0,0.0,0.0,0.0,0.0,0.0,0.0,0.0,0.0,0.0,0.0,0.0,0.0,0.0,0.0,0.0,0.0,0.0,0.0,0.0,0.0,0.0,0.0,0.0,0.0,0.0,0.0,0.0,0.0,0.0,0.0,0.0,0.0,0.0,0.0,0.0,0.0,0.0,0.0,0.0,0.0,0.0,0.0,0.0,0.0,0.0,0.0,0.0,0.0,0.0,0.0,0.0,0.0,0.0,0.0,0.0,0.0,0.0,0.0,0.0,0.0,0.0,0.0,0.0,0.0,0.0,0.0,0.0,0.0,0.0,0.0,0.0,0.0,0.0,0.0,0.0,0.0,0.0,0.0,0.0,0.0,0.0,0.0,0.0,0.0,0.0,0.0,0.0,0.0,0.0,0.0,0.0,0.0,0.0,0.0,0.0,0.0,0.0,0.0,0.0,0.0,0.0,0.0,0.0,0.0,0.0,0.0,0.0,0.0,0.0,0.0,0.0,0.0,0.0,0.0,0.0,0.0,0.0,0.0,0.0,0.0,0.0,0.0,0.0,0.0,0.0,0.0,0.0,0.0,0.0,0.0,0.0,0.0,0.0,0.0,0.0,0.0,0.0,0.0,0.0,0.0,0.0,0.0,0.0,0.0,0.0,0.0,0.0,0.0,0.0,0.0,0.0,0.0,0.0,0.0,0.0,0.0,0.0,0.0,0.0,0.0,0.0,0.0,0.0,0.0,0.0,0.0,0.0,0.0,0.0,0.0,0.0,0.0,0.0,0.0,0.0,0.0,0.0,0.0,0.0,0.0,0.0,0.0,0.0,0.0,0.0,0.0,0.0,0.0,0.0,0.0,0.0,0.0,0.0,0.0,0.0,0.0,0.0,0.0,0.0,0.0,0.0,0.0,0.0,0.0,0.0,0.0,0.0,0.0,0.0,0.0,0.0,0.0,0.0,0.0,0.0,0.0,0.0,0.0,0.0,0.0,0.0,0.0,0.0,0.0,0.0,0.0,0.0,0.0,0.0,0.0,0.0,0.0,0.0,0.0,0.0,0.0,0.0,0.0,0.0,0.0,0.0,0.0,0.0,0.0,0.0,0.0,0.0,0.0,0.0,0.0,0.0,0.0,0.0,0.0,0.0,0.0,0.0,0.0,0.0,0.0,0.0,0.0,0.0,0.0,0.0,0.0,0.0,0.0,0.0,0.0,0.0,0.0,0.0,0.0,0.0,0.0,0.0,0.0,0.0,0.0,0.0,0.0,0.0,0.0,0.0,0.0,0.0,0.0,0.0,0.0,0.0,0.0,0.0,0.0,0.0,0.0,0.0,0.0,0.0,0.0,0.0,0.0,0.0,0.0,0.0,0.0,0.0,0.0,0.0,0.0,0.0,0.0,0.0,0.0,0.0,0.0,0.0,0.0,0.0,0.0,0.0,0.0,0.0,0.0,0.0,0.0,0.0,0.0,0.0,0.0,0.0,0.0,0.0,0.0,0.0,0.0,0.0,0.0,0.0,0.0,0.0,0.0,0.0,0.0,0.0,0.0,0.0,0.0,0.0,0.0,0.0,0.0,0.0,0.0,0.0,0.0,0.0,0.0,0.0,0.0,0.0,0.0,0.0,0.0,0.0,0.0,0.0,0.0,0.0,0.0,0.0,0.0,0.0,0.0,0.0,0.0,0.0,0.0,0.0,0.0,0.0,0.0,0.0,0.0,0.0,0.0,0.0,0.0,0.0,0.0,0.0,0.0,0.0,0.0,0.0,0.0,0.0,0.0,0.0,0.0,0.0,0.0,0.0,0.0,0.0,0.0,0.0,0.0,0.0,0.0,0.0,0.0,0.0,0.0,0.0,0.0,0.0,0.0,0.0,0.0,0.0,0.0,0.0,0.0,0.0,0.0,0.0,0.0,0.0,0.0,0.0,0.0,0.0,0.0,0.0,0.0,0.0,0.0,0.0,0.0,0.0,0.0,0.0,0.0,0.0,0.0,0.0,0.0,0.0,0.0,0.0,0.0,0.0,0.0,0.0,0.0,0.0,0.0,0.0,0.0,0.0,0.0,0.0,0.0,0.0,0.0,0.0,0.0,0.0,0.0,0.0,0.0,0.0,0.0,0.0,0.0,0.0,0.0,0.0,0.0,0.0,0.0,0.0,0.0,0.0,0.0,0.0,0.0,0.0,0.0,0.0,0.0,0.0,0.0,0.0,0.0,0.0,0.0,0.0,0.0,0.0,0.0,0.0,0.0,0.0,0.0,0.0,0.0,0.0,0.0,0.0,0.0,0.0,0.0,0.0,0.0,0.0,0.0,0.0,0.0,0.0,0.0,0.0,0.0,0.0,0.0,0.0,0.0,0.0,0.0,0.0,0.0,0.0,0.0,0.0,0.0,0.0,0.0,0.0,0.0,0.0,0.0,0.0,0.0,0.0,0.0,0.0,0.0,0.0,0.0,0.0,0.0,0.0,0.0,0.0,0.0,0.0,0.0,0.0,0.0,0.0,0.0,0.0,0.0,0.0,0.0,0.0,0.0,0.0,0.0,0.0,0.0,0.0,0.0,0.0,0.0,0.0,0.0,0.0,0.0,0.0,0.0,0.0,0.0,0.0,0.0,0.0,0.0,0.0,0.0,0.0,0.0,0.0,0.0,0.0,0.0,0.0,0.0,0.0,0.0,0.0,0.0,0.0,0.0,0.0,0.0,0.0,0.0,0.0,0.0,0.0,0.0,0.0,0.0,0.0,0.0,0.0,0.0,0.0,0.0,0.0,0.0,0.0,0.0,0.0,0.0,0.0,0.0,0.0,0.0,0.0,0.0,0.0,0.0,0.0,0.0,0.0,0.0,0.0,0.0,0.0,0.0,0.0,0.0,0.0,0.0,0.0,0.0,0.0,0.0,0.0,0.0,0.0,0.0,0.0,0.0,0.0,0.0,0.0,0.0,0.0,0.0,0.0,0.0,0.0,0.0,-4.9117,-4.932,0.0,0.0,0.0,0.0,0.0,0.0,0.0,0.0,0.0,0.0,0.0,0.0,0.0,0.0,0.0,0.0,0.0,0.0,0.0,0.0,0.0,0.0,0.0,0.0,0.0,0.0,0.0,0.0,0.0,0.0,0.0,0.0,0.0,0.0,0.0,0.0,0.0,0.0,0.0,0.0,0.0,0.0,0.0,0.0,0.0,0.0,0.0,0.0,0.0,0.0,0.0,0.0,0.0,0.0,0.0,0.0,0.0,0.0,0.0,0.0,0.0,0.0,0.0,0.0,0.0,0.0,0.0,0.0,0.0,0.0,0.0,0.0,0.0,0.0,0.0,0.0,0.0,0.0,0.0,0.0,0.0,0.0,0.0,0.0,0.0,0.0,0.0,0.0,0.0,0.0,0.0,0.0,0.0,0.0,0.0,0.0,0.0,0.0,0.0,0.0,0.0,0.0,0.0,0.0,0.0,0.0,0.0,0.0,0.0,0.0,0.0,0.0,0.0,0.0,-4.9669,-4.932,0.0,0.0,0.0,0.0,0.0,0.0,0.0,0.0,0.0,0.0,0.0,0.0,0.0,0.0,0.0,0.0,0.0,0.0,0.0,0.0,0.0,0.0,0.0,0.0,0.0,0.0,0.0,0.0,0.0,0.0,0.0,0.0,0.0,0.0,0.0,0.0,0.0,0.0,0.0,0.0,0.0,0.0,0.0,0.0,0.0,0.0,0.0,0.0,0.0,0.0,0.0,0.0,0.0,0.0,0.0,0.0,0.0,0.0,0.0,0.0,0.0,0.0,0.0,0.0,0.0,0.0,0.0,0.0,0.0,0.0,0.0,0.0,0.0,0.0,0.0,0.0,0.0,0.0,0.0,0.0,0.0,0.0,0.0,0.0,0.0,0.0,0.0,0.0,0.0,0.0,0.0,0.0,0.0,0.0,0.0,0.0,0.0,0.0,0.0,0.0,0.0,0.0,0.0,0.0,0.0,0.0,0.0,0.0,-4.986,-5.1294,-5.3297,-5.173,-5.1352,-5.1875,-5.0801,-4.9872,-4.9117,-4.964,0.0,0.0,0.0,0.0,0.0,0.0,0.0,0.0,0.0,0.0,0.0,0.0,0.0,0.0,0.0,0.0,0.0,0.0,0.0,0.0,0.0,0.0,0.0,0.0,0.0,0.0,0.0,0.0,0.0,0.0,0.0,0.0,0.0,0.0,0.0,0.0,0.0,0.0,-3.6985,-3.6496,-3.6601,-3.7273,0.0,0.0,0.0,0.0,0.0,0.0,0.0,0.0,0.0,0.0,0.0,0.0,0.0,0.0,0.0,0.0,0.0,0.0,0.0,0.0,0.0,0.0,0.0,0.0,0.0,0.0,0.0,0.0,0.0,0.0,0.0,0.0,0.0,0.0,0.0,0.0,0.0,0.0,0.0,0.0,0.0,0.0,0.0,0.0,-3.6908,-3.7487,0.0,0.0,0.0,0.0,0.0,0.0,0.0,0.0,0.0,0.0,0.0,0.0,0.0,-4.57,-4.5264,-4.8256,-4.9498,-4.9103,-5.1212,-5.242,-5.2688,-5.2478,-5.2659,-5.3268,-5.3094,0.0,-5.0423,-5.0511,0.0,0.0,0.0,0.0,0.0,0.0,0.0,0.0,0.0,0.0,0.0,0.0,0.0,0.0,0.0,0.0,0.0,0.0,0.0,0.0,0.0,0.0,0.0,0.0,0.0,0.0,0.0,0.0,0.0,0.0,0.0,0.0,0.0,0.0,0.0,0.0,-3.7482,-3.7325,-3.7011,-3.6929,-3.7111,-3.7534,-3.78,-3.8163,-3.8658,-3.8972,0.0,0.0,0.0,0.0,0.0,0.0,0.0,0.0,0.0,0.0,0.0,0.0,0.0,0.0,0.0,0.0,0.0,0.0,0.0,0.0,0.0,0.0,0.0,0.0,0.0,0.0,0.0,0.0,0.0,0.0,0.0,0.0,0.0,0.0,0.0,0.0,0.0,0.0,0.0,-3.6885,-3.809,-3.8015,-3.8567,-3.8617,0.0,0.0,0.0,0.0,0.0,0.0,0.0,0.0,0.0,-4.6062,-4.8045,-4.907,-4.9072,-5.1421,-5.2607,-5.2665,-5.3666,-5.4546,-5.5213,-5.4865,-5.4865,-5.5126,-5.5126,-5.4458,-5.3239,-5.2165,-5.1527,-5.1149,0.0,0.0,0.0,0.0,-4.9988,-5.0249,0.0,0.0,0.0,0.0,0.0,0.0,0.0,0.0,0.0,0.0,0.0,0.0,0.0,0.0,0.0,-3.952,0.0,0.0,0.0,0.0,0.0,0.0,0.0,0.0,0.0,0.0,0.0,0.0,-3.7691,-3.7665,-3.7246,-3.7326,-3.7482,-3.7665,-3.7482,-3.756,-3.7926,-3.8344,-3.9111,0.0,0.0,0.0,0.0,0.0,0.0,0.0,0.0,0.0,0.0,0.0,0.0,0.0,0.0,0.0,0.0,0.0,0.0,0.0,0.0,0.0,0.0,0.0,0.0,0.0,0.0,0.0,0.0,0.0,0.0,0.0,0.0,0.0,0.0,0.0,0.0,0.0,0.0,-3.7889,-3.9019,-3.8316,-3.9597,-3.9973,0.0,0.0,0.0,0.0,0.0,0.0,-4.4811,-4.588,-4.7356,-4.9502,-5.1084,-5.2102,-5.2618,-5.4201,-5.53,-5.5881,-5.5881,-5.6374,-5.7274,-5.6839,-5.6636,-5.6636,-5.6636,-5.6258,-5.5533,-5.3588,-5.263,-5.2252,-5.1294,-5.1004,-5.117,-5.0801,-5.0772,-5.0946,0.0,0.0,0.0,0.0,0.0,0.0,0.0,0.0,0.0,0.0,0.0,0.0,0.0,0.0,-3.837,-3.952,-3.9024,-3.8684,0.0,0.0,0.0,0.0,0.0,0.0,0.0,0.0,0.0,-3.7848,-3.79,-3.7874,-3.7848,-3.7299,-3.7037,-3.7037,-3.7037,-3.7377,-3.79,-3.7926,-3.8766,-4.0178,0.0,0.0,0.0,0.0,0.0,0.0,0.0,0.0,0.0,0.0,0.0,0.0,0.0,0.0,0.0,0.0,0.0,0.0,0.0,0.0,0.0,0.0,0.0,0.0,0.0,0.0,0.0,0.0,0.0,0.0,0.0,0.0,0.0,0.0,0.0,0.0,0.0,0.0,0.0,-3.8969,-4.1178,0.0,0.0,0.0,0.0,-4.2864,-4.3546,-4.4917,-4.7372,-4.9535,-5.0635,-5.0535,-5.2988,-5.4504,-5.4838,-5.5832,-5.6607,-5.7216,-5.7216,-5.7245,-5.7303,-5.7274,-5.7245,-5.7245,-5.7245,-5.6926,-5.62,-5.4255,-5.382,-5.4168,-5.231,-5.1933,-5.2391,-5.117,-5.1062,-5.1497,0.0,0.0,0.0,0.0,0.0,0.0,0.0,0.0,0.0,0.0,0.0,0.0,0.0,0.0,0.0,0.0,-3.8527,-3.8344,-3.8684,0.0,0.0,0.0,0.0,0.0,0.0,0.0,0.0,0.0,-3.79,-3.79,-3.79,-3.7691,-3.7586,-3.7586,-3.7586,-3.7717,-3.7946,-3.8504,-3.939,-4.0535,-4.1924,-4.3135,0.0,0.0,0.0,0.0,0.0,0.0,0.0,0.0,0.0,0.0,0.0,0.0,0.0,0.0,0.0,0.0,0.0,0.0,0.0,0.0,0.0,0.0,0.0,0.0,0.0,0.0,0.0,0.0,0.0,0.0,0.0,0.0,0.0,0.0,0.0,0.0,0.0,-4.3087,-4.54,0.0,-4.483,-4.5469,-4.633,-4.7244,-4.8272,-4.9692,-5.1514,-5.2842,-5.3789,-5.4357,-5.5632,-5.658,-5.7105,-5.745,-5.7739,-5.7942,-5.7942,-5.771,-5.7303,-5.7739,-5.771,-5.7332,-5.7768,-5.7594,-5.6897,-5.5823,-5.5271,-5.4981,-5.3907,-5.3355,-5.3123,-5.2659,-5.2659,-5.2804,0.0,0.0,0.0,0.0,0.0,0.0,0.0,0.0,0.0,0.0,0.0,0.0,0.0,0.0,0.0,0.0,0.0,0.0,-3.8423,0.0,0.0,0.0,0.0,0.0,0.0,0.0,0.0,0.0,0.0,0.0,0.0,-3.8292,-3.837,-3.8187,-3.8397,-3.837,-3.828,-3.9708,-4.0403,-4.0745,-4.2378,-4.3549,-4.4167,0.0,0.0,0.0,0.0,0.0,0.0,0.0,0.0,0.0,0.0,0.0,0.0,0.0,0.0,0.0,0.0,0.0,0.0,0.0,0.0,0.0,0.0,0.0,0.0,0.0,0.0,0.0,0.0,0.0,0.0,0.0,0.0,0.0,0.0,-4.3022,-4.5208,-4.5204,-4.8042,-4.9442,-4.8137,-4.9425,-5.071,-5.1543,-5.2296,-5.3501,-5.5225,-5.5676,-5.6072,-5.6555,-5.7044,-5.7566,-5.8118,-5.803,-5.8087,-5.829,-5.8058,-5.7739,-5.7332,-5.7768,-5.771,-5.7332,-5.7768,-5.771,-5.7274,-5.6868,-5.6432,-5.5968,-5.5126,-5.4691,-5.4458,-5.4226,-5.4139,-5.4168,0.0,0.0,0.0,0.0,0.0,0.0,0.0,0.0,0.0,0.0,0.0,0.0,0.0,0.0,0.0,0.0,0.0,0.0,0.0,0.0,0.0,0.0,0.0,0.0,0.0,0.0,0.0,0.0,0.0,0.0,0.0,0.0,0.0,-3.8762,-3.9337,-3.9259,-3.8903,-4.1424,-4.1783,-4.0801,-4.2378,-4.3549,-4.4317,0.0,0.0,0.0,0.0,0.0,0.0,0.0,0.0,0.0,0.0,0.0,0.0,0.0,0.0,0.0,0.0,0.0,0.0,0.0,0.0,0.0,0.0,0.0,0.0,0.0,0.0,0.0,0.0,0.0,0.0,0.0,0.0,0.0,-4.1277,-4.5103,-4.7399,-4.512,-4.898,-5.1215,-4.9594,-5.1179,-5.3281,-5.5673,-5.5552,-5.6243,-5.8262,-5.8061,-5.76,-5.7023,-5.7221,-5.7539,-5.7859,-5.7568,-5.7739,-5.8319,-5.7681,-5.7361,-5.7332,-5.7303,-5.7303,-5.7332,-5.7303,-5.7303,-5.7303,-5.7303,-5.7303,-5.7187,-5.5939,-5.5852,-5.6316,-5.5678,-5.5416,-5.5471,0.0,0.0,0.0,0.0,0.0,0.0,0.0,0.0,0.0,0.0,0.0,0.0,0.0,0.0,0.0,0.0,0.0,0.0,0.0,0.0,0.0,0.0,0.0,0.0,0.0,0.0,0.0,0.0,0.0,0.0,0.0,0.0,0.0,0.0,-3.9076,-3.9102,-3.9506,-4.159,-4.2289,-4.21,-4.3387,-4.4113,-4.4257,0.0,0.0,0.0,0.0,0.0,0.0,0.0,0.0,0.0,0.0,0.0,0.0,0.0,0.0,0.0,0.0,0.0,0.0,0.0,0.0,0.0,0.0,0.0,0.0,0.0,0.0,0.0,0.0,0.0,0.0,0.0,-4.7651,-4.8992,-4.7136,-4.9932,-5.183,-5.0997,-5.326,-5.4719,-5.4235,-5.5579,-5.7161,-5.8837,-5.9119,-5.9322,-5.9625,-5.9361,-5.9013,-5.8668,-5.9132,-5.9422,-5.9566,-5.9915,-5.9771,-5.9016,-5.8842,-5.8493,-5.8,-5.7536,-5.7565,-5.8,-5.7507,-5.7303,-5.7303,-5.7303,-5.7303,-5.7274,-5.6926,-5.6636,-5.6374,-5.62,-5.5823,-5.5529,0.0,0.0,0.0,0.0,0.0,0.0,0.0,0.0,0.0,0.0,0.0,0.0,0.0,0.0,0.0,0.0,0.0,0.0,0.0,0.0,0.0,0.0,0.0,0.0,0.0,0.0,0.0,0.0,0.0,0.0,0.0,0.0,0.0,0.0,0.0,-3.986,-4.0062,-4.184,-4.2711,-4.2975,-4.4078,-4.4573,-4.4646,-4.3947,-4.3708,-4.3678,-4.3379,-4.3529,-4.3898,-4.3898,0.0,0.0,0.0,0.0,0.0,0.0,0.0,0.0,0.0,0.0,0.0,0.0,0.0,0.0,0.0,0.0,0.0,0.0,0.0,0.0,0.0,0.0,0.0,0.0,-5.1366,-5.3345,-5.3501,-5.4435,-5.4998,-5.457,-5.6233,-5.7374,-5.7374,-5.8559,-5.9715,-6.0553,-6.0892,-6.0802,-6.0235,-6.0401,-6.0225,-5.9713,-6.0293,-6.0613,-6.0613,-6.099,-6.07,-5.9684,-5.9684,-5.919,-5.829,-5.7913,-5.7768,-5.7855,-5.7477,-5.7303,-5.7303,-5.7303,-5.7303,-5.7303,0.0,0.0,0.0,0.0,-5.6604,-5.6479,0.0,0.0,0.0,0.0,0.0,0.0,0.0,0.0,0.0,0.0,0.0,0.0,0.0,0.0,0.0,0.0,0.0,0.0,0.0,0.0,0.0,0.0,0.0,0.0,0.0,0.0,0.0,0.0,0.0,0.0,0.0,0.0,0.0,0.0,0.0,0.0,-4.0589,-4.2086,-4.2936,-4.3395,-4.4407,-4.5022,-4.5334,-4.4586,-4.4317,-4.4227,-4.3439,-4.323,-4.329,-4.32,0.0,0.0,0.0,0.0,0.0,0.0,0.0,0.0,0.0,0.0,0.0,0.0,0.0,0.0,0.0,0.0,0.0,0.0,0.0,0.0,0.0,0.0,0.0,0.0,-5.5039,-5.739,-5.9248,-5.8449,-5.7383,-5.6639,-5.807,-5.9121,-5.9121,-6.0226,-6.1041,-6.128,-6.1441,-6.1238,-6.0467,-6.1123,0.0,0.0,0.0,-6.128,-6.1193,-6.1338,-6.099,-6.0206,-6.0206,-5.9568,-5.8406,-5.8261,-5.7913,-5.7419,-5.7332,-5.7303,-5.7303,-5.7303,-5.7303,-5.7303,-5.7303,-5.7303,-5.7303,-5.7303,-5.7472,-5.7836,0.0,0.0,0.0,0.0,0.0,0.0,0.0,0.0,0.0,0.0,0.0,0.0,0.0,0.0,0.0,0.0,0.0,0.0,0.0,0.0,0.0,0.0,0.0,0.0,0.0,0.0,0.0,0.0,0.0,0.0,0.0,0.0,0.0,0.0,0.0,0.0,-4.1165,-4.1721,-4.2324,-4.3053,-4.431,-4.5316,-4.5992,-4.4766,-4.4317,-4.4167,-4.297,-4.288,-4.323,-4.2731,-4.2821,-4.314,-4.326,0.0,0.0,0.0,0.0,0.0,0.0,0.0,0.0,0.0,0.0,0.0,0.0,0.0,0.0,0.0,0.0,0.0,0.0,0.0,0.0,-5.4487,-5.7042,-5.9248,-6.0642,-6.0576,-5.9972,-5.8675,-5.8849,-5.9121,-5.9121,-5.9369,-6.0152,-6.18,-6.151,-6.1423,-6.1716,-6.1452,-6.1191,-6.1019,-6.16,-6.1687,-6.1193,-6.2209,-6.189,-6.0206,-6.0206,0.0,-5.9074,-5.8,-5.771,-5.8087,-5.7536,-5.7303,-5.7303,-5.7303,-5.7303,-5.7303,-5.7303,-5.7303,-5.7303,-5.7303,-5.7472,-5.7836,0.0,0.0,0.0,0.0,0.0,0.0,0.0,0.0,0.0,0.0,0.0,0.0,0.0,0.0,0.0,0.0,0.0,0.0,0.0,0.0,0.0,0.0,0.0,0.0,0.0,0.0,0.0,0.0,0.0,0.0,0.0,0.0,0.0,0.0,0.0,0.0,0.0,-4.1478,-4.2016,-4.2861,-4.3528,-4.4703,-4.5975,-4.5138,-4.4586,-4.4227,-4.3569,-4.3329,-4.329,-4.3329,-4.312,-4.2851,-4.2851,-4.2611,-4.247,0.0,0.0,0.0,0.0,0.0,0.0,0.0,0.0,0.0,0.0,0.0,0.0,0.0,0.0,-4.874,-5.0365,0.0,-5.472,-5.6984,-5.8697,-6.009,-6.1048,-6.1193,-6.0952,-6.0226,-6.0165,-6.0165,-6.0165,-6.0165,-6.0553,-6.1568,-6.1658,-6.1658,-6.1658,-6.1977,-6.2006,-6.1658,-6.2267,-6.2441,-6.2151,-6.279,-6.2441,-6.1135,-6.1135,-6.0496,-5.9277,-5.861,-5.8116,-5.7768,-5.7448,-5.7303,-5.7274,-5.6984,-5.7042,-5.7274,-5.6984,-5.7042,-5.7303,-5.7472,-5.7781,-5.8059,0.0,0.0,0.0,0.0,0.0,0.0,0.0,0.0,0.0,0.0,0.0,0.0,0.0,0.0,0.0,0.0,0.0,0.0,0.0,0.0,0.0,0.0,0.0,0.0,0.0,0.0,0.0,0.0,0.0,0.0,0.0,0.0,0.0,0.0,0.0,0.0,0.0,0.0,-4.1769,-4.2501,-4.2744,-4.3768,-4.5228,-4.5224,-4.4989,-4.4676,-4.4407,-4.3917,-4.3559,-4.3988,-4.3509,-4.277,-4.277,-4.277,-4.277,-4.2692,-4.331,0.0,0.0,0.0,0.0,0.0,0.0,0.0,0.0,-4.5924,-4.6882,-4.9349,-5.0452,-5.1788,-5.44,-5.5591,-5.6897,-5.9103,-6.0003,-6.0584,-6.1106,-6.1309,-6.1367,-6.1367,-6.128,-6.1251,-6.1367,-6.128,-6.1309,-6.1542,-6.1774,-6.1745,-6.1396,-6.2238,-6.2412,-6.1745,-6.2383,-6.2674,-6.2529,-6.2674,-6.2441,-6.1919,-6.1774,-6.0874,-5.9306,-5.9161,-5.8464,-5.7303,-5.7303,-5.7303,-5.7274,-5.6781,-5.6868,-5.7245,-5.6781,-5.6924,-5.7416,-5.7725,-5.8003,-5.825,0.0,0.0,0.0,0.0,0.0,0.0,0.0,0.0,0.0,0.0,0.0,0.0,0.0,0.0,0.0,0.0,0.0,0.0,0.0,0.0,0.0,0.0,0.0,0.0,0.0,0.0,0.0,0.0,0.0,0.0,0.0,0.0,0.0,0.0,0.0,0.0,0.0,0.0,0.0,-4.1547,-4.2431,-4.2937,-4.3286,-4.4387,-4.5357,-4.5891,-4.4736,-4.4257,-4.4137,-4.3589,-4.3678,-4.4107,-4.4107,-4.4107,-4.4067,-4.3864,-4.3375,-4.2817,-4.2514,-4.2806,-4.3571,-4.5184,-4.5605,-4.6708,0.0,-5.1236,-5.1439,-5.3442,-5.4807,-5.5765,-5.6142,-5.7652,-5.9132,-5.9974,-6.0642,-6.1106,-6.1193,-6.1658,-6.2006,-6.2006,-6.1513,-6.1396,-6.1948,-6.1513,-6.1658,-6.279,-6.189,-6.1513,-6.1977,-6.1629,-6.1106,-6.0438,-6.1048,-6.1135,-6.0526,-6.1106,-6.1367,-6.128,-6.07,-6.0032,-5.9277,-5.8697,-5.8,-5.7303,-5.7303,-5.7303,-5.7303,-5.7245,-5.7245,-5.7303,-5.7216,-5.7414,-5.7725,-5.7781,-5.8003,-5.825,0.0,0.0,0.0,0.0,0.0,0.0,0.0,0.0,0.0,0.0,0.0,0.0,0.0,0.0,0.0,0.0,0.0,0.0,0.0,0.0,0.0,0.0,0.0,0.0,0.0,0.0,0.0,0.0,0.0,0.0,0.0,0.0,0.0,0.0,0.0,0.0,0.0,0.0,0.0,0.0,-4.2724,-4.3436,-4.4192,-4.4376,-4.5214,-4.6202,-4.5214,-4.4377,0.0,0.0,-4.3798,-4.3708,-4.3708,-4.3668,-4.3518,-4.3437,-4.3364,-4.3384,-4.3939,-4.4647,-4.5518,-4.6708,-4.784,-4.9349,-5.1962,-5.2659,-5.3471,-5.6171,-5.7448,-5.8319,-5.9074,-5.9858,-6.0496,-6.0729,-6.1019,-6.1193,-6.1193,-6.1425,-6.1309,-6.0555,-6.0555,-6.1164,-6.2529,-6.2093,-6.1948,-6.247,-6.1687,-6.1309,-6.1542,-6.1338,-6.0874,-6.0206,-6.0845,-6.0874,-6.0206,-6.0874,-6.099,-6.0613,-6.0322,-5.9684,-5.8726,-5.8435,-5.7942,-5.7274,-5.6926,-5.6781,-5.6723,-5.5997,-5.5881,-5.6171,-5.5823,-5.6045,-5.6669,-5.7243,-5.7664,-5.7878,0.0,0.0,0.0,0.0,0.0,0.0,0.0,0.0,0.0,0.0,0.0,0.0,0.0,0.0,0.0,0.0,0.0,0.0,0.0,0.0,0.0,0.0,0.0,0.0,0.0,0.0,0.0,0.0,0.0,0.0,0.0,0.0,0.0,0.0,0.0,0.0,0.0,0.0,0.0,0.0,0.0,-4.3621,-4.4725,-4.4153,-4.4649,-4.5552,-4.5191,-4.4407,0.0,0.0,-4.3798,-4.3559,-4.3519,-4.3518,-4.3515,-4.3216,-4.316,-4.3554,-4.4849,-4.5972,-4.7114,-4.8275,-5.0162,-5.2107,-5.3559,-5.4517,-5.5881,-5.8552,-5.948,-6.0119,-6.1019,-6.1193,-6.1193,-6.1193,-6.1193,-6.1193,-6.1193,-6.1048,-6.0584,-5.9655,-5.98,-6.0555,-6.2151,-6.1861,-6.1803,-6.2325,-6.1658,-6.1193,-6.1193,-6.1193,-6.0874,-6.0206,-6.0845,-6.0787,-5.9974,-6.0787,-6.0874,-6.0206,-6.0206,-5.9626,-5.8552,-5.8029,-5.7507,-5.7013,-5.6403,-5.6142,-5.6055,-5.5126,-5.501,-5.5358,-5.4923,-5.5226,-5.6011,-5.6496,-5.7,-5.7357,0.0,0.0,0.0,0.0,0.0,0.0,0.0,0.0,0.0,0.0,0.0,0.0,0.0,0.0,0.0,0.0,0.0,0.0,0.0,0.0,0.0,0.0,0.0,0.0,0.0,0.0,0.0,0.0,0.0,0.0,0.0,0.0,0.0,0.0,0.0,0.0,0.0,0.0,0.0,0.0,0.0,0.0,-4.3677,-4.3426,-4.3588,-4.392,-4.4228,0.0,0.0,0.0,-4.3738,-4.4246,-4.4043,-4.4406,0.0,-4.3713,-4.2794,-4.2569,-4.4429,-4.5837,-4.7433,-4.9959,-5.2514,-5.4894,-5.6723,-5.8174,-5.951,-6.0845,-6.1135,-6.1164,-6.1193,-6.1193,-6.1193,-6.1193,-6.1193,-6.1193,-6.1193,-6.0642,-6.0206,-6.0177,-5.9684,-5.9568,-6.0235,-6.0264,-6.1048,-6.2935,-6.189,-6.1193,-6.1193,-6.1193,-6.0874,-6.0206,-6.0845,-6.0584,-5.9335,-6.0584,-6.0874,-6.0206,-6.0206,-5.9858,-5.9219,-5.7332,-5.6461,-5.6403,-5.5736,-5.5445,-5.5445,-5.5387,-5.5387,-5.5416,-5.5387,-5.5767,-5.619,-5.5601,-5.5936,-5.6763,0.0,0.0,0.0,0.0,0.0,0.0,0.0,0.0,0.0,0.0,0.0,0.0,0.0,0.0,0.0,0.0,0.0,0.0,0.0,0.0,0.0,0.0,0.0,0.0,0.0,0.0,0.0,0.0,0.0,0.0,0.0,0.0,0.0,0.0,0.0,0.0,0.0,0.0,0.0,0.0,0.0,0.0,-4.6084,-4.3585,-4.3801,-4.5348,0.0,0.0,0.0,0.0,0.0,-4.4102,-4.3856,-4.3543,-4.3231,-4.3144,-4.3542,-4.4269,-4.5779,-4.8043,-5.0423,-5.2136,-5.4487,-5.6781,-5.829,-5.9277,-6.0032,-6.0438,-5.9858,-5.9132,-5.8697,-5.861,-5.8755,-5.919,-6.0351,-6.1048,-6.0584,-6.1454,-6.1019,-5.8029,-5.8639,-5.9045,-5.8348,-5.9451,-6.0642,-6.1745,-6.1803,-6.1629,-6.1222,-6.1571,-6.1309,-6.0235,-6.0409,-6.0148,-5.9306,-6.0119,-6.0206,-5.9597,-5.9161,-5.8842,-5.861,-5.7507,-5.7013,-5.6955,-5.6345,-5.6084,-5.6026,-5.5591,-5.5184,-5.4807,-5.5022,-5.5049,-5.5004,-5.4983,-5.53,-5.5684,0.0,0.0,0.0,0.0,0.0,0.0,0.0,0.0,0.0,0.0,0.0,0.0,0.0,0.0,0.0,0.0,0.0,0.0,0.0,0.0,0.0,0.0,0.0,0.0,0.0,0.0,0.0,0.0,0.0,0.0,0.0,0.0,0.0,0.0,0.0,0.0,0.0,0.0,0.0,0.0,0.0,0.0,-4.6833,-4.4196,-4.4284,0.0,0.0,0.0,0.0,0.0,-4.3979,-4.3826,-4.3384,-4.2972,-4.2765,-4.347,-4.4589,-4.5953,-4.7724,-5.0191,-5.2659,-5.4168,-5.6113,-5.7942,-5.9045,-5.9422,-5.9597,-5.9829,-5.8493,-5.7216,-5.7013,-5.6607,-5.652,-5.7158,-5.8319,-5.9306,-5.98,-6.0148,-5.9626,-5.7681,-5.7942,-5.8,-5.7361,-5.8639,-5.9974,-6.1106,-6.1338,-6.1367,-6.1222,-6.1571,-6.1396,-6.0584,-6.0555,-6.0148,-5.9306,-5.9887,-5.9771,-5.8958,-5.8755,-5.8406,-5.7913,-5.7274,-5.6984,-5.6955,-5.6316,-5.5939,-5.5707,-5.5271,-5.4773,-5.4298,-5.4457,-5.4508,-5.4487,-5.4722,-5.4955,-5.5179,0.0,0.0,0.0,0.0,0.0,0.0,0.0,0.0,0.0,0.0,0.0,0.0,0.0,0.0,0.0,0.0,0.0,0.0,0.0,0.0,0.0,0.0,0.0,0.0,0.0,0.0,0.0,0.0,0.0,0.0,0.0,0.0,0.0,0.0,0.0,0.0,0.0,0.0,0.0,0.0,0.0,0.0,-4.5922,-4.4948,0.0,0.0,0.0,0.0,0.0,0.0,-4.3874,-4.3578,-4.2726,-4.2752,-4.334,-4.4705,-4.6011,-4.7579,-5.0133,-5.2223,-5.411,-5.5939,-5.7361,-5.8464,-5.9074,-5.8726,-5.8435,-5.8958,-5.7042,-5.5416,-5.5968,-5.5126,-5.4575,-5.5213,-5.5474,-5.649,-5.8958,-5.7274,-5.6665,-5.8987,-5.7681,-5.681,-5.7303,-5.7942,-5.9103,-6.1019,-6.0584,-6.0526,-6.1222,-6.128,-6.1309,-6.1309,-6.1251,-6.0671,-5.9451,-5.9974,-5.9626,-5.8464,-5.9016,-5.8639,-5.739,-5.6752,-5.6461,-5.6432,-5.5794,-5.5155,-5.4604,-5.4604,-5.4357,-5.3948,-5.3948,-5.4311,-5.4803,-5.4803,-5.5006,-5.5179,0.0,0.0,0.0,0.0,0.0,0.0,0.0,0.0,0.0,0.0,0.0,0.0,0.0,0.0,0.0,0.0,0.0,0.0,0.0,0.0,0.0,0.0,0.0,0.0,0.0,0.0,0.0,0.0,0.0,0.0,0.0,0.0,0.0,0.0,0.0,0.0,0.0,0.0,0.0,0.0,0.0,0.0,-4.6061,0.0,0.0,0.0,0.0,0.0,0.0,0.0,0.0,-4.3889,-4.3672,-4.3964,-4.485,-4.7085,-4.8682,-5.0162,-5.2223,-5.4197,-5.5794,-5.6287,-5.7361,-5.8203,-5.7884,-5.8058,-5.7826,-5.6084,-5.4429,-5.292,-5.1643,-5.1933,-5.2717,-5.382,-5.6432,-5.8552,-5.9219,-6.0351,-6.0496,-5.8755,-5.8958,-5.8929,-5.8116,-5.8203,-5.89,-6.0351,-6.0758,-6.1222,-6.1832,-6.2325,-6.2616,-6.2616,-6.2122,-6.1716,-6.1396,-6.1077,-6.0787,-6.0438,-5.9684,-5.9132,-5.8755,-5.7594,-5.7071,-5.7071,-5.6897,-5.649,-5.5939,-5.5939,-5.5405,-5.465,-5.4861,-5.4879,-5.4803,-5.5027,-5.5128,-5.5179,0.0,0.0,0.0,0.0,0.0,0.0,0.0,0.0,0.0,0.0,0.0,0.0,0.0,0.0,0.0,0.0,0.0,0.0,0.0,0.0,0.0,0.0,0.0,0.0,0.0,0.0,0.0,0.0,0.0,0.0,0.0,0.0,0.0,0.0,0.0,0.0,0.0,0.0,0.0,0.0,0.0,0.0,0.0,0.0,0.0,0.0,0.0,0.0,0.0,0.0,0.0,-4.4589,-4.5721,-4.6505,-4.7491,-5.0075,-5.173,-5.3065,-5.44,-5.5997,-5.7158,-5.6868,-5.7332,-5.7623,-5.6694,-5.6316,-5.5649,-5.3646,-5.1759,-5.022,-4.9436,-4.9872,-5.0772,-5.2049,-5.5039,-5.7594,-5.8697,-6.0351,-6.0961,-5.9713,-6.0206,-6.0235,-5.9219,-5.9132,-5.9655,-6.0932,-6.1135,-6.1454,-6.2064,-6.2732,-6.308,-6.308,-6.2732,-6.2267,-6.1716,-6.1367,-6.0932,-6.0351,-5.9916,-5.9393,-5.8842,-5.8087,-5.7281,-5.648,-5.7078,-5.6646,-5.5535,-5.5445,-5.4976,-5.4269,-5.3737,-5.3497,-5.3471,-5.36,-5.3652,-5.3652,0.0,0.0,0.0,0.0,0.0,0.0,0.0,0.0,0.0,0.0,0.0,0.0,0.0,0.0,0.0,0.0,0.0,0.0,0.0,0.0,0.0,0.0,0.0,0.0,0.0,0.0,0.0,0.0,0.0,0.0,0.0,0.0,0.0,0.0,0.0,0.0,0.0,0.0,0.0,0.0,0.0,0.0,0.0,0.0,0.0,0.0,0.0,0.0,0.0,0.0,-4.6534,-4.5953,-4.8449,-4.9727,-5.0801,-5.3297,-5.4807,-5.5823,-5.6578,-5.7536,-5.8174,-5.7681,-5.7361,-5.6868,-5.5591,-5.4313,-5.2949,-5.141,-4.9349,-4.7898,-4.8275,-4.8478,-4.9117,-5.0656,-5.2949,-5.5503,-5.829,-5.919,-6.0032,-6.1309,-6.1367,-6.1135,-6.0642,-6.0496,-6.0932,-6.2122,-6.1832,-6.1803,-6.2325,-6.2906,-6.3254,-6.3341,-6.3341,-6.279,-6.16,-6.1483,-6.0845,-5.9684,-5.9826,-5.9362,-5.8234,-5.7974,-5.6905,-5.5348,-5.6422,-5.5851,-5.4144,-5.3895,-5.361,-5.3094,-5.1763,-5.1429,-5.1674,-5.1674,-5.1674,-5.1674,0.0,0.0,0.0,0.0,0.0,0.0,0.0,0.0,0.0,0.0,-3.9913,-4.0697,0.0,0.0,0.0,0.0,0.0,0.0,0.0,0.0,0.0,0.0,0.0,0.0,0.0,0.0,0.0,0.0,0.0,0.0,0.0,0.0,0.0,0.0,0.0,0.0,0.0,0.0,0.0,0.0,0.0,0.0,0.0,0.0,0.0,0.0,0.0,0.0,0.0,0.0,-4.9524,-4.9233,-5.1265,-5.2717,-5.4081,-5.6055,-5.681,-5.7245,-5.8464,-5.8552,-5.8406,-5.8842,-5.7739,-5.6229,-5.4952,-5.3675,-5.1904,-4.903,-4.8101,-4.7491,-4.6563,-4.723,-4.8885,-5.1788,-5.353,-5.5968,-6.0119,-6.0787,-6.1338,-6.2616,-6.2267,-6.2122,-6.2558,-6.2093,-6.2093,-6.2848,-6.3312,-6.3603,-6.369,-6.3806,-6.4125,-6.4648,-6.4648,-6.4299,-6.3482,-6.3022,-6.2383,-6.16,-5.9472,-5.8358,-5.8071,-5.6415,-5.5251,-5.4521,-5.4704,-5.38,-5.2178,-5.2443,-5.204,-5.1294,-5.132,-5.1429,-5.1674,-5.1674,-5.1674,-5.1618,0.0,0.0,0.0,0.0,0.0,0.0,0.0,-3.8397,-3.9024,-3.8736,-3.9181,-3.9756,-4.0357,-4.0671,0.0,0.0,0.0,0.0,0.0,0.0,0.0,0.0,0.0,0.0,0.0,0.0,-3.8292,-3.8292,0.0,0.0,0.0,-3.9416,-3.9703,0.0,0.0,0.0,0.0,0.0,0.0,0.0,0.0,0.0,0.0,0.0,0.0,0.0,0.0,0.0,0.0,0.0,-5.0336,-5.1585,-5.3849,-5.5213,-5.6287,-5.7884,-5.8348,-5.8639,-5.9945,-6.0061,-5.98,-5.9771,-5.8319,-5.6287,-5.4023,-5.2223,-5.0299,-4.7375,-4.7056,-4.6998,-4.6069,-4.6753,-4.8161,-5.0208,-5.1542,-5.3806,-5.8089,-5.9616,-6.0876,-6.2409,-6.2877,-6.3109,-6.308,-6.279,-6.2877,-6.3545,-6.3864,-6.3975,-6.3975,-6.4357,-6.4677,-6.4967,-6.4996,-6.4677,-6.3975,-6.2652,-6.1708,-6.1051,-5.8627,-5.739,-5.6996,-5.5769,-5.4485,-5.3298,-5.3396,-5.2641,-5.1389,-5.1179,-5.0875,-5.056,-4.9921,-4.9786,-4.9872,-4.9872,-4.9872,-4.9791,0.0,0.0,0.0,0.0,0.0,0.0,0.0,-3.8004,-3.8187,-3.8501,-3.8841,-3.9155,-3.939,-4.0017,-3.9965,0.0,0.0,0.0,0.0,0.0,0.0,0.0,0.0,0.0,0.0,0.0,0.0,-3.7716,-3.7892,0.0,0.0,0.0,0.0,0.0,-3.9731,-3.979,0.0,0.0,0.0,0.0,0.0,-4.041,0.0,0.0,0.0,0.0,0.0,0.0,0.0,0.0,-4.9889,-5.1919,-5.4472,-5.6273,-5.771,-5.8784,-5.9393,-5.9886,-6.0687,-6.1126,-6.1191,-6.037,-5.8697,-5.6549,-5.3646,-5.1381,-4.9204,-4.6795,-4.6679,-4.6882,-4.6388,-4.6662,-4.7363,-4.8747,-4.9333,-5.1238,-5.5738,-5.7655,-5.9516,-6.1973,-6.3019,-6.3486,-6.3545,-6.337,-6.3574,-6.4183,-6.4241,-6.4183,-6.3975,-6.4364,-6.4589,-6.4793,-6.4303,-6.3938,-6.3769,-6.1598,-6.0309,-5.9807,-5.7585,-5.6289,-5.5633,-5.4922,-5.3636,-5.1972,-5.2156,-5.1607,-5.0542,-5.0095,-4.9887,-4.9796,-4.8647,-4.8172,-4.8172,-4.8172,-4.8172,-4.8094,0.0,0.0,0.0,0.0,0.0,0.0,0.0,-3.8318,-3.8475,-3.8031,-3.9311,-3.9886,-3.8893,-3.9756,-3.9965,0.0,0.0,0.0,0.0,0.0,0.0,0.0,0.0,0.0,0.0,0.0,0.0,-3.7155,-3.7694,0.0,0.0,0.0,0.0,0.0,0.0,-3.906,-3.9296,0.0,0.0,0.0,0.0,0.0,0.0,0.0,0.0,0.0,0.0,0.0,0.0,0.0,0.0,-4.8322,-5.082,-5.4629,-5.8232,-5.8348,0.0,0.0,-6.0234,-6.0994,-6.1672,-6.0256,-5.8594,-5.6781,-5.4778,-5.2397,-5.0017,-4.8014,-4.7666,-4.7666,-4.7608,-4.6842,-4.6982,-4.9385,-4.8531,-4.9607,-5.5463,-5.5975,-5.7484,-6.2193,-6.2258,-6.275,-6.4636,-6.4299,-6.4212,-6.4851,-6.4909,-6.4648,-6.4004,-6.3342,-6.3334,-6.4091,-6.2096,-6.1611,-6.2915,-6.0303,-5.8973,-5.8919,-5.6359,-5.4879,-5.4236,-5.3007,-5.1756,-5.059,-5.0944,-5.0155,-4.8727,-4.9264,-4.8833,-4.799,-4.814,-4.8172,-4.8172,-4.8172,-4.8172,-4.8015,0.0,0.0,0.0,0.0,0.0,0.0,-3.7874,-3.837,-3.8632,-3.8423,-3.9285,-3.9756,-3.9311,-3.9651,-3.9599,0.0,0.0,0.0,0.0,0.0,0.0,0.0,0.0,0.0,0.0,0.0,-3.7366,-3.7108,-3.8056,0.0,0.0,0.0,0.0,0.0,0.0,-3.9346,-3.9804,-3.9701,0.0,0.0,0.0,0.0,0.0,0.0,0.0,0.0,0.0,0.0,-4.4238,0.0,0.0,0.0,-4.7485,-5.005,0.0,0.0,-5.6237,-5.7456,-5.8815,-5.9903,-6.044,-5.9852,-5.7356,-5.4611,-5.3104,-5.0037,-4.7365,-4.6878,-4.7108,-4.7279,-4.6832,-4.6203,-4.5949,-4.6503,0.0,0.0,-5.0794,-5.1632,-5.3524,-5.8338,-5.9256,-6.028,-6.2197,-6.2114,-6.2058,-6.2309,-6.2337,-6.2058,-6.1416,-6.2305,-6.2953,-6.3249,-6.1236,-6.0415,-6.0953,-5.8416,-5.7063,-5.6996,-5.478,-5.3572,-5.3343,-5.2169,-5.1373,-5.087,-4.9836,-4.9101,-4.8687,-4.8481,-4.8236,-4.7997,-4.8114,-4.8172,-4.8172,-4.8172,-4.7963,-4.7571,0.0,0.0,0.0,0.0,0.0,-3.79,-3.79,-3.8214,-3.8475,-3.8475,-3.8972,-3.9337,-3.9337,-3.9494,-3.9364,-3.8762,0.0,0.0,0.0,0.0,0.0,0.0,0.0,0.0,0.0,0.0,-3.7411,-3.713,-3.8276,-3.8632,0.0,0.0,-3.9702,-3.988,0.0,0.0,0.0,0.0,0.0,0.0,0.0,0.0,0.0,0.0,0.0,0.0,0.0,0.0,0.0,0.0,0.0,0.0,0.0,0.0,0.0,0.0,-5.3441,-5.5111,-5.6935,-5.8631,-5.9684,-5.8926,-5.6229,-5.3402,-5.1986,-4.8679,-4.601,-4.6117,-4.654,-4.6706,-4.6262,-4.568,-4.5121,0.0,0.0,-4.373,-4.743,-4.8373,-5.0341,-5.4924,-5.6181,-5.7497,-5.9643,-6.0321,-6.0414,-6.0,-6.0345,-6.0225,-5.9314,-6.0716,-6.1595,-6.183,-5.967,-5.8731,-5.9141,-5.6699,-5.5391,-5.4986,-5.3714,-5.2804,-5.2176,-5.1548,-5.1163,-5.0892,-4.9444,-4.8891,-4.8968,-4.8376,-4.8153,-4.8172,-4.8172,-4.8172,-4.8172,-4.8172,-4.7832,-4.7257,0.0,0.0,0.0,0.0,0.0,0.0,-3.79,-3.79,-3.7926,-3.7926,-3.8397,-3.871,-3.871,-3.9259,-3.9364,-3.8762,0.0,0.0,0.0,0.0,0.0,0.0,0.0,0.0,0.0,0.0,-3.7475,-3.7235,-3.8366,-3.8919,-3.8919,-3.9421,-3.9973,-4.0501,0.0,0.0,0.0,0.0,0.0,0.0,0.0,0.0,0.0,0.0,0.0,0.0,0.0,0.0,0.0,0.0,0.0,0.0,0.0,0.0,0.0,0.0,-5.2194,-5.5195,-5.434,-5.7277,-5.998,-5.7299,-5.5519,-5.3924,0.0,0.0,-4.7052,-4.6428,-4.6319,-4.6319,-4.6319,-4.5449,-4.4724,-4.4724,0.0,0.0,-4.6728,-4.7129,-4.8694,-5.2929,-5.3462,-5.4664,-5.7836,-5.9629,-6.0,-5.856,-5.9793,-5.9931,-5.8489,-5.8418,-5.8831,-5.9589,-5.6951,-5.6153,-5.7625,-5.5637,-5.4079,-5.2929,-5.3457,-5.2553,-5.0469,-5.1021,-5.0867,-5.0104,-4.9861,-4.9672,-4.9386,-4.9176,-4.8721,-4.8172,-4.8172,-4.8172,-4.8172,-4.8172,-4.7832,-4.7257,0.0,0.0,0.0,0.0,0.0,0.0,0.0,-3.8214,-3.8449,-3.8449,-3.8972,-3.9372,-3.957,-3.9414,-3.934,-3.9401,0.0,0.0,0.0,0.0,0.0,0.0,0.0,0.0,0.0,0.0,-3.7678,-3.7739,-3.927,-3.9998,-4.0023,-4.0953,-4.1534,-4.163,-4.1254,-4.1379,0.0,0.0,0.0,0.0,0.0,0.0,-4.1078,0.0,0.0,0.0,0.0,0.0,0.0,0.0,0.0,0.0,0.0,0.0,0.0,0.0,0.0,0.0,-5.0346,-5.1998,-5.3366,-5.2093,-5.0332,-4.8687,-4.8146,-4.6134,-4.4523,-4.5073,-4.5182,-4.5182,-4.5182,-4.494,-4.4658,-4.4622,-4.432,0.0,0.0,-4.6954,-4.8598,-5.1046,-5.3665,-5.5708,-5.6714,-5.7281,-5.7374,-5.6895,-5.7303,-5.74,-5.6895,-5.6539,-5.692,-5.818,-5.6028,-5.4895,-5.4911,-5.434,-5.3432,-5.2377,-5.2904,-5.2402,-5.0996,-5.0993,-5.0684,-5.0078,-4.9677,-4.9238,-4.879,-4.8577,-4.8355,-4.8172,-4.8172,-4.7937,-4.7649,-4.8041,-4.7336,-4.6186,0.0,0.0,0.0,0.0,0.0,0.0,0.0,-3.837,-3.8632,-3.8423,-3.8736,-3.9164,-3.9628,-3.9214,-3.9013,-3.9336,0.0,0.0,0.0,0.0,0.0,0.0,0.0,0.0,0.0,-3.7554,-3.8037,-3.8015,-4.0099,-4.1028,-4.0852,-4.1731,-4.2313,-4.2489,-4.1882,-4.1957,0.0,0.0,0.0,0.0,0.0,0.0,-4.163,0.0,0.0,0.0,0.0,0.0,0.0,0.0,0.0,0.0,0.0,0.0,0.0,0.0,-4.4367,-4.6175,0.0,-4.9113,-5.0293,-4.9741,-4.8083,0.0,-4.6351,-4.4593,-4.3184,-4.3932,-4.4042,-4.4042,-4.4042,-4.4042,-4.4053,-4.4004,-4.4192,0.0,-4.5372,-4.6878,-4.8611,-5.0519,-5.3406,-5.5265,-5.5265,-5.5842,-5.6219,-5.6219,-5.6219,-5.6118,-5.5917,-5.5566,-5.5593,-5.6122,-5.5107,-5.4285,-5.3708,-5.3909,-5.3281,-5.18,-5.2578,-5.2194,-5.0842,-5.0659,-5.0461,-5.0103,-4.9409,-4.8954,0.0,-4.8375,-4.8172,-4.8172,-4.8172,-4.7832,-4.733,-4.7728,-4.6917,-4.5663,0.0,0.0,0.0,0.0,0.0,0.0,0.0,0.0,-3.8606,-3.8037,-3.7932,-3.8257,-3.9088,-3.8674,-3.8424,-3.8723,0.0,0.0,0.0,0.0,0.0,0.0,0.0,0.0,0.0,-3.8064,-3.8617,-3.8115,-4.0855,-4.1856,-4.1351,-4.1907,-4.2464,-4.2836,-4.2414,-4.2464,0.0,0.0,0.0,0.0,-4.158,-4.1681,0.0,0.0,0.0,0.0,0.0,0.0,0.0,0.0,0.0,0.0,0.0,0.0,0.0,0.0,0.0,0.0,0.0,-4.7983,-4.9816,-4.9264,-4.7983,-4.6702,-4.62,-4.4468,0.0,-4.2986,-4.2986,-4.2986,-4.3037,-4.3011,-4.3011,-4.3137,-4.3614,-4.4367,-4.5447,-4.7104,-4.8987,-5.1096,-5.2854,-5.3833,-5.3708,-5.5214,-5.6219,-5.6219,-5.6219,-5.5968,-5.5415,-5.534,-5.4838,-5.3733,-5.421,-5.421,-5.3582,-5.416,-5.3356,-5.1222,-5.2302,-5.185,-5.0053,-5.0117,-5.0166,-5.0085,-4.9023,-4.8711,-4.8982,-4.8407,-4.8172,-4.8172,-4.8146,-4.778,-4.7226,-4.7226,-4.6552,-4.5503,0.0,0.0,0.0,0.0,0.0,0.0,0.0,0.0,0.0,0.0,-3.8532,-3.8545,-3.914,-3.8375,-3.7896,0.0,0.0,0.0,0.0,0.0,0.0,0.0,0.0,0.0,0.0,-3.8064,-3.9019,-3.9295,-4.0802,-4.1681,-4.1957,-4.2137,-4.2007,-4.1731,-4.2032,-4.1982,0.0,0.0,0.0,0.0,-4.1856,-4.1781,0.0,0.0,0.0,0.0,-4.2735,-4.2886,0.0,0.0,0.0,0.0,0.0,0.0,0.0,0.0,-4.3062,-4.3263,-4.3664,0.0,-4.5221,-4.4669,-4.4242,-4.3915,0.0,0.0,-4.2986,-4.2986,-4.2986,-4.3112,-4.3539,-4.3263,-4.3388,-4.4694,-4.5372,-4.5949,-4.6652,-4.9264,-5.1322,-5.185,-5.411,-5.5114,-5.3833,-5.5214,-5.6219,-5.6219,-5.6219,-5.5968,-5.5415,-5.4988,-5.4436,-5.3733,-5.3833,-5.3457,-5.2503,-5.303,-5.2402,-5.0619,-5.1564,-5.1155,-4.9444,-4.9973,-4.9806,-4.892,-4.8927,-4.8766,-4.8381,-4.825,-4.8172,-4.8146,-4.7702,-4.7179,-4.6682,-4.6682,-4.595,-4.4955,0.0,0.0,0.0,0.0,0.0,0.0,0.0,0.0,0.0,0.0,0.0,0.0,0.0,0.0,0.0,0.0,0.0,0.0,0.0,0.0,0.0,0.0,0.0,0.0,-3.6782,-3.8391,-3.927,-3.932,-4.0927,-4.1731,-4.1781,-4.153,-4.1505,-4.1731,-4.1756,-4.163,-4.1351,-4.2233,-4.2258,-4.1731,-4.2087,0.0,0.0,0.0,0.0,0.0,-4.2861,-4.2986,0.0,-4.2986,-4.2986,-4.2986,0.0,0.0,0.0,0.0,-4.2986,-4.2986,-4.2986,-4.3564,-4.4116,-4.3815,-4.374,-4.374,-4.374,0.0,0.0,0.0,0.0,-4.3062,-4.3363,-4.3388,-4.374,-4.4895,-4.5773,-4.6778,-4.8083,-5.0042,-5.1699,-5.2729,-5.416,-5.5013,-5.4863,-5.5666,-5.6118,-5.5842,-5.5842,-5.5465,-5.4662,-5.4336,-5.3909,-5.3356,-5.3105,-5.2703,-5.2126,-5.2653,-5.2143,-5.0615,-5.1114,-5.0766,-4.968,-4.9822,-4.9473,-4.8797,-4.8714,-4.8486,-4.8172,-4.8172,-4.8041,-4.7754,-4.7466,-4.6813,-4.6081,-4.6081,-4.5396,-4.4557,0.0,0.0,0.0,0.0,0.0,0.0,0.0,0.0,0.0,0.0,0.0,0.0,0.0,0.0,0.0,0.0,0.0,0.0,0.0,0.0,0.0,0.0,0.0,-3.6707,-3.7061,-3.8868,-3.9496,-3.8919,-4.1131,-4.1882,-4.1275,-4.0953,-4.1229,-4.2062,-4.1555,-4.1225,-4.12,-4.1882,-4.2213,-4.2213,-4.2313,0.0,0.0,0.0,0.0,0.0,0.0,0.0,0.0,-4.2986,-4.2986,-4.2986,-4.2986,0.0,0.0,0.0,0.0,0.0,-4.3187,-4.4041,-4.4794,-4.4468,-4.4443,-4.4468,-4.4392,0.0,0.0,0.0,0.0,0.0,-4.3187,-4.3614,-4.4141,-4.4769,-4.5899,-4.7481,-4.9791,-5.0519,-5.1498,-5.3356,-5.3808,-5.4461,-5.5717,-5.6068,-5.5993,-5.544,-5.539,-5.4888,-5.3758,-5.3708,-5.3432,-5.2829,-5.2352,-5.2026,-5.1917,-5.2395,-5.2001,-5.0749,-5.0803,-5.0601,-5.0136,-4.9628,-4.9179,-4.893,-4.8407,-4.8172,-4.8172,-4.8094,-4.778,-4.7252,-4.7096,-4.6417,-4.5555,-4.5477,-4.4947,-4.4313,0.0,0.0,0.0,0.0,0.0,0.0,0.0,0.0,0.0,0.0,0.0,0.0,0.0,0.0,0.0,0.0,0.0,0.0,0.0,0.0,0.0,0.0,-3.6857,-3.6885,-3.6531,-3.9044,-3.9898,-3.8919,-4.1131,-4.1882,-4.13,-4.1731,-4.1756,-4.1401,-4.1326,-4.1025,-4.0701,-4.1785,-4.2213,-4.2263,-4.266,0.0,0.0,0.0,0.0,0.0,0.0,0.0,0.0,-4.2986,-4.2986,-4.2986,-4.2986,0.0,0.0,0.0,0.0,0.0,-4.4116,-4.5196,-4.5598,-4.3689,-4.3589,-4.379,-4.3338,0.0,0.0,0.0,0.0,0.0,0.0,-4.4443,-4.4844,-4.5874,-4.738,-4.9339,-5.2026,-5.2477,-5.2678,-5.3005,-5.4285,-5.4863,-5.416,-5.5365,-5.5993,-5.544,-5.539,-5.4888,-5.3758,-5.3708,-5.3256,-5.2251,-5.2151,-5.1783,-5.1089,-5.1165,-5.0901,-5.0231,-5.0318,-5.0064,-4.9541,-4.9299,-4.8819,-4.8329,-4.8224,-4.8172,-4.8146,-4.7675,-4.7357,-4.7174,-4.6264,-4.5712,-4.5558,-4.5062,-4.4609,-4.4281,0.0,0.0,0.0,0.0,0.0,0.0,0.0,0.0,0.0,0.0,0.0,0.0,0.0,0.0,0.0,0.0,0.0,0.0,0.0,0.0,0.0,0.0,-3.7337,-3.7513,-3.7262,-3.9094,-3.9973,-3.9747,-4.1681,-4.2308,-4.1781,-4.1731,-4.158,-4.1275,-4.0974,-4.0874,-4.1003,-4.1806,-4.2213,-4.2263,0.0,0.0,0.0,0.0,0.0,0.0,0.0,0.0,0.0,0.0,-4.2986,-4.2986,-4.2986,0.0,0.0,0.0,0.0,0.0,-4.3589,-4.4342,-4.4769,-4.4041,-4.4744,-4.5296,-4.4141,0.0,0.0,0.0,0.0,0.0,0.0,-4.5999,-4.7054,-4.9113,-5.0569,-5.1574,-5.1975,-5.2302,-5.2603,-5.2904,-5.3858,-5.4637,-5.5013,-5.5491,-5.5541,-5.4988,-5.4662,-5.4135,-5.3331,-5.3281,-5.3055,-5.2578,-5.2153,-5.1798,-5.1398,-5.1112,-5.0716,-5.0241,-5.0271,-4.9949,-4.9213,-4.9132,-4.8747,-4.8172,-4.8172,-4.8015,-4.7702,-4.744,-4.6913,-4.6312,-4.5764,-4.5373,-4.5059,-4.4471,-4.4094,-4.3789,0.0,0.0,0.0,0.0,0.0,0.0,0.0,0.0,0.0,0.0,0.0,0.0,0.0,0.0,0.0,0.0,0.0,0.0,0.0,0.0,-3.6935,-3.7362,-3.7914,-3.8216,-3.8216,-3.9446,-4.0224,-4.0526,-4.2283,-4.2961,-4.259,-4.1831,-4.153,-4.1505,-4.0953,-4.1003,-4.1555,-4.1982,-4.2288,-4.2439,0.0,0.0,0.0,0.0,0.0,0.0,0.0,0.0,0.0,0.0,0.0,0.0,0.0,0.0,0.0,-4.2986,-4.2986,-4.3037,-4.3288,-4.3765,-4.4267,-4.4543,0.0,0.0,-4.5547,-4.5196,-4.5246,-4.6075,-4.5799,0.0,0.0,-4.7682,-4.9289,-5.1724,-5.3005,-5.3356,-5.2377,-5.2377,-5.2729,-5.3432,-5.3607,-5.426,-5.5691,-5.544,-5.4963,-5.4411,-5.3959,-5.3406,-5.2779,-5.2729,-5.2603,-5.242,-5.1899,-5.159,-5.166,-5.1305,-5.0835,-5.0266,-5.026,-4.9863,-4.927,-4.8982,-4.8695,-4.8381,-4.8094,-4.7728,-4.7252,-4.6991,-4.6365,-4.5611,-4.5425,-4.5085,-4.4531,-4.4138,-4.3755,-4.3351,0.0,0.0,0.0,0.0,0.0,0.0,0.0,0.0,0.0,0.0,0.0,0.0,0.0,0.0,0.0,0.0,0.0,0.0,0.0,0.0,-3.7914,-3.7939,-3.8492,-3.8869,-3.8869,-4.04,-4.0924,-4.0526,-4.2685,-4.3714,-4.3664,-4.2585,-4.2162,-4.2137,-4.153,-4.158,-4.2162,-4.2187,-4.2514,-4.2911,-4.2961,0.0,0.0,0.0,0.0,0.0,0.0,0.0,0.0,0.0,0.0,0.0,0.0,0.0,-4.2986,-4.2986,-4.2986,-4.3212,-4.4217,-4.492,-4.5246,-4.4744,-4.4342,0.0,-4.7129,-4.6903,-4.6627,-4.8209,-4.8083,-4.7707,-4.7782,-4.9138,-5.0645,-5.19,-5.3005,-5.4034,-5.4963,-5.4235,-5.3984,-5.5089,-5.431,-5.3959,-5.4612,-5.4637,-5.4386,-5.3808,-5.3733,-5.3256,-5.2226,-5.2176,-5.1833,-5.1104,-5.0977,-5.1022,-5.1123,-5.1109,-5.0835,-5.0328,-5.0028,-4.9897,-4.9793,-4.8721,-4.8538,-4.8956,-4.7858,-4.7304,-4.72,-4.6186,-4.5634,-4.5503,-4.5009,-4.4611,-4.431,-4.4296,-4.3919,-4.3402,0.0,0.0,0.0,0.0,0.0,0.0,0.0,0.0,0.0,0.0,0.0,0.0,0.0,0.0,0.0,0.0,0.0,0.0,0.0,0.0,-3.7638,-3.799,-3.8894,-3.9546,-3.9898,-4.0501,-4.1229,-4.2032,-4.3237,-4.379,-4.3765,-4.2333,-4.1656,-4.163,-4.1376,-4.1656,-4.2238,-4.2564,-4.2785,-4.2986,-4.2986,-4.2986,0.0,0.0,0.0,0.0,0.0,0.0,0.0,0.0,-4.2986,0.0,0.0,-4.2986,-4.2986,-4.2986,-4.2986,-4.3062,-4.3489,-4.4267,-4.4895,-4.4669,-4.4744,0.0,0.0,-4.7631,-4.8309,-4.9992,-5.0444,-5.0519,-5.0519,-5.1936,-5.3094,-5.3092,-5.431,-5.5039,-5.4436,-5.4587,-5.4637,-5.4386,-5.4285,-5.4336,-5.4536,-5.4235,-5.3934,-5.3708,-5.3406,-5.2904,-5.2151,-5.2304,-5.2127,-5.1499,-5.1535,-5.164,-5.1689,-5.1153,-5.0627,-5.0028,-5.0307,-4.9871,-4.8826,-4.8773,-4.846,-4.7963,-4.7519,-4.6887,-4.6182,-4.5764,-4.5401,-4.4981,-4.4609,-4.441,-4.43,-4.4306,-4.4232,-4.413,0.0,0.0,0.0,0.0,0.0,0.0,0.0,0.0,0.0,0.0,0.0,0.0,0.0,0.0,0.0,0.0,0.0,0.0,0.0,-3.7236,-3.7688,-3.8266,-3.9019,-3.9848,-4.0752,-4.0724,-4.158,-4.3237,-4.3614,-4.379,-4.3765,-4.2053,-4.1476,-4.1831,-4.1451,-4.1731,-4.2489,-4.2811,-4.2986,-4.2986,-4.2986,-4.2986,0.0,0.0,0.0,0.0,0.0,0.0,0.0,0.0,0.0,0.0,0.0,0.0,0.0,0.0,-4.2986,-4.2986,-4.2986,-4.3539,-4.4141,-4.4317,0.0,0.0,-4.7506,-4.8761,-5.0193,-5.2377,-5.3045,-5.3207,-5.3029,-5.4178,-5.4956,-5.4227,-5.5395,-5.574,-5.4205,-5.4486,-5.4561,-5.3783,-5.3909,-5.4059,-5.4059,-5.3683,-5.3457,-5.3457,-5.298,-5.2495,-5.201,-5.2051,-5.1895,-5.1597,-5.1486,-5.152,-5.1583,-5.0871,-5.0211,-4.9636,-5.0054,-4.9531,-4.8198,-4.8616,-4.8355,-4.7571,-4.6965,-4.6447,-4.5872,-4.5506,-4.5109,-4.4791,-4.4406,-4.4305,-4.432,-4.4618,-4.4414,-4.4192,0.0,0.0,0.0,0.0,0.0,0.0,0.0,0.0,0.0,0.0,0.0,0.0,0.0,0.0,0.0,0.0,0.0,0.0,0.0,-3.7387,-3.8266,-3.8894,-3.8919,-3.9647,-4.125,-4.1275,-4.2158,-4.3815,-4.379,-4.379,-4.374,-4.2108,-4.1907,-4.2911,-4.1831,-4.1957,-4.2961,-4.2986,-4.2986,-4.2986,-4.2986,-4.2986,-4.2986,0.0,0.0,0.0,0.0,0.0,0.0,0.0,-4.2986,0.0,0.0,0.0,0.0,0.0,-4.2986,-4.2986,-4.2986,-4.2986,-4.3112,-4.3664,0.0,0.0,-4.8837,-5.0469,-5.2226,-5.5541,-5.5925,-5.5565,-5.5125,-5.561,-5.5848,-5.5089,-5.5935,-5.6141,-5.4819,-5.4059,-5.3708,-5.3683,-5.3231,-5.2929,-5.2929,-5.2929,-5.2929,-5.2929,-5.2427,-5.1984,-5.1804,-5.1245,-5.0946,-5.1057,-5.0551,-5.0451,-5.076,-5.0185,-4.961,-4.9061,-4.9061,-4.8747,-4.8172,-4.8172,-4.8172,-4.8068,-4.6369,-4.595,-4.6369,-4.5218,-4.4843,-4.5055,-4.4495,-4.4269,-4.4396,-4.5187,-4.4418,-4.3237,0.0,0.0,0.0,0.0,0.0,0.0,0.0,0.0,0.0,0.0,0.0,0.0,0.0,0.0,0.0,0.0,0.0,0.0,0.0,-3.7613,-3.8266,-3.8894,-3.9622,0.0,0.0,0.0,-4.2735,-4.4367,-4.3991,-4.3413,-4.2665,-4.1756,-4.1304,-4.1254,-4.1706,-4.2137,-4.2489,-4.2811,-4.2986,-4.2986,-4.2986,-4.2986,-4.2986,0.0,0.0,0.0,0.0,0.0,0.0,0.0,0.0,0.0,0.0,0.0,0.0,0.0,-4.3263,-4.3463,-4.3087,-4.3539,-4.4166,-4.4342,-4.5673,-4.7506,0.0,-5.0745,0.0,0.0,-5.6488,-5.62,-5.6154,-5.6425,-5.6493,-5.5956,-5.5974,-5.5731,-5.4986,-5.4181,-5.3557,-5.3206,-5.303,-5.2929,-5.2929,-5.2929,-5.2754,-5.2377,-5.2201,-5.1833,-5.118,-5.0856,-5.0614,-5.0551,-5.0201,-4.9915,-4.9584,-4.8982,-4.8407,-4.7858,-4.7858,-4.7754,-4.7597,-4.7597,-4.7153,-4.6369,-4.5846,-4.548,-4.5164,-4.4661,-4.4361,-4.4185,-4.3827,-4.3776,-4.3954,-4.4249,-4.4242,-4.4267,0.0,0.0,0.0,0.0,0.0,0.0,0.0,0.0,0.0,0.0,0.0,0.0,0.0,0.0,0.0,0.0,0.0,0.0,0.0,0.0,0.0,0.0,0.0,0.0,0.0,-4.2258,-4.3187,-4.3966,-4.3639,-4.3011,-4.2213,-4.2032,-4.1806,-4.153,-4.2409,-4.274,-4.2564,-4.3062,-4.3162,-4.2986,-4.3212,-4.3162,-4.3011,0.0,0.0,0.0,0.0,0.0,0.0,0.0,0.0,0.0,0.0,0.0,0.0,-4.3062,-4.3212,-4.3388,-4.3062,-4.379,-4.4744,-4.5171,-4.6954,-4.9138,-5.1247,-5.2854,-5.4687,-5.7449,-5.8151,-5.8329,-5.8133,-5.8347,-5.8355,-5.7465,-5.6769,-5.5961,-5.5113,-5.4048,-5.3281,-5.2955,-5.2929,-5.2929,-5.2929,-5.2729,-5.2477,-5.2126,-5.1833,-5.1377,-5.0817,-5.0819,-5.0699,-5.0477,-4.9941,-4.9427,-4.9087,-4.8041,-4.7336,-4.6996,-4.6761,-4.66,-4.66,-4.6891,-4.6499,-4.5581,-4.5581,-4.5187,-4.4531,-4.4516,-4.4416,-4.4342,-4.4288,-4.4338,-4.4468,-4.4468,-4.4543,-4.4669,0.0,0.0,0.0,0.0,0.0,0.0,0.0,0.0,0.0,0.0,0.0,0.0,0.0,0.0,0.0,0.0,0.0,0.0,0.0,0.0,0.0,0.0,0.0,0.0,0.0,0.0,0.0,0.0,-4.2886,-4.2665,-4.2137,-4.2635,-4.2936,-4.3011,-4.3564,-4.3514,-4.3087,-4.3539,-4.3438,-4.3037,-4.3589,-4.3463,-4.3037,-4.3589,0.0,0.0,0.0,0.0,0.0,0.0,0.0,0.0,0.0,0.0,-4.3037,-4.2986,-4.3011,-4.3062,-4.3112,-4.3865,-4.492,-4.62,-4.8234,-5.0594,-5.3256,-5.5842,-5.7951,-5.8981,-6.0007,-6.0618,-6.0139,-6.0393,-6.0345,-5.9245,-5.7834,-5.639,-5.5326,-5.3835,-5.2929,-5.2929,-5.2929,-5.2904,-5.2854,-5.2402,-5.2118,-5.2018,-5.1327,-5.0842,-5.0665,-5.0905,-5.0883,-5.0655,-4.9584,-4.893,-4.8773,-4.7205,-4.6342,-4.6238,-4.5767,-4.5451,-4.548,-4.6055,-4.6029,-4.5558,-4.5477,-4.5025,-4.431,-4.4493,-4.4724,-4.5005,-4.5238,-4.5347,-4.5347,-4.5347,-4.502,-4.4618,0.0,0.0,0.0,0.0,0.0,0.0,0.0,0.0,0.0,0.0,0.0,0.0,0.0,0.0,0.0,0.0,0.0,0.0,0.0,0.0,0.0,0.0,0.0,0.0,0.0,0.0,0.0,-4.1706,-4.2108,-4.2057,-4.153,-4.2082,-4.2615,-4.3011,-4.3564,-4.374,-4.3614,-4.3288,-4.3087,-4.3037,-4.3589,-4.3463,-4.3037,-4.3589,-4.3539,0.0,0.0,0.0,0.0,0.0,0.0,0.0,-4.2986,-4.3263,-4.3539,-4.3112,-4.3288,-4.3714,0.0,-4.4443,0.0,-4.7631,-5.0243,-5.2703,-5.4587,-5.5491,-5.6118,-5.6771,-5.7134,-5.7472,-5.7983,-5.7447,-5.745,-5.8864,-5.7065,-5.5696,-5.6455,-5.4485,-5.2929,-5.2929,-5.2929,-5.2754,-5.2327,-5.2422,-5.2127,-5.1241,-5.1263,-5.1203,-5.102,-5.0643,-5.0192,-4.9479,-4.8747,-4.7728,-4.6395,-4.6003,-4.5349,-4.4434,-4.4774,-4.4696,-4.4278,-4.4853,-4.5036,-4.4877,-4.4658,-4.4471,-4.4258,-4.3866,-4.3716,-4.3812,-4.4055,-4.4166,-4.4166,-4.4166,-4.4367,-4.4618,0.0,0.0,0.0,0.0,0.0,0.0,0.0,0.0,0.0,0.0,0.0,0.0,0.0,0.0,0.0,0.0,0.0,0.0,0.0,0.0,0.0,0.0,0.0,0.0,0.0,-4.3087,-4.2409,-4.1275,-4.163,-4.163,-4.13,-4.2434,-4.2961,-4.3011,-4.384,-4.3765,-4.3037,-4.3263,-4.3212,-4.3037,-4.3589,-4.3639,-4.3413,-4.3689,-4.3614,-4.3338,-4.3062,0.0,0.0,0.0,0.0,0.0,0.0,0.0,-4.3338,-4.3062,-4.3363,-4.3865,0.0,0.0,0.0,-4.9992,0.0,-5.3607,-5.4737,-5.4988,-5.5089,-5.5365,-5.6167,-5.6881,-5.7034,-5.695,-5.7127,-5.798,-5.6352,-5.5155,-5.556,-5.4035,-5.2729,-5.2201,-5.2377,-5.2327,-5.1774,-5.1782,-5.1575,-5.0927,-5.1139,-5.1008,-5.0281,-5.0156,-4.9637,-4.8695,-4.8094,-4.7074,-4.5581,-4.5349,-4.4617,-4.3467,-4.4042,-4.4304,-4.4278,-4.4591,-4.4613,-4.4531,-4.4367,-4.4148,-4.3874,-4.3822,-4.3756,-4.3664,-4.435,-4.4443,-4.4192,-4.4192,-4.4367,-4.4593,0.0,0.0,0.0,0.0,0.0,0.0,0.0,0.0,0.0,0.0,0.0,0.0,0.0,0.0,0.0,0.0,0.0,0.0,0.0,0.0,0.0,0.0,0.0,0.0,0.0,-4.3765,-4.2936,-4.148,-4.1326,-4.1376,-4.1601,-4.2936,-4.3363,-4.3162,-4.4066,-4.3714,-4.2539,-4.3313,-4.3388,-4.3037,-4.3589,-4.374,-4.3664,-4.3765,-4.374,-4.3589,-4.3137,-4.3263,-4.3589,-4.3137,0.0,0.0,0.0,0.0,-4.2986,-4.2986,-4.3288,-4.3689,0.0,0.0,-4.8912,-5.19,-5.3105,0.0,-5.4285,-5.4336,-5.431,-5.4411,-5.5797,-5.6764,-5.6202,-5.6648,-5.7019,-5.6731,-5.5499,-5.4571,-5.4275,-5.3385,-5.2452,-5.1523,-5.1749,-5.1749,-5.1263,-5.1013,-5.0879,-5.0944,-5.0881,-5.0483,-4.955,-4.9698,-4.9191,-4.7937,-4.744,-4.663,-4.548,-4.4905,-4.4095,-4.3023,-4.3493,-4.4016,-4.4591,-4.4642,-4.4531,-4.4313,-4.4258,-4.3903,-4.3432,-4.3858,-4.3941,-4.389,-4.4945,-4.5045,-4.4618,-4.4618,-4.4694,-4.4694,0.0,0.0,0.0,0.0,0.0,0.0,0.0,0.0,0.0,0.0,-3.9697,0.0,0.0,0.0,0.0,0.0,0.0,0.0,-3.5686,0.0,0.0,-4.0619,-4.268,-4.4016,0.0,-4.3589,-4.2735,-4.2112,-4.158,-4.1831,-4.276,-4.2564,-4.2836,-4.3689,-4.384,-4.379,-4.3564,-4.3212,-4.3037,-4.3037,-4.3589,-4.3514,-4.3137,-4.3614,-4.3514,-4.3087,-4.3011,-4.3037,-4.3087,-4.3011,-4.2986,0.0,0.0,0.0,-4.2986,-4.2986,-4.3037,-4.3288,0.0,0.0,-4.9715,0.0,-5.2277,-5.3181,0.0,0.0,-5.3281,-5.3733,-5.3998,-5.4163,-5.4088,-5.384,-5.3912,-5.5087,-5.4106,-5.3563,-5.4716,-5.3308,-5.2151,-5.2026,-5.1649,-5.1305,-5.0988,-5.0754,-5.0742,-5.106,-5.0426,-4.9993,-4.9837,-4.9453,-4.8433,-4.6761,-4.663,-4.6029,-4.4798,-4.4278,-4.3676,-4.3023,-4.3101,-4.3441,-4.399,-4.4242,-4.4313,-4.4313,-4.4064,-4.3764,-4.3406,-4.3229,-4.3419,-4.3865,-4.4493,-4.4694,-4.4618,-4.4618,-4.4945,-4.5296,0.0,0.0,0.0,0.0,0.0,0.0,0.0,0.0,0.0,0.0,0.0,-3.9515,0.0,0.0,0.0,-3.4765,-3.4722,-3.5221,-3.6154,-3.7279,-3.8401,-3.9684,-4.1136,-4.2127,-4.261,-4.2575,-4.2258,-4.1706,-4.1153,-4.1756,-4.3438,-4.2861,-4.3388,-4.4719,-4.4091,-4.3639,-4.3313,-4.3087,-4.2986,-4.3011,-4.3237,-4.3187,-4.3011,-4.3237,-4.2986,-4.2615,-4.2861,-4.2986,-4.2986,-4.2986,-4.2986,-4.2986,-4.2986,0.0,0.0,0.0,-4.3187,-4.389,-4.5899,-4.7782,-4.9565,0.0,-5.2352,-5.298,-5.3231,-5.2854,-5.2528,-5.2754,-5.2804,-5.2904,-5.3206,-5.308,-5.3136,-5.37,-5.3063,-5.2556,-5.2874,-5.2177,-5.1398,-5.077,-5.077,-5.0575,-5.0014,-5.0053,-5.015,-5.0152,-5.0002,-4.9766,-4.9453,-4.859,-4.7597,-4.6499,-4.6159,-4.5271,-4.3781,-4.3833,-4.3415,-4.2552,-4.2866,-4.3337,-4.3885,-4.4162,-4.4203,-4.4064,-4.3764,-4.3462,-4.3184,-4.3017,-4.3112,-4.3388,-4.394,-4.4166,-4.4192,-4.4518,-4.4794,-4.502,0.0,0.0,0.0,0.0,0.0,0.0,0.0,0.0,0.0,0.0,0.0,0.0,0.0,0.0,0.0,0.0,-3.4095,-3.4764,-3.577,-3.6421,-3.731,-3.8503,-3.982,-4.0676,-4.0884,-4.1601,-4.1681,-4.1075,-4.0727,-4.1781,-4.4217,-4.3664,-4.4593,-4.6677,-4.497,-4.3915,-4.3388,-4.3237,-4.3263,-4.3363,-4.2936,-4.2816,-4.276,-4.261,-4.2308,-4.2007,-4.2615,-4.2816,-4.2841,-4.2936,-4.2986,-4.2986,-4.2986,-4.2986,0.0,0.0,0.0,-4.4091,0.0,0.0,-4.8862,-5.0946,-5.2201,-5.2879,0.0,0.0,-5.2226,-5.195,-5.19,-5.2026,-5.2427,-5.2628,-5.2729,-5.2729,-5.2251,-5.1749,-5.1348,-5.1147,-5.0745,-4.9891,-4.9916,-4.9794,-4.9406,-4.9325,-4.9441,-4.9498,-4.9385,-4.9061,-4.8669,-4.7388,-4.6473,-4.6055,-4.5349,-4.4408,-4.3258,-4.3363,-4.2944,-4.1951,-4.2683,-4.3206,-4.357,-4.3976,-4.3987,-4.3585,-4.3466,-4.3164,-4.2841,-4.2911,-4.3062,-4.3212,-4.3639,-4.379,-4.3865,-4.4418,-4.4618,-4.4719,0.0,0.0,0.0,0.0,0.0,0.0,0.0,0.0,0.0,0.0,0.0,0.0,-3.8863,-3.6808,-3.4903,-3.3112,-3.2156,-3.1961,-3.2877,-3.5672,-3.709,-3.6734,-3.9523,0.0,-4.0355,-4.0977,-4.105,-4.0551,-4.0526,-4.2183,-4.5397,-4.4819,-4.6552,-5.0017,-4.6828,-4.507,-4.4493,-4.3991,-4.4066,-4.4392,-4.2891,-4.2263,-4.2187,-4.163,-4.1351,-4.1401,-4.2062,-4.2263,-4.2338,-4.2811,-4.2986,-4.2986,-4.2986,-4.2986,-4.2986,0.0,0.0,0.0,0.0,-4.5974,0.0,-4.9314,-5.1348,0.0,0.0,0.0,-5.2578,-5.1548,-5.1322,-5.1322,-5.1373,-5.18,-5.2151,-5.2151,-5.1674,-5.1322,-5.1272,-5.082,-5.0444,-5.0393,-4.949,-4.909,-4.9694,-4.882,-4.8687,-4.9784,-4.8381,-4.7383,-4.744,-4.582,-4.4879,-4.4826,-4.3755,-4.3389,-4.3833,-4.2839,-4.1951,-4.1376,-4.25,-4.2892,-4.2708,-4.355,-4.3428,-4.2671,-4.3178,-4.2937,-4.2288,-4.276,-4.3288,-4.3765,-4.379,-4.379,-4.3865,-4.4418,-4.4618,-4.4719,0.0,0.0,0.0,0.0,0.0,0.0,0.0,0.0,0.0,0.0,0.0,0.0,0.0,-3.6164,-3.445,-3.2132,-3.2371,-3.3314,-3.4733,-3.5867,-3.7023,-3.8236,-3.9787,-4.0555,-4.0306,-4.0928,-4.12,-4.1,-4.0325,-4.1505,-4.4392,-4.4192,-4.5221,-4.7205,-4.6024,-4.5773,-4.61,-4.4116,-4.3589,-4.3991,-4.274,-4.1957,-4.1605,-4.1351,-4.1075,-4.0877,-4.143,-4.1856,-4.2238,-4.2439,-4.274,-4.2986,-4.2986,-4.2986,-4.2986,-4.2986,-4.2791,-4.274,0.0,0.0,0.0,-4.7606,-4.969,-5.1272,-5.1071,-5.1473,-5.1649,-5.0896,-5.072,-5.072,-5.072,-5.1197,-5.1574,-5.1574,-5.1096,-5.072,-5.072,-4.9941,-4.9364,-4.9364,-4.8686,-4.8333,-4.8682,-4.8333,-4.8326,-4.874,-4.8224,-4.7728,-4.7304,-4.6395,-4.5506,-4.4748,-4.3964,-4.3493,-4.3337,-4.2552,-4.2239,-4.2422,-4.297,-4.3047,-4.263,-4.3281,-4.283,-4.158,-4.2654,-4.2771,-4.2263,-4.2816,-4.3087,-4.3263,-4.3263,-4.3489,-4.3865,-4.4418,-4.4869,-4.5271,0.0,0.0,0.0,0.0,0.0,0.0,0.0,0.0,0.0,-4.1351,0.0,0.0,0.0,0.0,-3.4358,-3.2031,-3.3692,-3.5157,-3.5969,-3.6684,-3.7713,-3.9134,-4.0111,-4.0459,-3.9986,-4.1057,-4.1354,-4.0724,-4.0425,-4.1379,-4.3539,-4.3714,-4.4593,-4.5999,-4.5246,-4.5547,-4.6451,-4.4392,-4.3865,-4.4217,-4.2559,-4.1882,-4.1856,-4.1681,-4.1379,-4.1153,-4.1907,-4.2158,-4.2238,-4.2414,-4.2434,-4.2459,-4.2635,-4.2585,-4.2434,-4.2434,-4.2183,-4.2032,-4.2785,0.0,0.0,0.0,0.0,-4.9238,-4.9967,-5.0293,-5.0343,-4.9941,-5.0017,-5.0142,-5.0142,-5.0469,-5.077,-5.0971,-5.0519,-5.0067,-4.9891,-4.9238,-4.8711,-4.851,-4.7983,-4.7752,-4.8068,-4.7744,-4.7733,-4.814,-4.7649,-4.7231,-4.7048,-4.6133,-4.5062,-4.3912,-4.3493,-4.3127,-4.2735,-4.216,-4.2109,-4.258,-4.2813,-4.2551,-4.2058,-4.2579,-4.2084,-4.0839,-4.2167,-4.2384,-4.1932,-4.2685,-4.2986,-4.2986,-4.2986,-4.3212,-4.3614,-4.4342,-4.4869,-4.5296,0.0,0.0,0.0,0.0,0.0,0.0,0.0,0.0,-4.1902,-4.1322,0.0,0.0,0.0,0.0,0.0,-3.3038,-3.5821,-3.7269,-3.6222,-3.8082,-3.9252,-3.9275,-4.05,-4.0676,-3.9561,0.0,0.0,0.0,0.0,0.0,0.0,-4.3463,-4.4895,-4.6842,-4.4744,-4.4367,-4.5347,-4.4769,-4.4895,-4.5221,-4.2459,-4.1982,-4.2886,-4.2389,-4.2162,-4.2313,-4.3313,-4.3037,-4.2288,-4.2816,-4.2258,-4.1451,-4.2007,-4.1806,-4.13,-4.13,-4.1275,-4.125,0.0,0.0,0.0,-4.5623,0.0,0.0,-4.8962,0.0,-4.8686,-4.8736,-4.9163,-4.954,-4.959,-4.959,-4.9766,-5.0293,-4.9941,-4.9414,-4.8862,-4.8786,-4.856,-4.7983,-4.7456,-4.7349,-4.7991,-4.7052,-4.6908,-4.8035,-4.6604,-4.5872,-4.6421,-4.4826,-4.3363,-4.229,-4.2238,-4.2238,-4.2211,-4.1638,-4.1486,-4.1802,-4.1802,-4.1466,-4.092,-4.1504,-4.1319,-4.0576,-4.1735,-4.1856,-4.1401,-4.2534,-4.2986,-4.2986,-4.2986,-4.2986,-4.3112,-4.4217,-4.4618,-4.4794,0.0,0.0,0.0,0.0,0.0,-4.1087,-3.951,-3.9396,-3.9443,0.0,0.0,0.0,-3.7252,-3.6924,-3.6748,-3.7016,-3.7885,-3.8676,-3.9165,-3.9732,-4.0634,-4.1899,-4.2287,-4.2308,-4.1985,0.0,0.0,0.0,0.0,0.0,0.0,0.0,0.0,-4.3514,-4.3313,-4.3162,-4.3092,-4.2484,-4.3206,-4.4644,-4.2228,-4.1756,-4.2338,-4.1329,-4.0978,-4.1003,-4.1329,-4.1731,-4.2238,-4.2389,-4.271,-4.3087,-4.2836,-4.2384,-4.1856,-4.1401,-4.1,-4.0752,-4.0752,0.0,0.0,0.0,0.0,0.0,-4.5773,0.0,-4.6728,-4.7908,-4.7983,-4.8184,-4.9364,-4.959,-4.964,-4.9791,-4.969,-4.954,-4.9389,-4.9012,-4.856,-4.7983,-4.7615,-4.7348,-4.689,-4.6765,-4.6829,-4.697,-4.6499,-4.6133,-4.5872,-4.4591,-4.3546,-4.2814,-4.2788,-4.2579,-4.2211,-4.2241,-4.2294,-4.2345,-4.2004,-4.1484,-4.092,-4.1291,-4.1081,-4.0576,-4.1735,-4.2137,-4.1982,-4.2685,-4.2986,-4.2986,-4.2986,-4.2986,-4.3112,-4.4217,-4.4618,-4.4794,0.0,0.0,0.0,0.0,0.0,-4.0956,-3.9776,-3.9778,-3.9998,0.0,0.0,0.0,-3.7445,-3.8064,-3.848,-3.8366,-3.9453,-4.0098,-4.0105,-4.0745,-4.1496,-4.2228,-4.2509,-4.2534,-4.2308,-4.1882,0.0,0.0,0.0,0.0,0.0,0.0,0.0,-4.148,-4.1806,-4.1907,-4.1756,-4.0978,-4.1932,-4.379,-4.1978,-4.1957,-4.2816,-4.2133,-4.2032,-4.2283,-4.276,-4.3187,-4.352,-4.3067,-4.2961,-4.2936,-4.1932,-4.1706,-4.1656,-4.0877,-4.0601,-4.0475,-4.0249,-4.0174,-4.0425,-4.143,0.0,0.0,-4.394,-4.4192,-4.4568,0.0,-4.6502,-4.6803,-4.8008,-4.841,-4.856,-4.856,-4.8736,-4.8887,-4.8887,-4.8611,-4.8109,-4.733,-4.6935,-4.6654,-4.6404,-4.6174,-4.615,-4.6473,-4.6029,-4.5611,-4.5216,-4.4147,-4.3363,-4.3023,-4.2552,-4.2214,-4.2033,-4.1931,-4.1879,-4.185,-4.1331,-4.0843,-4.0383,-4.0553,-4.0601,-4.0576,-4.143,-4.1957,-4.2263,-4.2816,-4.2986,-4.2986,-4.2986,-4.2986,-4.3087,-4.3966,-4.4292,-4.4392,0.0,0.0,-4.3234,-4.1143,-4.1091,-4.1282,-4.0912,-4.1186,-4.1798,0.0,-4.1492,-4.0048,-3.8697,-3.9864,-4.0194,-3.8774,-4.0929,-4.1673,-3.9964,-4.1365,-4.1907,-4.13,-4.1856,-4.1907,-4.13,-4.1831,0.0,0.0,0.0,0.0,0.0,0.0,-4.0475,-4.0425,0.0,0.0,-4.105,-4.0174,-4.0902,-4.261,-4.163,-4.2283,-4.379,-4.3664,-4.3991,-4.4669,-4.5748,-4.5799,-4.5246,-4.4242,-4.3212,-4.2137,-4.0551,-4.0651,-4.1075,-4.0099,-4.0099,-4.0325,-3.9823,-3.9798,-4.0199,-4.1609,-4.0978,0.0,-4.2911,-4.271,-4.2509,0.0,-4.4794,-4.5347,-4.6075,-4.6627,-4.6892,-4.6892,-4.7431,-4.7832,-4.7908,-4.7908,-4.7506,-4.6426,-4.5933,-4.5792,-4.6115,-4.5309,-4.5206,-4.6182,-4.5268,-4.4668,-4.4668,-4.3702,-4.3075,-4.3023,-4.1979,-4.1538,-4.1724,-4.1156,-4.0901,-4.0819,-4.0311,-3.9929,-3.9697,-3.9697,-3.9998,-4.0551,-4.105,-4.1656,-4.2263,-4.2816,-4.2986,-4.2986,-4.2986,-4.2986,-4.3037,-4.3589,-4.379,-4.389,0.0,-4.0792,-3.943,-3.8739,-3.8697,-3.8914,-3.9349,-3.94,-3.9853,-4.1218,-4.1542,-4.1811,-4.2401,-4.2879,-4.3191,-4.3284,-4.3437,-4.3006,-4.1758,-4.2028,-4.1907,-4.13,-4.1856,-4.1907,-4.13,-4.1401,-4.1178,0.0,0.0,0.0,0.0,0.0,0.0,-3.9873,0.0,-4.0325,-4.0023,-4.0249,-4.0601,-4.0978,-4.0777,-4.1932,-4.3714,-4.2811,-4.3087,-4.4041,-4.4719,-4.4895,-4.4769,-4.4543,-4.4016,-4.3338,-4.2585,-4.1882,-4.115,-4.0551,-4.0124,-3.9823,-3.9722,-4.035,-4.0877,-4.0325,-4.1254,0.0,-4.1329,-4.1329,-4.1831,0.0,-4.3037,-4.3444,-4.5296,-4.5723,-4.5799,-4.5799,-4.6627,-4.7431,-4.7857,-4.7908,-4.7506,-4.6426,-4.6465,-4.6037,-4.484,-4.496,-4.5011,-4.473,-4.4689,-4.4668,-4.4668,-4.4068,-4.3493,-4.3049,-4.258,-4.1931,-4.1051,-4.0927,-4.0669,-4.0235,-3.9928,-3.9749,-3.9697,-3.9697,-3.9998,-4.0551,-4.105,-4.1656,-4.2263,-4.2816,-4.2986,-4.2986,-4.2986,-4.2986,-4.3037,-4.3589,-4.379,-4.389,-4.0869,-4.0184,-3.9542,-3.9399,-3.9011,-3.9405,-4.1374,-4.1234,-4.1491,-4.3383,-4.3378,-4.3364,-4.3634,-4.3771,-4.3689,-4.3413,-4.3137,-4.2509,-4.1404,-4.1329,-4.1103,-4.0551,-4.1053,-4.1329,-4.1275,-4.1025,-4.0874,-4.0874,0.0,0.0,0.0,0.0,0.0,-3.9295,-3.9848,-3.9798,-3.932,-3.9873,-4.0275,-4.0526,-4.0526,-4.1505,-4.2961,-4.2715,-4.3237,-4.4317,-4.5171,-4.5296,-4.502,-4.4719,-4.4819,-4.4769,-4.3143,-4.3137,-4.3438,-4.1451,-4.0927,-4.0727,-3.9923,-4.0099,-4.0526,-4.0526,-4.0927,0.0,0.0,-4.0701,-4.0752,-4.158,-4.153,-4.1756,-4.3162,-4.3639,-4.4016,-4.4568,-4.5121,-4.5748,-4.6577,-4.7179,-4.7129,-4.6024,-4.5766,-4.5337,-4.437,-4.4463,-4.4458,-4.4338,-4.4313,-4.4313,-4.4313,-4.3484,-4.2889,-4.2604,-4.1931,-4.1209,-4.0542,-4.0517,-4.0311,-3.9878,-3.9749,-3.9697,-3.9697,-3.9973,-4.04,-4.0953,-4.1505,-4.2057,-4.264,-4.2861,-4.2811,-4.264,-4.2861,-4.2811,-4.2665,-4.2886,-4.2986,-4.3011,-3.9371,-3.9387,-3.9598,-4.0136,-3.9681,-4.0468,-4.3822,-4.3648,-4.3868,-4.5899,-4.5447,-4.4744,-4.4192,-4.394,-4.3564,-4.3067,-4.2313,-4.163,-4.1178,-4.0651,-4.0149,-3.9722,-4.0224,-4.0676,-4.0974,-4.0701,-4.0676,-4.0974,0.0,0.0,0.0,0.0,0.0,-3.9095,-3.9597,-3.9546,-3.9069,-3.9622,-4.0049,-4.0375,-4.0475,-4.1229,-4.2439,-4.2936,-4.384,-4.492,-4.5949,-4.61,-4.5723,-4.5146,-4.5497,-4.5748,-4.357,-4.4192,-4.5296,-4.261,-4.2057,-4.2087,-4.0676,-4.0475,-4.0752,-4.1175,-4.0978,-4.0701,0.0,0.0,0.0,-4.03,-4.035,-4.0526,-4.1025,-4.153,-4.2263,-4.3313,-4.3564,-4.3991,0.0,-4.5924,-4.62,-4.5422,-4.4819,-4.4407,-4.4181,-4.3853,-4.3826,-4.4203,-4.3907,-4.3771,-4.3899,-4.2798,-4.2182,-4.2182,-4.1029,-4.0338,-4.0083,-4.0032,-3.9929,-3.9697,-3.9697,-3.9697,-3.9697,-4.0149,-4.0651,-4.115,-4.1756,-4.2258,-4.266,-4.2785,-4.2484,-4.2112,-4.2766,-4.269,-4.2213,-4.2338,-4.2313,-4.2213,-3.7028,-3.5886,-3.5639,-3.8082,0.0,0.0,-4.3774,-4.4113,-4.4363,-4.547,-4.5899,-4.5899,-4.5372,-4.4392,-4.4342,-4.5723,-4.2685,-4.148,-4.3313,-4.1128,-3.9747,-3.9697,-4.0224,-4.0325,-3.9898,-4.03,-4.03,-3.9873,0.0,0.0,0.0,0.0,0.0,-3.9622,-4.0174,-4.0124,-3.9647,-4.0199,-4.0174,-3.9823,-4.0325,-4.148,-4.2936,-4.3489,-4.4418,-4.5472,-4.6075,-4.6577,-4.6853,-4.6301,-4.5874,-4.5522,-4.5221,-4.4644,-4.4016,-4.3639,-4.3212,-4.2836,-4.266,-4.3313,-4.3614,-4.1752,-4.2655,-4.3338,-4.0526,0.0,-4.0902,-3.9973,0.0,-3.9948,-4.0501,0.0,0.0,-4.2213,-4.276,-4.3288,-4.3915,-4.4091,-4.4317,-4.4669,-4.4242,-4.3865,-4.3872,-4.3194,-4.3089,-4.3903,-4.3413,-4.3336,-4.3874,-4.2798,-4.2182,-4.2182,-4.0874,-4.0134,-4.0083,-3.9826,-3.9749,-3.9697,-3.9697,-3.9697,-3.9697,-3.9747,-4.0099,-4.0651,-4.1204,-4.1426,-4.1501,-4.2057,-4.1932,-4.153,-4.2585,-4.269,-4.2263,-4.271,-4.264,-4.2213,-3.5937,-3.6267,-3.6941,-3.8515,0.0,0.0,0.0,-4.5724,-4.6328,-4.6441,-4.6376,-4.6351,-4.6426,-4.5447,-4.507,-4.5773,-4.374,-4.2534,-4.2836,-4.1178,-4.03,-4.0626,-4.0249,-4.0224,-4.0651,-4.0249,-4.0074,-4.0174,-3.9848,0.0,0.0,0.0,0.0,-3.9245,-4.0124,-4.0199,-3.9747,-4.0626,-4.0799,-4.0701,-4.1254,-4.1936,-4.2615,-4.3112,-4.4418,-4.5999,-4.6225,-4.6451,-4.6577,-4.6024,-4.6301,-4.6728,-4.5773,-4.5799,-4.5924,-4.4644,-4.4116,-4.379,-4.3162,-4.3539,-4.384,-4.261,-4.2735,-4.2735,-4.1028,-4.0501,-4.0249,-3.9798,0.0,0.0,0.0,0.0,0.0,0.0,-4.1605,-4.1856,-4.2735,0.0,-4.271,-4.3564,-4.3187,-4.2821,-4.2629,-4.2175,-4.2052,-4.263,-4.2598,-4.2641,-4.2895,-4.2135,-4.1704,-4.1704,-4.051,-3.9878,-3.9878,-3.9749,-3.9697,-3.9697,-3.9697,-3.9697,-3.9697,-4.0023,-4.0475,-4.0974,-4.158,-4.1982,-4.2283,-4.2238,-4.1831,-4.1326,-4.1856,-4.1882,-4.1706,-4.1932,-4.1882,-4.1681,-3.5486,-3.692,-3.844,-3.9533,-4.0708,0.0,0.0,-4.5899,-4.6527,-4.6451,-4.6225,-4.6351,-4.7054,-4.6276,-4.6024,-4.6778,-4.5271,-4.3991,-4.3394,-4.1982,-4.1103,-4.0902,-4.0275,-4.0224,-4.0877,-4.0099,-3.9898,-4.03,-3.9898,0.0,0.0,0.0,0.0,-3.912,-3.9923,-4.0074,-3.9747,-4.0701,-4.0974,-4.0953,-4.1656,-4.2263,-4.2715,-4.3212,-4.4618,-4.6301,-4.6301,-4.6301,-4.6276,-4.6024,-4.6627,-4.728,-4.6276,-4.6652,-4.7129,-4.5372,-4.497,-4.4869,-4.3915,-4.4066,-4.4242,-4.3237,-4.274,-4.2162,-4.1128,-4.0501,-4.0099,-3.9948,-4.0149,0.0,0.0,0.0,-4.045,-4.1404,0.0,-4.1078,-4.2087,-4.1555,-4.153,-4.2665,-4.259,-4.2343,0.0,-4.1764,-4.1688,-4.1904,-4.1969,-4.1932,-4.1932,-4.1404,-4.1075,-4.1075,-4.0199,-3.9697,-3.9697,-3.9697,-3.9697,-3.9697,-3.9697,-3.9697,-3.9697,-4.0099,-4.0601,-4.11,-4.1681,-4.2158,-4.2484,-4.2082,-4.1605,-4.1075,-4.1075,-4.1075,-4.11,-4.1455,-4.1555,-4.1555,-3.5635,-3.6937,-3.8433,-4.0736,-4.1557,-4.2351,-4.3669,-4.3438,-4.3514,-4.4568,-4.5171,-4.5924,-4.6943,-4.6627,-4.7355,-5.0017,-4.7305,-4.5648,-4.615,-4.4116,-4.1957,-3.9848,-4.0224,-4.0249,-3.9747,-3.9722,-3.9697,-3.9722,-3.9697,-3.9697,0.0,0.0,0.0,0.0,-3.9697,-3.9722,-3.9747,-4.03,-4.0249,-3.9848,-4.0874,-4.2333,-4.3815,-4.4367,-4.5296,-4.6301,-4.6301,-4.6301,-4.6401,-4.6903,-4.6753,-4.6451,-4.6928,-4.6753,-4.625,-4.5623,-4.5849,-4.6125,-4.5573,-4.5799,-4.5698,-4.3514,-4.2961,-4.2384,-4.0224,-4.0551,-4.1075,-4.0601,-4.1329,-4.1907,-4.1379,-4.1225,-4.148,-4.2087,-4.1681,0.0,0.0,-4.1229,-4.0953,-4.2112,-4.269,-4.2936,-4.2992,-4.2489,-4.2187,-4.2187,-4.1656,-4.13,-4.13,-4.0852,-4.0551,-4.0551,-3.9998,-3.9697,-3.9697,-3.9697,-3.9697,-3.9697,-3.9697,-3.9697,-3.9697,-3.9722,-4.0023,-4.0576,-4.1075,-4.1326,-4.1326,-4.1326,-4.1,-4.0551,-4.0551,-4.0551,-4.0676,-4.1731,-4.2187,-4.2187,-3.6289,-3.8034,-3.9569,-4.0042,-4.1817,-4.3432,-4.4234,-4.4518,-4.5296,-4.7129,-4.7531,-4.851,-5.072,-5.0469,-5.067,-5.1975,-5.0042,-4.851,-4.7983,-4.5497,-4.374,-4.2986,-4.1731,-4.0924,-4.0724,-4.0425,-4.0049,-3.9697,-3.9697,-3.9697,0.0,0.0,0.0,0.0,-4.0074,-4.0249,-4.0275,-4.0774,-4.1153,-4.1433,-4.2133,-4.3438,-4.4844,-4.4292,-4.502,-4.62,-4.5472,-4.5673,-4.6276,-4.61,-4.6175,-4.6351,-4.6527,-4.6451,-4.6276,-4.6075,-4.6426,-4.6803,-4.6627,-4.6954,-4.6928,-4.5095,-4.4066,-4.3037,-4.1204,-4.1354,-4.163,-4.0701,-4.1681,-4.2409,-4.1451,-4.1275,-4.1225,-4.1103,-4.0902,-4.0727,0.0,-4.0199,-4.0249,-4.0978,-4.1229,-4.1204,-4.0827,-4.0626,-4.0526,-4.0526,-4.0023,-4.0023,-4.0752,-4.0275,-4.0149,-4.0501,-3.9973,-3.9697,-3.9697,-3.9697,-3.9697,-3.9697,-3.9697,-3.9697,-3.9697,-3.9697,-3.9998,-4.0526,-4.0701,-4.0949,-4.125,-4.0953,-4.0676,-4.0475,-4.0124,-4.0199,-4.0551,-4.0927,-4.1304,-4.1656,-3.697,-3.8615,-4.0021,-4.0138,-4.2033,-4.3689,-4.4242,-4.5146,-4.6502,-4.851,-4.9289,-5.0569,-5.2955,-5.2879,-5.2904,-5.3457,-5.2327,-5.0695,-4.8611,-4.7154,-4.5598,-4.3815,-4.2585,-4.1731,-4.13,-4.0601,-4.0049,-3.9697,-3.9697,-3.9697,0.0,0.0,0.0,0.0,-4.0074,-4.0224,-4.0249,-4.0601,-4.0953,-4.1354,-4.2082,-4.3388,-4.4794,-4.3865,-4.4669,-4.615,-4.502,-4.5095,-4.5698,-4.5547,-4.5723,-4.605,-4.625,-4.6301,-4.6276,-4.6075,-4.6401,-4.6803,-4.6602,-4.6928,-4.6979,-4.5547,-4.4618,-4.3614,-4.1702,-4.2057,-4.2434,-4.1329,-4.2258,-4.3062,-4.2333,-4.1907,-4.1455,-4.0902,-4.0651,-4.0325,0.0,-3.9697,-3.9823,-4.0174,-4.04,-4.0526,-4.0576,-4.04,-4.0199,-3.9998,-3.9471,-3.9396,-3.9898,-3.9597,-3.9647,-4.0199,-3.9873,-3.9697,-3.9697,-3.9697,-3.9697,-3.9697,-3.9697,-3.9697,-3.9697,-3.9697,-3.9898,-4.0249,-4.0425,-4.0727,-4.0974,-4.0651,-4.0526,-4.045,-3.9898,-3.9898,-4.0249,-4.045,-4.1003,-4.1656,-3.7573,-3.8769,-3.9837,-4.0942,-4.2174,-4.3162,-4.379,-4.5271,-4.6954,-4.8711,-5.0393,-5.2051,-5.3683,-5.3858,-5.4084,-5.4612,-5.411,-5.2151,-4.841,-4.9063,-4.7456,-4.2715,-4.2861,-4.2585,-4.1426,-4.04,-3.9823,-3.9772,-3.9747,-3.9747,-3.9747,0.0,0.0,0.0,-3.9697,-3.9697,-3.9697,-3.9697,-3.9722,-3.9823,-4.0902,-4.2308,-4.3689,-4.3112,-4.4267,-4.605,-4.4945,-4.4568,-4.4694,-4.5221,-4.5447,-4.5573,-4.61,-4.6276,-4.62,-4.5673,-4.5924,-4.6225,-4.5723,-4.5949,-4.61,-4.502,-4.4694,-4.4066,-4.1927,-4.2735,-4.3564,-4.2489,-4.3062,-4.3815,-4.374,-4.2836,-4.1932,-4.1326,-4.0774,-4.03,-3.9772,-3.9697,-3.9697,-3.9697,-4.0149,-4.0877,-4.1986,-4.1555,-4.1,-4.0526,-3.9923,-3.9371,-3.8944,-3.8919,-3.9094,-3.9672,-3.9697,-3.9697,-3.9697,-3.9697,-3.9697,-3.9697,-3.9697,-3.9697,-3.9697,-3.9697,-3.9697,-3.9722,-4.0249,-4.0475,-4.0475,-4.0475,-4.0475,-4.0425,-3.9898,-3.9697,-3.9747,-4.03,-4.1178,-4.2062,-3.6583,-3.8636,-4.0741,-4.1983,-4.2315,-4.3042,-4.4769,-4.5773,-4.7506,-5.082,-5.2703,-5.4361,-5.5993,-5.6168,-5.6068,-5.5817,-5.4913,-5.3582,-5.1749,-5.0368,-4.8636,-4.6527,-4.5422,-4.4317,-4.3187,-4.2484,-4.1731,-4.0874,-4.0501,-4.03,-4.03,0.0,0.0,0.0,0.0,-3.9697,-3.9697,-3.9697,-3.9923,-4.0375,-4.1,-4.2082,-4.3087,-4.2133,-4.2886,-4.4342,-4.3664,-4.3915,-4.4593,-4.4317,-4.4794,-4.5522,-4.5648,-4.5974,-4.6276,-4.615,-4.6502,-4.6842,-4.6753,-4.6803,-4.6792,-4.6491,-4.5488,-4.4468,-4.3915,-4.4443,-4.4618,-4.3087,-4.3639,-4.4041,-4.2811,-4.2007,-4.1379,-4.0827,-4.0275,-3.9848,-3.9722,-3.9697,-3.9697,-3.9697,-3.9823,-4.0023,-4.03,-4.0199,-4.0049,-3.9923,-3.8617,-3.8316,-3.9421,-3.8693,-3.8668,-3.9672,-3.9697,-3.9697,-3.9697,-3.9697,-3.9697,-3.9697,-3.9697,-3.9697,-3.9697,-3.9697,-3.9697,-3.9697,-3.9848,-3.9898,-3.9898,-3.9898,-3.9898,-3.9898,-3.9747,-3.9697,-3.9747,-4.03,-4.0701,-4.1028,-3.6804,-3.8849,-4.1251,-4.302,-4.3563,-4.4339,-4.6291,-4.7029,-4.851,-5.1699,-5.3758,-5.5189,-5.5892,-5.6821,-5.7097,-5.6269,-5.4963,-5.3632,-5.2302,-5.1021,-4.9515,-4.7657,-4.6702,-4.5573,-4.4192,-4.2911,-4.1957,-4.1275,-4.0551,-4.0275,-4.0501,0.0,0.0,0.0,0.0,-3.9697,-3.9697,-3.9697,-4.0023,-4.0551,-4.0852,-4.1505,0.0,-4.1526,-4.1852,-4.2685,-4.2384,-4.2961,-4.389,-4.3815,-4.4217,-4.4844,-4.5321,-4.5698,-4.5949,-4.5949,-4.6351,-4.6728,-4.6476,-4.6602,-4.6778,-4.6778,-4.605,-4.5171,-4.4443,-4.4895,-4.502,-4.3313,-4.3463,-4.3614,-4.274,-4.1681,-4.0802,-4.0249,-3.9898,-3.9697,-3.9697,-3.9697,-3.9697,-3.9697,-3.9697,-3.9798,-4.0023,-3.9848,-3.9697,-3.9697,-3.8592,-3.8341,-3.927,-3.8743,-3.8793,-3.9672,-3.9923,-3.9948,-3.9697,-3.9923,-3.9923,-3.9697,-3.9697,-3.9697,-3.9697,-3.9697,-3.9697,-3.9697,-3.9697,-3.9697,-3.9697,-3.9697,-3.9697,-3.9697,-3.9697,-3.9697,-3.9747,-4.0049,-4.045,-4.0953,-3.7591,-3.9295,-4.1395,-4.3318,-4.4872,-4.6359,-4.7943,-4.8924,-5.0193,-5.2352,-5.4511,-5.5616,-5.5064,-5.6671,-5.7323,-5.6194,-5.4712,-5.3155,-5.1599,-5.1423,-5.0243,-4.7682,-4.7431,-4.6481,-4.4677,-4.2674,-4.1522,-4.1284,-4.027,-4.0049,0.0,0.0,0.0,0.0,0.0,0.0,0.0,-3.9672,-3.9923,-4.03,-4.0375,-4.0701,-4.1075,-4.1075,-4.1125,-4.1175,-4.125,-4.2007,-4.2936,-4.3413,-4.3689,-4.3966,-4.497,-4.5321,-4.5372,-4.5372,-4.5773,-4.6075,-4.5522,-4.5824,-4.6301,-4.6225,-4.62,-4.5824,-4.4342,-4.4719,-4.492,-4.3313,-4.2911,-4.2836,-4.2685,-4.143,-4.0224,-3.9672,-3.9647,-3.9697,-3.9697,-3.9697,-3.9697,-3.9697,-3.9697,0.0,-4.035,-3.9973,-3.9722,-3.9798,-3.922,-3.8919,-3.8919,0.0,-3.9094,-3.9572,-4.0124,-4.0224,-3.9798,-4.0199,-4.0199,-3.9798,-3.9722,-3.9697,-3.9697,-3.9697,-3.9697,-3.9697,-3.9697,-3.9697,-3.9697,-3.9697,-3.9697,-3.9697,-3.9697,-3.9697,-3.9697,-3.9772,-4.04,-4.12,-3.7591,-3.9638,-4.1176,-4.0462,-4.4202,-4.7793,-4.9461,-5.147,-5.3482,-5.5265,-5.7022,-5.7926,-5.7374,-5.7248,-5.6746,-5.5616,-5.4838,-5.3909,-5.2729,-5.2226,-5.1322,-4.9891,-4.8962,-4.7383,-4.5033,-4.3945,-4.263,-4.1063,-4.0566,-4.0425,0.0,0.0,0.0,0.0,0.0,0.0,-3.9095,-3.9496,0.0,-3.9195,-3.9647,-3.9898,-3.9973,-3.9973,-4.0249,-4.0727,-4.1125,-4.1756,-4.2363,-4.2464,-4.3062,-4.384,-4.4041,-4.4418,-4.4769,-4.4769,-4.5171,-4.5497,-4.4945,-4.5522,-4.62,-4.5748,-4.5623,-4.5547,-4.5271,-4.497,-4.4443,-4.3212,-4.2665,-4.2062,-4.1103,-4.035,-3.9647,-3.9145,-3.9396,-3.9697,-3.9697,-3.9697,-3.9697,-3.9697,-3.9697,-3.9747,-3.9823,-3.9747,-3.9873,-4.035,-3.9446,-3.8919,-3.8919,0.0,-3.8969,0.0,-3.9546,-3.9998,0.0,0.0,-4.0023,-4.0375,-3.9898,-3.9697,-3.9697,-3.9697,-3.9697,-3.9697,-3.9697,-3.9697,-3.9697,-3.9697,-3.9697,-3.9697,-3.9697,-3.9697,-3.9747,-4.0199,-4.0501,-4.0727,-3.9247,-4.0129,-4.1302,-4.2683,-4.5617,-4.8932,-5.2312,-5.4284,-5.5415,-5.5365,-5.6319,-5.6671,-5.5817,-5.652,-5.6595,-5.5491,-5.4612,-5.3783,-5.298,-5.2402,-5.1599,-5.0469,-4.964,-4.8283,-4.6179,-4.4353,-4.2956,-4.2037,-4.0707,-4.0249,-4.0501,-3.9948,0.0,0.0,0.0,-3.927,0.0,0.0,-3.927,-3.932,-3.9597,-3.9697,-3.9697,-3.9697,-3.9848,-4.0124,-4.04,-4.0827,-4.143,-4.2283,-4.2735,-4.3037,-4.3614,-4.3991,-4.4192,-4.4192,-4.4593,-4.492,-4.4342,-4.502,-4.5748,-4.5171,-4.5271,-4.5347,-4.4744,-4.4392,-4.389,-4.2841,-4.2108,-4.1404,-4.03,-3.9873,-3.9597,-3.9346,-3.9521,-3.9697,-3.9697,-3.9697,-3.9697,-3.9697,-3.9697,-3.9798,-4.0099,-3.9848,-3.9798,-4.0074,-3.9597,-3.917,-3.8894,0.0,-3.917,0.0,0.0,0.0,-4.0099,0.0,-4.0099,-4.0099,-3.9823,-3.9697,-3.9697,-3.9697,-3.9697,-3.9697,-3.9697,-3.9697,-3.9697,-3.9697,-3.9697,-3.9697,-3.9697,-3.9697,-3.9722,-3.9998,-4.0275,-4.0626,-4.082,-4.1105,-4.2202,-4.5159,-4.756,-5.0341,-5.4196,-5.6224,-5.6922,-5.5616,-5.5616,-5.539,-5.4511,-5.5767,-5.6294,-5.529,-5.4285,-5.3482,-5.2955,-5.2528,-5.1774,-5.0645,-4.9681,-4.8288,-4.6439,-4.3727,-4.2224,-4.1977,-4.0269,-3.9688,-4.0149,-3.9848,0.0,0.0,0.0,0.0,0.0,-3.912,-3.922,-3.9521,-3.9647,-3.9697,-3.9697,-3.9697,-3.9697,-3.9697,-3.9823,-4.0074,-4.0576,-4.2108,-4.2333,-4.2158,-4.3137,-4.3438,-4.3463,-4.3589,-4.4016,-4.4317,-4.379,-4.4443,-4.5171,-4.4593,-4.4794,-4.4895,-4.3991,-4.3614,-4.3162,-4.2183,-4.1455,-4.0701,-3.9697,-3.9622,-3.9647,-3.9546,-3.9622,-3.9697,-3.9697,-3.9697,-3.9697,-3.9697,-3.9697,-3.9823,-4.0149,-3.9873,-3.9647,-3.9521,-3.9521,-3.927,-3.8718,-3.922,-3.927,0.0,0.0,-4.0199,-3.9873,0.0,-4.0174,-3.9873,-3.9747,-3.9697,-3.9697,-3.9697,-3.9697,-3.9697,-3.9697,-3.9697,-3.9697,-3.9697,-3.9697,-3.9697,-3.9697,-3.9697,-3.9697,-3.9697,-3.9973,-4.0475,-4.0944,-4.3098,-4.4764,-4.4238,-4.9005,-5.2889,-5.2792,-5.6079,-5.8504,-5.8353,-5.7474,-5.6846,-5.6721,-5.6018,-5.529,-5.4687,-5.4059,-5.3482,-5.2955,-5.2879,-5.2352,-5.1247,-4.9001,-4.6634,-4.4217,-4.1584,-3.9646,-3.8585,-3.8651,-3.8827,-3.9044,-3.9471,-3.9421,0.0,0.0,0.0,-3.8216,-3.9195,-3.9346,-3.9045,-3.9496,-3.9697,-3.9697,-3.9697,-3.9697,-3.9747,-4.0249,-4.0149,-3.9948,-4.1103,-4.1401,-4.153,-4.2133,-4.2363,-4.2464,-4.2911,-4.3438,-4.3765,-4.3212,-4.3865,-4.4568,-4.4016,-4.3915,-4.394,-4.3815,-4.3037,-4.2187,-4.153,-4.0576,-3.9672,-3.9069,-3.9346,-3.9521,-3.9019,-3.9371,-3.9697,-3.9697,-3.9697,-3.9697,-3.9697,-3.9697,-3.9521,-3.9069,-3.9421,-3.9496,-3.8994,-3.8994,-3.8693,-3.8115,-3.8642,-3.8693,-3.809,-3.917,-3.9998,-4.0425,-3.9998,-3.9998,-4.0425,-3.9923,-3.9697,-3.9697,-3.9697,-3.9697,-3.9697,-3.9697,-3.9697,-3.9697,-3.9697,-3.9697,-3.9697,-3.9697,-3.9697,-3.9697,-3.9697,-3.9722,-3.9848,-4.4678,-4.5118,-4.6262,-4.9021,-5.1128,-5.3035,-5.4941,-5.6601,-5.77,-5.77,-5.7323,-5.6922,-5.657,-5.5842,-5.5164,-5.4612,-5.4034,-5.3482,-5.2955,-5.2628,-5.2076,-5.1322,-4.9709,-4.7863,-4.5872,-4.3044,-4.0917,-3.949,-3.8895,-3.8495,-3.8341,-3.8938,-3.9094,-3.8919,-3.8743,-3.8818,-3.9019,-3.9145,-3.927,-3.9371,-3.9597,-3.9697,-3.9697,-3.9697,-3.9697,-3.9722,-3.9948,-3.9873,-3.9772,-4.0199,-4.0802,-4.1326,-4.1605,-4.2108,-4.269,-4.2564,-4.2861,-4.3263,-4.3037,-4.3539,-4.3991,-4.3438,-4.3564,-4.3714,-4.3388,-4.2459,-4.1605,-4.1326,-4.045,-3.9622,-3.9396,-3.9546,-3.9622,-3.9396,-3.9546,-3.9697,-3.9697,-3.9697,-3.9572,-3.9245,-3.9195,-3.8969,-3.8417,-3.8542,-3.8743,-3.8919,-3.917,-3.912,-3.8567,-3.9069,-3.9094,-3.8542,0.0,-3.9798,-4.0023,-3.9798,-3.9798,-4.0023,-3.9798,-3.9697,-3.9697,-3.9697,-3.9697,-3.9697,-3.9697,-3.9697,-3.9697,-3.9697,-3.9697,-3.9697,-3.9697,-3.9697,-3.9697,-3.9697,-3.9697,-3.9722,-4.6455,-4.6808,-4.7946,-5.1245,-5.2692,-5.3959,-5.5708,-5.6625,-5.6972,-5.6821,-5.6646,-5.6394,-5.6018,-5.5315,-5.4737,-5.4336,-5.3808,-5.3256,-5.2729,-5.2327,-5.1774,-5.1046,-4.9591,-4.804,-4.6514,-4.3687,-4.1542,-4.0282,-3.9314,-3.8707,-3.8425,-3.8912,-3.9019,-3.8919,-3.8617,-3.8843,-3.9446,-3.922,-3.9346,-3.9697,-3.9697,-3.9697,-3.9697,-3.9697,-3.9697,-3.9697,-3.9697,-3.9697,-3.9697,-3.9697,-4.0325,-4.105,-4.105,-4.1756,-4.2459,-4.2288,-4.259,-4.2986,-4.2986,-4.3263,-4.3463,-4.3062,-4.3263,-4.3413,-4.2861,-4.2007,-4.12,-4.0874,-4.0249,-3.9697,-3.9697,-3.9697,-3.9697,-3.9697,-3.9697,-3.9697,-3.9697,-3.9546,-3.9295,-3.8969,-3.8718,-3.8391,-3.7814,-3.7914,-3.8115,-3.8366,-3.8894,-3.9019,-3.8642,-3.9145,-3.9195,0.0,0.0,0.0,-3.9697,-3.9697,-3.9697,-3.9697,-3.9697,-3.9697,-3.9697,-3.9697,-3.9697,-3.9697,-3.9697,-3.9697,-3.9697,-3.9697,-3.9697,-3.9697,-3.9697,-3.9697,-3.9697,-3.9697,-3.9697,-3.9697,-4.4898,-4.7981,-5.0216,-4.9025,-5.33,-5.6203,-5.4047,-5.5583,-5.6846,-5.6294,-5.5742,-5.5415,-5.539,-5.4386,-5.3708,-5.3708,-5.3231,-5.2703,-5.2151,-5.2101,-5.1599,-5.0469,-4.8061,-4.6255,-4.5131,-4.221,-4.0489,-4.0114,-3.9618,-3.9501,-3.9697,-3.9697,-3.9396,-3.8944,-3.9421,-3.9371,-3.8969,-3.9446,-3.9697,-3.9697,-3.9697,-3.9697,-3.9697,-3.9697,-3.9697,-3.9697,-3.9697,-3.9697,-3.9697,-3.9697,-4.0074,-4.0526,-4.0526,-4.0849,-4.1455,-4.2062,-4.259,-4.2986,-4.2986,-4.2986,-4.2986,-4.2986,-4.2986,-4.2836,-4.2338,-4.1731,-4.0974,-3.9948,-3.9697,-3.9697,-3.9697,-3.9697,-3.9697,-3.9697,-3.9697,-3.9697,-3.9697,-3.922,-3.8919,-3.8919,-3.8366,-3.7789,-3.7236,-3.7688,-3.7789,-3.7236,-3.7713,-3.8015,-3.8015,-3.8567,-3.8617,-3.804,-3.9094,0.0,-3.9697,-3.9697,-3.9697,-3.9697,-3.9697,-3.9697,-3.9697,-3.9697,-3.9697,-3.9697,-3.9697,-3.9697,-3.9697,-3.9697,-3.9697,-3.9697,-3.9697,-3.9697,-3.9697,-3.9697,-3.9697,-3.9697,-4.6912,-4.833,-4.9641,-5.0342,-5.2249,-5.3283,-5.2207,-5.3569,-5.457,-5.4034,-5.4144,-5.4235,-5.4235,-5.3909,-5.3708,-5.3708,-5.2879,-5.2302,-5.2126,-5.1373,-5.0619,-4.9891,-4.9102,-4.7629,-4.5423,-4.4302,-4.2651,-4.0282,-4.0499,-4.0428,-4.0249,-4.0249,-3.9948,-3.9446,-3.9622,-3.9597,-3.9446,-3.9622,-3.9697,-3.9697,-3.9697,-3.9697,-3.9697,-3.9697,-3.9697,-3.9697,-3.9697,-3.9697,-3.9697,-3.9697,-4.0074,-4.0526,-4.0526,-4.1153,-4.1856,-4.1656,-4.2258,-4.2986,-4.2986,-4.2986,-4.2986,-4.2986,-4.2766,-4.2414,-4.2263,-4.143,-4.0576,-3.9848,-3.9697,-3.9697,-3.9697,-3.9697,-3.9697,-3.9697,-3.9697,-3.9572,-3.9195,-3.902,-3.8642,-3.7814,-3.7563,-3.7236,-3.6732,-3.6832,-3.696,-3.7161,-3.7688,-3.8191,-3.8567,-3.8818,-3.8969,0.0,-3.9496,0.0,-3.9697,-3.9697,-3.9697,-3.9697,-3.9697,-3.9697,-3.9697,-3.9697,-3.9697,-3.9697,-3.9697,-3.9697,-3.9697,-3.9697,-3.9697,-3.9697,-3.9697,-3.9697,-3.9697,-3.9697,-3.9697,-3.9697,-4.7501,-4.8432,-4.9118,-4.9393,-5.0713,-5.1437,-5.0239,-5.1985,-5.3245,-5.2716,-5.3217,-5.3708,-5.3708,-5.3532,-5.3331,-5.313,-5.2503,-5.1925,-5.1498,-5.082,-5.0167,-4.9615,-4.9389,-4.8284,-4.615,-4.5797,-4.429,-4.1646,-4.1597,-4.1293,-4.0774,-4.0774,-4.0526,-3.9998,-3.9998,-3.9898,-3.9697,-3.9697,-3.9697,-3.9697,-3.9697,-3.9697,-3.9697,-3.9697,-3.9697,-3.9697,-3.9697,-3.9697,-3.9697,-3.9697,-3.9923,-4.0249,-4.045,-4.1128,-4.1831,-4.1681,-4.2283,-4.2986,-4.2986,-4.2986,-4.2986,-4.2986,-4.2766,-4.2464,-4.2263,-4.1304,-4.0425,-4.0074,-3.9848,-3.9697,-3.9697,-3.9697,-3.9697,-3.9697,-3.9697,-3.9496,-3.8994,-3.8668,-3.8216,-3.7287,-3.701,-3.6782,-3.643,-3.6606,-3.6782,-3.6908,-3.7588,-3.8165,-3.8517,0.0,-3.9145,-3.9069,-3.9471,-3.9697,-3.9697,-3.9697,-3.9697,-3.9697,-3.9697,-3.9697,-3.9697,-3.9697,-3.9697,-3.9697,-3.9697,-3.9697,-3.9697,-3.9697,-3.9697,-3.9697,-3.9697,-3.9697,-3.9697,-3.9697,-3.9697,-3.9697,-4.6701,-4.817,-4.8608,-4.6571,-4.8899,-5.0284,-4.8398,-5.0694,-5.2497,-5.2163,-5.2946,-5.3493,-5.3493,-5.2928,-5.2335,-5.1804,-5.1822,-5.1372,-5.0206,-5.004,-4.9766,-4.9282,-4.8782,-4.7983,-4.692,-4.642,-4.5429,-4.3915,-4.2916,-4.2057,-4.1451,-4.1451,-4.115,-4.0626,-4.0601,-4.0275,-3.9747,-3.9722,-3.9697,-3.9697,-3.9697,-3.9645,-3.9569,-3.9697,-3.9645,-3.9594,-3.9722,-3.9747,-3.9747,-3.9798,-3.9848,-3.9948,-4.0475,-4.1003,-4.1555,-4.2062,-4.259,-4.2986,-4.2986,-4.2986,-4.2986,-4.2986,-4.2961,-4.2785,-4.2288,-4.1304,-4.0551,-4.0526,-4.0099,-3.9747,-3.9697,-3.9697,-3.9697,-3.9697,-3.9672,-3.9446,-3.8894,-3.8316,-3.7764,-3.7236,-3.6782,-3.648,-3.6505,-3.6958,-3.6985,-3.6556,-3.7437,-3.8015,0.0,0.0,-3.9245,-3.8165,-3.9145,-3.9697,-3.9697,-3.9697,-3.9722,-3.9747,-3.9798,-3.9798,-3.9798,-3.9772,-3.9747,-3.9747,-3.9722,-3.9697,-3.9697,-3.9697,-3.9697,-3.9697,-3.9697,-3.9697,-3.9697,-3.9697,-3.9697,-3.9697,-4.5008,-4.6147,-4.6885,-4.6024,-4.673,-4.7581,-4.7953,-4.9043,-5.0276,-5.1345,-5.139,-5.1333,-5.1333,-5.0151,-4.8991,-4.8099,-4.9136,-4.9077,-4.7226,-4.6667,-4.6221,-4.5638,-4.563,-4.5378,-4.4801,-4.5167,-4.5306,-4.5095,-4.4392,-4.3765,-4.3212,-4.3212,-4.2685,-4.181,-4.1329,-4.0774,-4.03,-3.9873,-3.9697,-3.9697,-3.9697,-3.9154,-3.8449,-3.9362,-3.9154,-3.8498,-3.9835,-4.0325,-4.0375,-4.0802,-4.1229,-4.1659,-4.1785,-4.2158,-4.2534,-4.2288,-4.259,-4.2986,-4.2986,-4.2986,-4.2986,-4.2986,-4.266,-4.2263,-4.1656,-4.1275,-4.0974,-4.0601,-4.04,-4.0199,-3.9772,-3.9697,-3.9697,-3.9697,-3.9346,-3.8868,-3.8291,-3.7739,-3.7337,-3.7211,-3.7061,-3.7161,-3.7588,-3.7362,-3.7312,-3.7588,-3.7864,-3.8015,-3.8015,-3.9471,-3.9998,-3.932,-3.9546,-3.9697,-3.9697,-3.9697,-3.9898,-4.0325,-4.0752,-4.0899,-4.0874,-4.0526,-4.0325,-4.03,-3.9873,-3.9697,-3.9697,-3.9697,-3.9697,-3.9697,-3.9697,-3.9697,-3.9697,-3.9697,-3.9697,-3.9697,-4.4382,-4.519,-4.5616,-4.4967,-4.533,-4.5809,-4.5968,-4.7061,-4.8043,-4.8456,-4.9147,-4.9486,-4.9248,-4.8673,-4.7748,-4.6258,-4.7259,-4.7374,-4.5783,-4.5393,-4.5049,-4.4774,-4.4635,-4.441,-4.392,-4.4705,-4.522,-4.5497,-4.4644,-4.4091,-4.379,-4.3539,-4.2961,-4.2213,-4.1856,-4.1279,-4.0501,-4.0199,-3.9923,-3.9645,-3.9102,-3.8502,-3.8027,-3.8928,-3.8896,-3.8543,-4.0252,-4.0902,-4.0874,-4.1175,-4.153,-4.1831,-4.2137,-4.2414,-4.264,-4.259,-4.2791,-4.2986,-4.2986,-4.2986,-4.2986,-4.2986,-4.276,-4.2459,-4.2158,-4.1882,-4.163,-4.1329,-4.1078,-4.0802,-4.0501,-4.0249,-3.9998,-3.9747,-3.922,-3.8567,-3.7739,-3.7362,-3.7186,-3.7186,-3.7186,-3.7387,-3.7939,-3.799,-3.7965,-3.8015,-3.8492,0.0,-3.8417,-3.9747,-4.0249,-3.9722,-4.0174,-4.045,-4.045,-4.045,-4.0601,-4.0902,-4.115,-4.1275,-4.1275,-4.0724,-4.0526,-4.0475,-3.9923,-3.9697,-3.9697,-3.9697,-3.9697,-3.9697,-3.9697,-3.9697,-3.9697,-3.9697,-3.9697,-3.9697,-4.4281,-4.4683,-4.4764,-4.3959,-4.432,-4.4637,-4.4034,-4.5324,-4.617,-4.5586,-4.6853,-4.7585,-4.7198,-4.7293,-4.6653,-4.4806,-4.5456,-4.5611,-4.4731,-4.4595,-4.455,-4.455,-4.4098,-4.3733,-4.341,-4.4451,-4.5072,-4.5301,-4.4452,-4.4016,-4.3915,-4.3363,-4.2811,-4.2313,-4.2162,-4.1451,-4.0336,-4.0187,-3.9733,-3.9077,-3.8056,-3.7708,-3.7827,-3.8335,-3.8659,-3.9129,-4.0582,-4.1293,-4.148,-4.1501,-4.1526,-4.1681,-4.2133,-4.2338,-4.2414,-4.2891,-4.2986,-4.2986,-4.2986,-4.2986,-4.2986,-4.2986,-4.2986,-4.2986,-4.2986,-4.2665,-4.2313,-4.2238,-4.1781,-4.1376,-4.13,-4.0824,-4.035,-3.9898,-3.922,-3.8417,-3.7437,-3.7236,-3.7211,-3.7287,-3.7462,-3.7789,-3.8341,-3.8843,-3.8944,-3.8542,-3.932,-3.9647,-3.927,-4.0199,-4.0551,-4.0074,-4.0902,-4.1275,-4.1275,-4.1376,-4.1455,-4.1455,-4.1501,-4.1526,-4.1555,-4.1003,-4.0727,-4.0601,-4.0049,-3.9772,-3.9697,-3.9697,-3.9697,-3.9697,-3.9697,-3.9697,-3.9697,-3.9697,-3.9697,-3.9697,-4.3782,-4.4146,-4.4375,-4.3777,-4.384,-4.415,-4.5047,-4.5082,-4.5384,-4.6537,-4.5893,-4.5244,-4.517,-4.4063,-4.2919,-4.18,-4.1879,-4.2053,-4.2111,-4.1783,-4.1551,-4.1551,-4.0751,-4.0793,-4.1924,-4.3589,-4.4422,-4.4523,-4.4963,-4.497,-4.4493,-4.394,-4.3388,-4.2811,-4.1882,-4.0789,-3.9673,-3.8723,-3.7679,-3.6727,-3.6511,-3.6711,-3.7159,-3.7197,-3.8162,-3.9575,-4.0217,-4.1158,-4.2162,-4.2559,-4.2735,-4.2735,-4.2836,-4.2916,-4.2861,-4.2961,-4.2986,-4.2986,-4.2986,-4.2986,-4.2986,-4.2986,-4.2986,-4.2986,-4.2986,-4.2911,-4.2766,-4.2313,-4.2137,-4.1882,-4.1376,-4.0824,-4.0501,-4.04,-3.912,-3.809,-3.7889,-3.7487,-3.7362,-3.7814,-3.8718,-3.9521,-4.0074,-4.0199,-4.0425,-4.0749,-4.0551,-4.0551,-4.0874,-4.1555,-4.1911,-4.1835,-4.1505,-4.1275,-4.1275,-4.1806,-4.2087,-4.2087,-4.2509,-4.2735,-4.271,-4.2213,-4.1656,-4.1125,-4.0626,-4.0124,-3.9697,-3.9697,-3.9697,-3.9697,-3.9697,-3.9697,-3.9697,-3.9697,-3.9697,-3.9697,-4.2344,-4.268,-4.286,-4.2427,-4.2685,-4.3096,-4.3387,-4.3448,-4.3608,-4.4117,-4.376,-4.34,-4.3172,-4.2657,-4.2185,-4.1765,-4.1352,-4.113,-4.1234,-4.0863,-4.0494,-4.0247,-3.9749,-3.9904,-4.0825,-4.1643,-4.2477,-4.3169,-4.2983,-4.2784,-4.246,-4.1705,-4.1201,-4.0961,-4.1103,-4.0234,-3.8577,-3.8766,-3.7783,-3.6131,-3.5553,-3.5569,-3.6039,-3.6307,-3.7508,-3.9151,-4.032,-4.1555,-4.269,-4.2886,-4.2986,-4.2986,-4.2986,-4.2986,-4.2986,-4.2986,-4.2986,-4.2986,-4.2986,-4.2986,-4.2986,-4.2986,-4.2986,-4.2986,-4.2986,-4.2986,-4.2911,-4.2715,-4.2665,-4.2564,-4.2258,-4.153,-4.0899,-4.0899,-3.9295,-3.8115,-3.8442,-3.799,-3.7939,-3.8818,-3.9647,-4.035,-4.0902,-4.0899,-4.1025,-4.1275,-4.105,-4.1025,-4.1275,-4.1856,-4.2213,-4.2213,-4.2208,-4.2233,-4.2233,-4.2459,-4.2665,-4.2665,-4.2861,-4.2986,-4.2961,-4.2464,-4.2062,-4.1731,-4.0877,-4.0375,-4.0124,-3.9823,-3.9697,-3.9697,-3.9697,-3.9697,-3.9697,-3.9697,-3.9697,-3.9697,-4.1523,-4.1641,-4.1699,-4.1367,-4.1817,-4.1993,-4.1677,-4.1927,-4.2005,-4.1695,-4.1927,-4.2005,-4.1695,-4.1828,-4.1895,-4.1776,-4.1088,-4.0559,-4.0351,-4.0136,-3.9892,-3.9564,-3.9412,-3.9453,-3.9713,-4.0018,-4.0644,-4.1597,-4.1021,-4.064,-4.0502,-3.9629,-3.9216,-3.9216,-4.0093,-3.9299,-3.736,-3.8204,-3.7414,-3.549,-3.4588,-3.471,-3.5504,-3.5641,-3.7108,-3.9267,-4.03,-4.1672,-4.2986,-4.2986,-4.2986,-4.2986,-4.2986,-4.2986,-4.2986,-4.2986,-4.2986,-4.2986,-4.2986,-4.2986,-4.2986,-4.2986,-4.2986,-4.2986,-4.2986,-4.2986,-4.2986,-4.2986,-4.2986,-4.2986,-4.2986,-4.2183,-4.148,-4.13,0.0,-3.8542,-3.8994,-3.8693,-3.8768,-3.9772,-4.0475,-4.1053,-4.148,-4.1656,-4.1731,-4.1731,-4.1731,-4.1731,-4.1731,-4.2108,-4.2414,-4.2414,-4.2816,-4.2986,-4.2986,-4.2986,-4.2986,-4.2986,-4.2986,-4.2986,-4.2961,-4.259,-4.2263,-4.1907,-4.1078,-4.0551,-4.03,-3.9873,-3.9697,-3.9697,-3.9697,-3.9697,-3.9697,-3.9697,-3.9697,-3.9697,-4.2344,-4.2051,-4.1797,-4.1758,-4.1543,-4.1289,-4.125,-4.125,-4.125,-4.125,-4.125,-4.125,-4.125,-4.0878,-4.0467,-4.0131,-3.9661,-3.921,-3.8812,-3.9066,-3.9282,-3.9461,-3.9075,-3.8667,-3.8325,-3.9583,-4.0038,-3.9706,-4.0344,-4.0456,-4.002,-3.9469,-3.9216,-3.9193,-3.8792,-3.7653,-3.6121,-3.5659,-3.4733,-3.3617,-3.3501,-3.4705,-3.6345,-3.5276,-3.7384,-4.0741,-3.9744,-4.0928,-4.2986,-4.2986,-4.2986,-4.2986,-4.2986,-4.2986,-4.2986,-4.2986,-4.2986,-4.2986,-4.2986,-4.2986,-4.2986,-4.2986,-4.2986,-4.2986,-4.2986,-4.2986,-4.2986,-4.2986,-4.2986,-4.2986,-4.2986,-4.2564,-4.1932,-4.1376,0.0,0.0,-3.9622,-3.9597,-3.9798,-4.0375,-4.1379,-4.2112,-4.2137,-4.2559,-4.2861,-4.2861,-4.2861,-4.2861,-4.2861,-4.2886,-4.2911,-4.2911,-4.2961,-4.2986,-4.2986,-4.2986,-4.2986,-4.2986,-4.2986,-4.2986,-4.2986,-4.2936,-4.2359,-4.1351,-4.125,-4.0701,-3.9747,-3.9722,-3.9697,-3.9697,-3.9697,-3.9697,-3.9697,-3.9697,-3.9697,-3.9697,-4.166,-4.1523,-4.1406,-4.1406,-4.1289,-4.1172,-4.1172,-4.1172,-4.1172,-4.1172,-4.1172,-4.1172,-4.1172,-4.0781,-4.0428,-4.0203,-3.9367,-3.8734,-3.8454,-3.8157,-3.8254,-3.9055,-3.8869,-3.8647,-3.8191,-3.8954,-3.9136,-3.8671,-3.8402,-3.8183,-3.7989,-3.7213,-3.6846,-3.6885,-3.7185,-3.6522,-3.5282,-3.5555,-3.4954,-3.3803,-3.3803,-3.4473,-3.5459,-3.4998,-3.6436,-3.878,-3.9098,-4.0326,-4.1923,-4.2737,-4.2986,-4.2986,-4.2986,-4.2986,-4.3037,-4.3388,-4.3237,-4.3062,-4.3388,-4.3237,-4.3062,-4.3413,-4.3237,-4.3062,-4.3413,-4.3212,-4.2986,-4.2986,-4.2986,-4.3087,-4.3413,-4.2816,-4.2363,-4.2785,0.0,-4.045,-4.1128,-4.0927,-4.0927,-4.148,-4.2263,-4.2715,-4.2715,-4.2861,-4.2986,-4.2986,-4.2986,-4.2986,-4.2986,-4.2986,-4.2986,-4.2986,-4.2986,-4.2986,-4.2986,-4.2986,-4.2986,-4.2986,-4.2986,-4.2986,-4.2986,-4.2986,-4.2559,-4.1831,-4.148,-4.0849,-4.0174,-3.9848,-3.9697,-3.9697,-3.9697,-3.9697,-3.9697,-3.9697,-3.9697,-3.9697,-4.1172,-4.1172,-4.1172,-4.1172,-4.1172,-4.1172,-4.1172,-4.1172,-4.1172,-4.1172,-4.1172,-4.1113,-4.0976,-4.0586,-4.0154,-3.9865,-3.8935,-3.8282,-3.8097,-3.7639,-3.7637,-3.8241,-3.8288,-3.8212,-3.8058,-3.8279,-3.8285,-3.7964,-3.7177,-3.6722,-3.6577,-3.579,-3.5418,-3.5397,-3.5979,-3.5707,-3.4856,-3.5418,-3.5092,-3.4339,-3.4339,-3.4569,-3.4962,-3.4962,-3.5982,-3.7489,-3.8744,-4.0036,-4.1272,-4.2569,-4.2986,-4.3011,-4.3187,-4.3237,-4.3338,-4.389,-4.3539,-4.3112,-4.3639,-4.3388,-4.3112,-4.3664,-4.3514,-4.3388,-4.394,-4.3765,-4.3489,-4.3489,-4.3489,-4.3614,-4.3991,-4.3438,-4.3112,-4.3714,-4.2534,-4.1806,-4.2559,-4.2359,-4.2258,-4.2635,-4.3011,-4.3162,-4.2986,-4.2986,-4.2986,-4.2986,-4.2986,-4.2986,-4.2986,-4.2986,-4.2986,-4.2986,-4.2986,-4.2986,-4.2986,-4.2986,-4.2986,-4.2986,-4.2986,-4.2986,-4.2986,-4.2986,-4.274,-4.2187,-4.158,-4.0974,-4.0475,-3.9923,-3.9697,-3.9697,-3.9697,-3.9697,-3.9697,-3.9697,-3.9697,-3.9697,-4.1172,-4.1172,-4.1172,-4.1172,-4.1172,-4.1172,-4.1172,-4.1172,-4.1172,-4.1172,-4.1172,-4.0996,-4.0566,-4.0156,-3.9531,-3.8652,-3.8184,-3.7734,-3.7324,-3.7566,-3.7589,-3.7119,-3.7079,-3.728,-3.7549,-3.7616,-3.7545,-3.7508,-3.7032,-3.6577,-3.6101,-3.5645,-3.5418,-3.5418,-3.5418,-3.5169,-3.4816,-3.4816,-3.4816,-3.4816,-3.4816,-3.5024,-3.5418,-3.5418,-3.6175,-3.7429,-3.8744,-3.9978,-4.1272,-4.2569,-4.2986,-4.3062,-4.3614,-4.379,-4.389,-4.4468,-4.384,-4.3112,-4.3639,-4.3388,-4.3112,-4.3664,-4.379,-4.394,-4.4493,-4.4618,-4.4618,-4.4618,-4.4618,-4.4618,-4.4644,-4.4618,-4.4443,-4.389,-4.3815,-4.3815,-4.3815,-4.379,-4.379,-4.379,-4.379,-4.3589,-4.3037,-4.2986,-4.2986,-4.2986,-4.2986,-4.2986,-4.2986,-4.2986,-4.2986,-4.2986,-4.2986,-4.2986,-4.2986,-4.2986,-4.2986,-4.2986,-4.2986,-4.2986,-4.2986,-4.2986,-4.274,-4.2187,-4.158,-4.0974,-4.0475,-3.9923,-3.9697,-3.9697,-3.9697,-3.9697,-3.9697,-3.9697,-3.9697,-3.9697,-4.1172,-4.1172,-4.1172,-4.1172,-4.1172,-4.1172,-4.1172,-4.1172,-4.1172,-4.1172,-4.0898,-4.0664,-4.0527,-3.9863,-3.9297,-3.9043,-3.834,-3.7617,-3.6894,-3.6631,-3.6494,-3.6355,-3.7408,-3.7912,-3.7678,-3.7746,-3.7543,-3.7212,-3.6461,-3.6014,-3.5872,-3.5289,-3.5046,-3.5025,-3.4634,-3.4755,-3.519,-3.4548,-3.4652,-3.5231,-3.5231,-3.5293,-3.5418,-3.5418,-3.5665,-3.6135,-3.7429,-3.8684,-3.9978,-4.1215,-4.2263,-4.3011,-4.3162,-4.3212,-4.3338,-4.389,-4.3539,-4.3112,-4.3639,-4.3689,-4.3689,-4.4242,-4.4091,-4.4041,-4.502,-4.492,-4.4618,-4.4618,-4.4618,-4.4744,-4.5146,-4.4895,-4.4694,-4.4945,-4.4644,-4.4367,-4.4367,-4.4041,-4.379,-4.379,-4.3463,-4.3162,-4.2986,-4.2986,-4.2986,-4.2986,-4.2986,-4.2986,-4.2986,-4.2986,-4.2986,-4.2986,-4.2986,-4.2986,-4.2986,-4.2986,-4.2986,-4.2986,-4.2986,-4.2986,-4.2986,-4.2986,-4.274,-4.2187,-4.158,-4.0974,-4.0475,-3.9923,-3.9697,-3.9697,-3.9697,-3.9697,-3.9747,-4.0124,-4.0023,-3.9747,-4.1172,-4.1172,-4.1172,-4.1172,-4.1172,-4.1172,-4.1172,-4.1172,-4.1113,-4.0937,-4.0684,-4.0391,-4.0039,-3.9531,-3.9062,-3.873,-3.8066,-3.7461,-3.6953,-3.668,-3.6523,-3.6523,-3.7272,-3.7599,-3.7257,-3.7257,-3.7124,-3.6817,-3.6113,-3.5735,-3.5489,-3.4954,-3.4673,-3.4715,-3.435,-3.4595,-3.5191,-3.4655,-3.4799,-3.5418,-3.5418,-3.5418,-3.5418,-3.5418,-3.5418,-3.5541,-3.6824,-3.7768,-3.858,-3.9686,-4.1046,-4.2375,-4.2849,-4.3137,-4.3413,-4.3966,-4.3438,-4.2866,-4.3589,-4.3639,-4.3664,-4.4443,-4.4543,-4.4694,-4.5598,-4.5547,-4.5296,-4.5296,-4.5296,-4.5397,-4.5748,-4.5522,-4.5397,-4.5748,-4.5522,-4.5296,-4.5296,-4.4819,-4.4392,-4.4141,-4.3639,-4.3212,-4.3011,-4.2986,-4.2986,-4.2986,-4.2986,-4.2986,-4.2986,-4.2986,-4.2986,-4.2986,-4.2986,-4.2986,-4.2986,-4.2986,-4.2986,-4.2986,-4.2986,-4.2986,-4.2986,-4.2986,-4.2785,-4.2489,-4.1681,-4.11,-4.0777,-4.0023,-3.9697,-3.9697,-3.9697,-3.9697,-3.9747,-4.0074,-3.9973,-3.9747,-4.1172,-4.1172,-4.1172,-4.1172,-4.1152,-4.1113,-4.1113,-4.1094,-4.0918,-4.0527,-4.043,-4.0098,-3.9297,-3.916,-3.8828,-3.8047,-3.7598,-3.7344,-3.7344,-3.7285,-3.7246,-3.7246,-3.6836,-3.6544,-3.6471,-3.6412,-3.6348,-3.6282,-3.5867,-3.5405,-3.4963,-3.4501,-3.43,-3.43,-3.426,-3.4509,-3.486,-3.486,-3.5046,-3.5376,-3.5397,-3.5418,-3.5418,-3.5418,-3.5418,-3.5541,-3.6703,-3.7188,-3.7462,-3.8329,-3.974,-4.1314,-4.2476,-4.3212,-4.374,-4.4242,-4.3363,-4.2514,-4.3514,-4.3463,-4.3388,-4.4443,-4.5121,-4.5698,-4.62,-4.6301,-4.6301,-4.6301,-4.6301,-4.6301,-4.6301,-4.6301,-4.6301,-4.6301,-4.6301,-4.6301,-4.6301,-4.5799,-4.5221,-4.4694,-4.4091,-4.3539,-4.3037,-4.2986,-4.2986,-4.2986,-4.2986,-4.2986,-4.2986,-4.2986,-4.2986,-4.2986,-4.2986,-4.2986,-4.2986,-4.2986,-4.2986,-4.2986,-4.2986,-4.2986,-4.2986,-4.2986,-4.2986,-4.2911,-4.1856,-4.1326,-4.12,-4.0199,-3.9747,-3.9697,-3.9697,-3.9697,-3.9697,-3.9747,-3.9747,-3.9697,-4.1172,-4.1172,-4.1172,-4.1172,-4.0898,-4.0664,-4.0664,-4.0391,-4.0137,-4.0039,-3.9707,-3.9414,-3.9219,-3.8906,-3.8633,-3.8457,-3.8047,-3.7793,-3.7793,-3.7168,-3.6816,-3.6816,-3.6387,-3.6113,-3.6084,-3.5818,-3.5603,-3.5658,-3.4851,-3.4241,-3.3745,-3.3624,-3.355,-3.353,-3.3416,-3.3761,-3.4411,-3.4411,-3.4595,-3.4941,-3.5273,-3.5418,-3.5418,-3.5418,-3.5418,-3.5418,-3.5705,-3.6481,-3.7582,-3.9312,-4.0153,-4.0628,-4.1425,-4.2082,-4.259,-4.2715,-4.2791,-4.2936,-4.3614,-4.4041,-4.4443,-4.5121,-4.5723,-4.6175,-4.6276,-4.6301,-4.6301,-4.6301,-4.6301,-4.6301,-4.6301,-4.6301,-4.6301,-4.6301,-4.6301,-4.6301,-4.6301,-4.5447,-4.4769,-4.4644,-4.3765,-4.3112,-4.2986,-4.2986,-4.2986,-4.2986,-4.2986,-4.2986,-4.2986,-4.2986,-4.2986,-4.2986,-4.2986,-4.2986,-4.2986,-4.2986,-4.2986,-4.2986,-4.2986,-4.2986,-4.2986,-4.2986,-4.2986,-4.2936,-4.2258,-4.1731,-4.1225,-4.0626,-4.0074,-3.9697,-3.9697,-3.9697,-3.9747,-4.0174,-4.0074,-3.9747,-4.1172,-4.1172,-4.1172,-4.1172,-4.082,-4.0527,-4.0527,-4.0156,-3.9824,-3.959,-3.9355,-3.9121,-3.8926,-3.8711,-3.8574,-3.8574,-3.8359,-3.8144,-3.793,-3.7324,-3.6875,-3.668,-3.625,-3.6016,-3.6016,-3.5195,-3.4766,-3.4766,-3.4297,-3.375,-3.3105,-3.3077,-3.3139,-3.3336,-3.3285,-3.3675,-3.4328,-3.4328,-3.4636,-3.5086,-3.5335,-3.5418,-3.5418,-3.5418,-3.5418,-3.5418,-3.5418,-3.5556,-3.6015,-3.7607,-3.8408,-3.888,-3.9848,-4.0873,-4.1756,-4.1756,-4.1781,-4.2032,-4.3112,-4.3159,-4.3143,-4.4224,-4.4691,-4.5168,-4.607,-4.6301,-4.6301,-4.6301,-4.6301,-4.6301,-4.6301,-4.6301,-4.6225,-4.5949,-4.6125,-4.6125,-4.5598,-4.4995,-4.4518,-4.4267,-4.3489,-4.2986,-4.2986,-4.2986,-4.2986,-4.2986,-4.2986,-4.2986,-4.2986,-4.2986,-4.2986,-4.2986,-4.2986,-4.2986,-4.2986,-4.2986,-4.2986,-4.2986,-4.2986,-4.2986,-4.2986,-4.2986,-4.2986,-4.2936,-4.2133,-4.1605,-4.1225,-4.045,-3.9948,-3.9697,-3.9697,-3.9697,-3.9722,-4.0023,-3.9948,-3.9747,-4.1055,-4.0996,-4.0957,-4.0957,-4.0586,-4.0293,-4.0293,-3.9941,-3.9531,-3.9141,-3.9101,-3.8926,-3.8516,-3.8457,-3.8437,-3.8359,-3.8418,-3.8281,-3.7851,-3.7422,-3.7031,-3.668,-3.625,-3.5996,-3.5918,-3.4766,-3.4141,-3.4082,-3.3848,-3.3379,-3.2695,-3.2695,-3.291,-3.332,-3.332,-3.3635,-3.4198,-3.4258,-3.4632,-3.5191,-3.5273,-3.5356,-3.5418,-3.5418,-3.5418,-3.5418,-3.5418,-3.4941,-3.4438,-3.5451,-3.6372,-3.7257,-3.8323,-3.9795,-4.1175,-4.125,-4.0974,-4.0974,-4.2438,-4.2013,-4.1431,-4.2734,-4.3164,-4.3599,-4.5244,-4.5718,-4.5754,-4.5646,-4.5793,-4.5999,-4.5999,-4.612,-4.615,-4.5698,-4.6024,-4.5949,-4.492,-4.4694,-4.4418,-4.3865,-4.3313,-4.2986,-4.2986,-4.2986,-4.2986,-4.2986,-4.2986,-4.2986,-4.2986,-4.2986,-4.2986,-4.2986,-4.2986,-4.2986,-4.2986,-4.2986,-4.2986,-4.2986,-4.2986,-4.2986,-4.2986,-4.2986,-4.2936,-4.2785,-4.1882,-4.1326,-4.1075,-4.0199,-3.9772,-3.9697,-3.9697,-3.9697,-3.9697,-3.9697,-3.9697,-3.9697,-4.0547,-4.0312,-4.0078,-4.0078,-3.9687,-3.9375,-3.9375,-3.9023,-3.873,-3.8672,-3.8652,-3.8496,-3.8066,-3.8008,-3.7871,-3.75,-3.7793,-3.7832,-3.7402,-3.6992,-3.6738,-3.668,-3.625,-3.5859,-3.5488,-3.4902,-3.4434,-3.4082,-3.3031,-3.2424,-3.2246,-3.2246,-3.248,-3.2871,-3.2871,-3.3057,-3.3448,-3.3826,-3.414,-3.4513,-3.4841,-3.5108,-3.5418,-3.5418,-3.5418,-3.5418,-3.5418,-3.5335,-3.5291,-3.5666,-3.6595,-3.7561,-3.7905,-3.9177,-4.0727,-4.115,-4.1225,-4.1309,-4.1882,-4.1856,-4.1685,-4.1745,-4.2038,-4.2448,-4.2706,-4.3274,-4.3575,-4.2888,-4.3731,-4.4559,-4.4559,-4.555,-4.6276,-4.62,-4.625,-4.6075,-4.5472,-4.4945,-4.4418,-4.3865,-4.3313,-4.2986,-4.2986,-4.2986,-4.2986,-4.2986,-4.2986,-4.2986,-4.2986,-4.2986,-4.2986,-4.2986,-4.2986,-4.2986,-4.2986,-4.2986,-4.2986,-4.2986,-4.2986,-4.2986,-4.2986,-4.2986,-4.2766,-4.2313,-4.2162,-4.1505,-4.0626,-4.0475,-4.0124,-3.9697,-3.9697,-3.9697,-3.9697,-3.9697,-3.9697,-3.9697,-4.0137,-4.0019,-3.9902,-3.9902,-3.9512,-3.9199,-3.9199,-3.8848,-3.8496,-3.8242,-3.8223,-3.8047,-3.7617,-3.7578,-3.75,-3.7324,-3.7461,-3.7402,-3.6973,-3.6777,-3.6562,-3.6309,-3.6113,-3.5937,-3.5742,-3.459,-3.3887,-3.3711,-3.2676,-3.2051,-3.1816,-3.2051,-3.2383,-3.2812,-3.3047,-3.3332,-3.3664,-3.3842,-3.4053,-3.4347,-3.4529,-3.4735,-3.4859,-3.4859,-3.4984,-3.517,-3.5356,-3.5273,-3.5063,-3.4935,-3.5425,-3.6274,-3.6797,-3.8126,-3.973,-4.0589,-4.0824,-4.0885,-4.1007,-4.0405,-3.979,-3.9695,-3.9953,-4.0148,-3.9669,-4.1,-4.2474,-4.3239,-4.3579,-4.4159,-4.5232,-4.5665,-4.5748,-4.5422,-4.5648,-4.5447,-4.4242,-4.4141,-4.3966,-4.3413,-4.3112,-4.2986,-4.2986,-4.2986,-4.2986,-4.2986,-4.2986,-4.2986,-4.2986,-4.2986,-4.2986,-4.2986,-4.2986,-4.2986,-4.2986,-4.2986,-4.2986,-4.2986,-4.2986,-4.2986,-4.2986,-4.2986,-4.274,-4.2187,-4.1831,-4.1254,-4.0501,-4.0199,-3.9923,-3.9697,-3.9697,-3.9697,-3.9697,-3.9697,-3.9697,-3.9697]}]]